[[{"header":{"parameterUnit":"m.s-1","parameterCategory":1,"la1":30.6,"la2":28.766,"lo1":-90.7593,"lo2":-88.6598,"dx":0.0162,"dy":0.0183,"nx":116,"ny":114,"refTime":"2022-12-07T18:00:00:Z","depth":0,"parameterNumber":2,"parameterNumberName":"U-component_of_WINDS"},"data":[0.0,0.0,0.0,0.0,0.0,0.0,0.0,0.0,0.0,0.0,0.0,0.0,0.0,0.0,0.0,0.0,0.0,0.0,0.0,0.0,0.0,0.0,0.0,0.0,0.0,0.0,0.0,0.0,0.0,0.0,0.0,0.0,0.0,0.0,0.0,0.0,0.0,0.0,0.0,0.0,0.0,0.0,0.0,0.0,0.0,0.0,0.0,0.0,0.0,0.0,0.0,0.0,0.0,0.0,0.0,0.0,0.0,0.0,0.0,0.0,0.0,0.0,0.0,0.0,0.0,0.0,0.0,0.0,0.0,0.0,0.0,0.0,0.0,0.0,0.0,0.0,0.0,0.0,0.0,0.0,0.0,0.0,0.0,0.0,0.0,0.0,0.0,0.0,0.0,0.0,0.0,0.0,0.0,0.0,0.0,0.0,0.0,0.0,0.0,0.0,0.0,0.0,0.0,0.0,0.0,0.0,0.0,0.0,0.0,0.0,0.0,0.0,0.0,0.0,0.0,0.0,0.0,0.0,0.0,0.0,0.0,0.0,0.0,0.0,0.0,0.0,0.0,0.0,0.0,0.0,0.0,0.0,0.0,0.0,0.0,0.0,0.0,0.0,0.0,0.0,0.0,0.0,0.0,0.0,0.0,0.0,0.0,0.0,0.0,0.0,0.0,0.0,0.0,0.0,0.0,0.0,0.0,0.0,0.0,0.0,0.0,0.0,0.0,0.0,0.0,0.0,0.0,0.0,0.0,0.0,0.0,0.0,0.0,0.0,0.0,0.0,0.0,0.0,0.0,0.0,0.0,0.0,0.0,0.0,0.0,0.0,0.0,0.0,0.0,0.0,0.0,0.0,0.0,0.0,0.0,0.0,0.0,0.0,0.0,0.0,0.0,0.0,0.0,0.0,0.0,0.0,0.0,0.0,0.0,0.0,0.0,0.0,0.0,0.0,0.0,0.0,0.0,0.0,0.0,0.0,0.0,0.0,0.0,0.0,0.0,0.0,0.0,0.0,0.0,0.0,0.0,0.0,0.0,0.0,0.0,0.0,0.0,0.0,0.0,0.0,0.0,0.0,0.0,0.0,0.0,0.0,0.0,0.0,0.0,0.0,0.0,0.0,0.0,0.0,0.0,0.0,0.0,0.0,0.0,0.0,0.0,0.0,0.0,0.0,0.0,0.0,0.0,0.0,0.0,0.0,0.0,0.0,0.0,0.0,0.0,0.0,0.0,0.0,0.0,0.0,0.0,0.0,0.0,0.0,0.0,0.0,0.0,0.0,0.0,0.0,0.0,0.0,0.0,0.0,0.0,0.0,0.0,0.0,0.0,0.0,0.0,0.0,0.0,0.0,0.0,0.0,0.0,0.0,0.0,0.0,0.0,0.0,0.0,0.0,0.0,0.0,0.0,0.0,0.0,0.0,0.0,0.0,0.0,0.0,0.0,0.0,0.0,0.0,0.0,0.0,0.0,0.0,0.0,0.0,0.0,0.0,0.0,0.0,0.0,0.0,0.0,0.0,0.0,0.0,0.0,0.0,0.0,0.0,0.0,0.0,0.0,0.0,0.0,0.0,0.0,0.0,0.0,0.0,0.0,0.0,0.0,0.0,0.0,0.0,0.0,0.0,0.0,0.0,0.0,0.0,0.0,0.0,0.0,0.0,0.0,0.0,0.0,0.0,0.0,0.0,0.0,0.0,0.0,0.0,0.0,0.0,0.0,0.0,0.0,0.0,0.0,0.0,0.0,0.0,0.0,0.0,0.0,0.0,0.0,0.0,0.0,0.0,0.0,0.0,0.0,0.0,0.0,0.0,0.0,0.0,0.0,0.0,0.0,0.0,0.0,0.0,0.0,0.0,0.0,0.0,0.0,0.0,0.0,0.0,0.0,0.0,0.0,0.0,0.0,0.0,0.0,0.0,0.0,0.0,0.0,0.0,0.0,0.0,0.0,0.0,0.0,0.0,0.0,0.0,0.0,0.0,0.0,0.0,0.0,0.0,0.0,0.0,0.0,0.0,0.0,0.0,0.0,0.0,0.0,0.0,0.0,0.0,0.0,0.0,0.0,0.0,0.0,0.0,0.0,0.0,0.0,0.0,0.0,0.0,0.0,0.0,0.0,0.0,0.0,0.0,0.0,0.0,0.0,0.0,0.0,0.0,0.0,0.0,0.0,0.0,0.0,0.0,0.0,0.0,0.0,0.0,0.0,0.0,0.0,0.0,0.0,0.0,0.0,0.0,0.0,0.0,0.0,0.0,0.0,0.0,0.0,0.0,0.0,0.0,0.0,0.0,0.0,0.0,0.0,0.0,0.0,0.0,0.0,0.0,0.0,0.0,0.0,0.0,0.0,0.0,0.0,0.0,0.0,0.0,0.0,0.0,0.0,0.0,0.0,0.0,0.0,0.0,0.0,0.0,0.0,0.0,0.0,0.0,0.0,0.0,0.0,0.0,0.0,0.0,0.0,0.0,0.0,0.0,0.0,0.0,0.0,0.0,0.0,0.0,0.0,0.0,0.0,0.0,0.0,0.0,0.0,0.0,0.0,0.0,0.0,0.0,0.0,0.0,0.0,0.0,0.0,0.0,0.0,0.0,0.0,0.0,0.0,0.0,0.0,0.0,0.0,0.0,0.0,0.0,0.0,0.0,0.0,0.0,0.0,0.0,0.0,0.0,0.0,0.0,0.0,0.0,0.0,0.0,0.0,0.0,0.0,0.0,0.0,0.0,0.0,0.0,0.0,0.0,0.0,0.0,0.0,0.0,0.0,0.0,0.0,0.0,0.0,0.0,0.0,0.0,0.0,0.0,0.0,0.0,0.0,0.0,0.0,0.0,0.0,0.0,0.0,0.0,0.0,0.0,0.0,0.0,0.0,0.0,0.0,0.0,0.0,0.0,0.0,0.0,0.0,0.0,0.0,0.0,0.0,0.0,0.0,0.0,0.0,0.0,0.0,0.0,0.0,0.0,0.0,0.0,0.0,0.0,0.0,0.0,0.0,0.0,0.0,0.0,0.0,0.0,0.0,0.0,0.0,0.0,0.0,0.0,0.0,0.0,0.0,0.0,0.0,0.0,0.0,0.0,0.0,0.0,0.0,0.0,0.0,0.0,0.0,0.0,0.0,0.0,0.0,0.0,0.0,0.0,0.0,0.0,0.0,0.0,0.0,0.0,0.0,0.0,0.0,0.0,0.0,0.0,0.0,0.0,0.0,0.0,0.0,0.0,0.0,0.0,0.0,0.0,0.0,0.0,0.0,0.0,0.0,0.0,0.0,0.0,0.0,0.0,0.0,0.0,0.0,0.0,0.0,0.0,0.0,0.0,0.0,0.0,0.0,0.0,0.0,0.0,0.0,0.0,0.0,0.0,0.0,0.0,0.0,0.0,0.0,0.0,0.0,0.0,0.0,0.0,0.0,0.0,0.0,0.0,0.0,0.0,0.0,0.0,0.0,0.0,0.0,0.0,0.0,0.0,0.0,0.0,0.0,0.0,0.0,0.0,0.0,0.0,0.0,0.0,0.0,0.0,0.0,0.0,0.0,0.0,0.0,0.0,0.0,0.0,0.0,0.0,0.0,0.0,0.0,0.0,0.0,0.0,0.0,0.0,0.0,0.0,0.0,0.0,0.0,0.0,0.0,0.0,0.0,0.0,0.0,0.0,0.0,0.0,0.0,0.0,0.0,0.0,0.0,0.0,0.0,0.0,0.0,0.0,0.0,0.0,0.0,0.0,0.0,0.0,0.0,0.0,0.0,0.0,0.0,0.0,0.0,0.0,0.0,0.0,0.0,0.0,0.0,0.0,0.0,0.0,0.0,0.0,0.0,0.0,0.0,0.0,0.0,0.0,0.0,0.0,0.0,0.0,0.0,0.0,0.0,0.0,0.0,0.0,0.0,0.0,0.0,0.0,0.0,0.0,0.0,0.0,0.0,0.0,0.0,0.0,0.0,0.0,0.0,0.0,0.0,0.0,0.0,0.0,0.0,0.0,0.0,0.0,0.0,0.0,0.0,0.0,0.0,0.0,0.0,0.0,0.0,0.0,0.0,0.0,0.0,0.0,0.0,0.0,0.0,0.0,0.0,0.0,0.0,0.0,0.0,0.0,0.0,0.0,0.0,0.0,0.0,0.0,0.0,0.0,0.0,0.0,0.0,0.0,0.0,0.0,0.0,0.0,0.0,0.0,0.0,0.0,0.0,0.0,0.0,0.0,0.0,0.0,0.0,0.0,0.0,0.0,0.0,0.0,0.0,0.0,0.0,0.0,0.0,0.0,0.0,0.0,0.0,0.0,0.0,0.0,0.0,0.0,0.0,0.0,0.0,0.0,0.0,0.0,0.0,0.0,0.0,0.0,0.0,0.0,0.0,0.0,0.0,0.0,0.0,0.0,0.0,0.0,0.0,0.0,0.0,0.0,0.0,0.0,0.0,0.0,0.0,0.0,0.0,0.0,0.0,0.0,0.0,0.0,0.0,0.0,0.0,0.0,0.0,0.0,0.0,0.0,0.0,0.0,0.0,0.0,0.0,0.0,0.0,0.0,0.0,0.0,0.0,0.0,0.0,0.0,0.0,0.0,0.0,0.0,0.0,0.0,0.0,0.0,0.0,0.0,0.0,0.0,0.0,0.0,0.0,0.0,0.0,0.0,0.0,0.0,0.0,0.0,0.0,0.0,0.0,0.0,0.0,0.0,0.0,0.0,0.0,0.0,0.0,0.0,0.0,0.0,0.0,0.0,0.0,0.0,0.0,0.0,0.0,0.0,0.0,0.0,0.0,0.0,0.0,0.0,0.0,0.0,0.0,0.0,0.0,0.0,0.0,0.0,0.0,0.0,0.0,0.0,0.0,0.0,0.0,0.0,0.0,0.0,0.0,0.0,0.0,0.0,0.0,0.0,0.0,0.0,0.0,0.0,0.0,0.0,0.0,0.0,0.0,0.0,0.0,0.0,0.0,0.0,0.0,0.0,0.0,0.0,0.0,0.0,0.0,0.0,0.0,0.0,0.0,0.0,0.0,0.0,0.0,0.0,0.0,0.0,0.0,0.0,0.0,0.0,0.0,0.0,0.0,0.0,0.0,0.0,0.0,0.0,0.0,0.0,0.0,0.0,0.0,0.0,0.0,0.0,0.0,0.0,0.0,0.0,0.0,0.0,0.0,0.0,0.0,0.0,0.0,0.0,0.0,0.0,0.0,0.0,0.0,0.0,0.0,0.0,0.0,0.0,0.0,0.0,0.0,0.0,0.0,0.0,0.0,0.0,0.0,0.0,0.0,0.0,0.0,0.0,0.0,0.0,0.0,0.0,0.0,0.0,0.0,0.0,0.0,0.0,0.0,0.0,0.0,0.0,0.0,0.0,0.0,0.0,0.0,0.0,0.0,0.0,0.0,0.0,0.0,0.0,0.0,0.0,0.0,0.0,0.0,0.0,0.0,0.0,0.0,0.0,0.0,0.0,0.0,0.0,0.0,0.0,0.0,0.0,0.0,0.0,0.0,0.0,0.0,0.0,0.0,0.0,0.0,0.0,0.0,0.0,0.0,0.0,0.0,0.0,0.0,0.0,0.0,0.0,0.0,0.0,0.0,0.0,0.0,0.0,0.0,0.0,0.0,0.0,0.0,0.0,0.0,0.0,0.0,0.0,0.0,0.0,0.0,0.0,0.0,0.0,0.0,0.0,0.0,0.0,0.0,0.0,0.0,0.0,0.0,0.0,0.0,0.0,0.0,0.0,0.0,0.0,0.0,0.0,0.0,0.0,0.0,0.0,0.0,0.0,0.0,0.0,0.0,0.0,0.0,0.0,0.0,0.0,0.0,0.0,0.0,0.0,0.0,0.0,0.0,0.0,0.0,0.0,0.0,0.0,0.0,0.0,0.0,0.0,0.0,0.0,0.0,0.0,0.0,0.0,0.0,0.0,0.0,0.0,0.0,0.0,0.0,0.0,0.0,0.0,0.0,0.0,0.0,0.0,0.0,0.0,0.0,0.0,0.0,0.0,0.0,0.0,0.0,0.0,0.0,0.0,0.0,0.0,0.0,0.0,0.0,0.0,0.0,0.0,0.0,0.0,0.0,0.0,0.0,0.0,0.0,0.0,0.0,0.0,0.0,0.0,0.0,0.0,0.0,0.0,-2.3408,-2.2883,0.0,0.0,0.0,0.0,0.0,0.0,0.0,0.0,0.0,0.0,0.0,0.0,0.0,0.0,0.0,0.0,0.0,0.0,0.0,0.0,0.0,0.0,0.0,-1.4887,-1.5765,-1.5397,-1.5724,0.0,0.0,0.0,0.0,0.0,0.0,0.0,0.0,0.0,-1.1687,-1.1957,-1.2819,-1.4172,-1.5929,-1.62,-1.5447,-1.3799,0.0,0.0,0.0,0.0,0.0,0.0,0.0,0.0,0.0,0.0,0.0,0.0,0.0,0.0,0.0,0.0,0.0,0.0,0.0,0.0,0.0,0.0,0.0,0.0,0.0,0.0,0.0,0.0,0.0,0.0,0.0,0.0,0.0,0.0,0.0,0.0,0.0,0.0,0.0,0.0,0.0,0.0,0.0,0.0,0.0,0.0,0.0,0.0,0.0,0.0,0.0,0.0,0.0,0.0,0.0,0.0,0.0,0.0,0.0,0.0,0.0,0.0,0.0,0.0,0.0,0.0,0.0,0.0,0.0,0.0,-2.3767,-2.33,0.0,0.0,0.0,0.0,0.0,0.0,0.0,0.0,0.0,0.0,0.0,0.0,0.0,0.0,0.0,0.0,0.0,0.0,0.0,0.0,0.0,-1.2836,-1.2968,-1.5094,-1.6282,-1.5695,-1.6204,-1.6252,-1.5532,-1.5342,0.0,0.0,0.0,0.0,-1.3905,-1.2696,-1.2558,-1.3591,-1.5853,-1.8308,-2.0842,-2.0835,-1.9254,-1.6342,-1.542,0.0,0.0,0.0,0.0,0.0,0.0,0.0,0.0,0.0,0.0,0.0,0.0,0.0,0.0,0.0,0.0,0.0,0.0,0.0,0.0,0.0,0.0,0.0,0.0,0.0,0.0,0.0,0.0,0.0,0.0,0.0,0.0,0.0,0.0,0.0,0.0,0.0,0.0,0.0,0.0,0.0,0.0,0.0,0.0,0.0,0.0,0.0,0.0,0.0,0.0,0.0,0.0,0.0,0.0,0.0,0.0,0.0,0.0,0.0,0.0,0.0,0.0,0.0,-2.5798,-2.55,-2.585,-2.5396,-2.5215,-2.5278,-2.4625,-2.4278,-2.4154,-2.3747,0.0,0.0,0.0,0.0,0.0,0.0,0.0,0.0,0.0,0.0,0.0,0.0,0.0,0.0,0.0,0.0,0.0,0.0,0.0,-1.3723,-1.4428,-1.5491,-1.64,-1.6996,-1.6615,-1.6319,-1.6266,-1.5552,0.0,0.0,0.0,-1.4618,-1.4331,-1.3238,-1.3733,-1.5866,-1.9231,-2.1451,-2.2568,-2.2337,-2.2131,-2.1856,-2.0149,-1.8211,-1.6203,0.0,0.0,0.0,0.0,0.0,0.0,0.0,0.0,0.0,0.0,0.0,0.0,0.0,0.0,0.0,0.0,0.0,0.0,0.0,0.0,0.0,0.0,0.0,0.0,0.0,0.0,0.0,0.0,0.0,0.0,0.0,0.0,0.0,0.0,0.0,0.0,0.0,0.0,0.0,0.0,0.0,-2.7789,-2.7089,0.0,0.0,0.0,0.0,0.0,0.0,0.0,0.0,0.0,0.0,0.0,0.0,0.0,-2.5416,-2.4709,-2.4647,-2.4322,-2.372,-2.4798,-2.5335,-2.5393,-2.571,-2.5972,-2.6091,-2.526,0.0,-2.3993,-2.2515,0.0,0.0,0.0,0.0,0.0,0.0,0.0,0.0,0.0,0.0,0.0,0.0,0.0,0.0,0.0,0.0,0.0,0.0,0.0,0.0,0.0,-1.7089,-1.8864,-1.8764,-2.0268,-2.028,-1.8005,-1.7747,0.0,0.0,-1.4695,-1.4423,-1.4026,-1.4845,-1.7204,-2.1134,-2.31,-2.4915,-2.6555,-2.6433,-2.6403,-2.6471,-2.5818,-2.287,-1.829,-1.718,0.0,0.0,0.0,0.0,0.0,0.0,0.0,0.0,0.0,0.0,0.0,0.0,0.0,0.0,0.0,0.0,0.0,0.0,0.0,0.0,0.0,0.0,0.0,0.0,0.0,0.0,0.0,0.0,0.0,0.0,0.0,0.0,0.0,0.0,0.0,0.0,0.0,0.0,0.0,-2.6213,-2.6735,-2.5338,-2.6005,-2.5956,0.0,0.0,0.0,0.0,0.0,0.0,0.0,0.0,0.0,-2.4061,-2.4333,-2.4611,-2.4886,-2.5217,-2.5264,-2.5013,-2.5544,-2.569,-2.5477,-2.552,-2.5593,-2.5639,-2.5128,-2.4746,-2.4424,-2.342,-2.2753,-2.2341,0.0,0.0,0.0,0.0,-2.1357,-2.0141,0.0,0.0,0.0,0.0,0.0,0.0,0.0,0.0,0.0,0.0,0.0,0.0,-1.532,-1.9116,-2.1476,-2.1086,-2.3393,-2.3353,-1.9719,-1.9434,-1.801,-1.4884,-1.4374,-1.3948,-1.3474,-1.614,-1.9654,-2.4003,-2.5584,-2.7227,-2.8903,-2.9232,-2.9339,-2.9246,-2.9314,-2.6369,-2.1291,-2.0356,-1.8539,-1.61,0.0,0.0,0.0,0.0,0.0,0.0,0.0,0.0,0.0,0.0,0.0,0.0,0.0,0.0,0.0,0.0,0.0,0.0,0.0,0.0,0.0,0.0,0.0,0.0,0.0,0.0,0.0,0.0,0.0,0.0,0.0,0.0,0.0,0.0,0.0,0.0,0.0,-2.5906,-2.6279,-2.4144,-2.5326,-2.5582,0.0,0.0,0.0,0.0,0.0,0.0,-2.3556,-2.3245,-2.3227,-2.3565,-2.3724,-2.4231,-2.5186,-2.5238,-2.5369,-2.5631,-2.5285,-2.4989,-2.4699,-2.4687,-2.4715,-2.4752,-2.4547,-2.4556,-2.4628,-2.4154,-2.3619,-2.3097,-2.2823,-2.2226,-2.1687,-2.3101,-2.282,-2.2053,0.0,0.0,0.0,0.0,0.0,0.0,0.0,0.0,0.0,0.0,0.0,-1.7752,-1.8908,-2.1457,-2.3393,-2.4113,-2.4217,-2.3271,-2.0967,-1.9457,-1.7608,-1.5271,-1.4128,-1.3329,-1.2854,-1.653,-1.9459,-2.1571,-2.5438,-2.738,-2.7535,-2.881,-2.9413,-2.9371,-2.8682,-2.7519,-2.602,-2.5319,-2.36,-2.098,-1.6971,0.0,0.0,0.0,0.0,0.0,0.0,0.0,0.0,0.0,0.0,0.0,0.0,0.0,0.0,0.0,0.0,0.0,0.0,0.0,0.0,0.0,0.0,0.0,0.0,0.0,0.0,0.0,0.0,0.0,0.0,0.0,0.0,0.0,0.0,0.0,0.0,0.0,0.0,-2.5282,-2.6246,0.0,0.0,0.0,0.0,-2.3829,-2.3602,-2.3424,-2.3408,-2.3795,-2.4044,-2.4058,-2.4737,-2.5141,-2.5202,-2.3889,-2.325,-2.3253,-2.2616,-2.2304,-2.2295,-2.2982,-2.3408,-2.358,-2.3575,-2.384,-2.4284,-2.3745,-2.3508,-2.3395,-2.2551,-2.1733,-2.1149,-2.1984,-2.2235,-2.2289,0.0,0.0,0.0,-1.5369,-1.4523,-1.3963,-1.4184,-1.3365,-1.2855,-1.328,-1.5402,-1.7018,-1.7458,-2.1563,-2.4411,-2.469,-2.7051,-2.713,-2.3881,-2.2177,-1.986,-1.6635,-1.4443,-1.4202,-1.6103,-1.8362,-2.0434,-2.2306,-2.4299,-2.5287,-2.5314,-2.7261,-2.8389,-2.8784,-2.9439,-2.8967,-2.7585,-2.6103,-2.4323,-2.2369,-2.0594,-1.806,0.0,0.0,0.0,0.0,0.0,0.0,0.0,0.0,0.0,0.0,0.0,0.0,0.0,0.0,0.0,0.0,0.0,0.0,0.0,0.0,0.0,0.0,0.0,0.0,0.0,0.0,0.0,0.0,0.0,0.0,0.0,0.0,0.0,0.0,0.0,0.0,0.0,-2.4511,-2.5631,0.0,-2.374,-2.3189,-2.306,-2.3302,-2.3331,-2.3327,-2.3327,-2.3626,-2.3784,-2.3784,-2.4035,-2.4178,-2.4178,-2.4009,-2.3493,-2.2579,-2.2696,-2.228,-2.1428,-2.2163,-2.2535,-2.2625,-2.31,-2.3414,-2.3572,-2.3391,-2.3585,-2.3958,-2.3434,-2.3061,-2.2905,-2.3744,-2.418,-2.4436,0.0,0.0,0.0,-1.532,-1.4732,-1.432,-1.4483,-1.3757,-1.3453,-1.4243,-1.6281,-1.7886,-1.8425,-2.2843,-2.5735,-2.5735,-2.8592,-2.881,-2.5072,-2.324,-2.0584,-1.6729,-1.4344,-1.468,-1.8067,-1.8954,-2.0386,-2.2501,-2.3317,-2.3725,-2.3768,-2.5877,-2.7201,-2.7904,-2.888,-2.8766,-2.7742,-2.6036,-2.4745,-2.3838,-2.2936,-2.039,-1.7035,0.0,0.0,0.0,0.0,0.0,0.0,0.0,0.0,0.0,0.0,0.0,0.0,0.0,0.0,0.0,0.0,0.0,0.0,0.0,0.0,0.0,0.0,0.0,0.0,0.0,0.0,0.0,0.0,0.0,0.0,0.0,0.0,0.0,0.0,0.0,-2.4991,-2.3535,-2.4709,-2.4968,-2.3322,-2.2999,-2.2897,-2.2906,-2.3213,-2.3412,-2.3412,-2.3525,-2.3508,-2.3312,-2.3486,-2.3508,-2.3312,-2.3652,-2.3243,-2.2103,-2.2363,-2.1887,-2.0797,-2.1425,-2.1724,-2.1768,-2.2398,-2.2724,-2.2825,-2.2878,-2.3159,-2.3557,-2.3593,-2.3601,-2.3666,-2.4252,-2.4819,-2.542,0.0,0.0,-1.537,-1.532,-1.5133,-1.4837,-1.4373,-1.4427,-1.4936,-1.6159,-1.8428,-2.0527,-2.2125,-2.5279,-2.7269,-2.7294,-2.856,-2.7849,-2.428,-2.2305,-1.9479,-1.5433,-1.383,-1.4695,-1.8272,-1.8046,-1.9137,-2.1726,-2.249,-2.2891,-2.2925,-2.4728,-2.6007,-2.6779,-2.696,-2.6946,-2.6679,-2.5382,-2.5135,-2.5432,-2.38,-2.1921,-1.9841,0.0,0.0,0.0,0.0,0.0,0.0,0.0,0.0,0.0,0.0,0.0,0.0,0.0,0.0,0.0,0.0,0.0,0.0,0.0,0.0,0.0,0.0,0.0,0.0,0.0,0.0,0.0,0.0,0.0,0.0,0.0,0.0,0.0,-2.2216,-2.3953,-2.4404,-2.2528,-2.3571,-2.3726,-2.1917,-2.2304,-2.2661,-2.2674,-2.3209,-2.3551,-2.3551,-2.3551,-2.3275,-2.2717,-2.3246,-2.3275,-2.2717,-2.272,-2.2368,-2.1695,-2.1433,-2.0943,-2.0297,-2.078,-2.0975,-2.0991,-2.1399,-2.1757,-2.2082,-2.2217,-2.2169,-2.2152,-2.288,-2.3141,-2.3141,-2.3141,-2.385,-2.4922,-1.5401,-1.5407,-1.537,-1.532,-1.5133,-1.4837,-1.4373,-1.4506,-1.4674,-1.4716,-1.6829,-1.8742,-1.9812,-2.2499,-2.4463,-2.5093,-2.6872,-2.66,-2.3452,-2.1515,-1.8664,-1.4548,-1.5364,-1.6284,-1.7005,-1.7316,-1.7528,-1.7602,-1.9301,-2.0088,-2.0194,-2.3769,-2.5562,-2.5871,-2.7638,-2.7458,-2.5692,-2.4373,-2.3273,-2.2549,-2.3929,-2.335,-2.1644,0.0,0.0,0.0,0.0,0.0,0.0,0.0,0.0,0.0,0.0,0.0,0.0,0.0,0.0,0.0,0.0,0.0,0.0,0.0,0.0,0.0,0.0,0.0,0.0,0.0,0.0,0.0,0.0,0.0,0.0,0.0,0.0,-2.1097,-2.2241,-2.2541,-2.2645,-2.2589,-2.2949,-2.2998,-2.2478,-2.2161,-2.1986,-2.1955,-2.2132,-2.2225,-2.2225,-2.2225,-2.2377,-2.2694,-2.2377,-2.2583,-2.3355,-2.2915,-2.235,-2.1695,-2.1622,-2.0971,-1.9874,-2.0296,-2.05,-2.0516,-2.0959,-2.1228,-2.1321,-2.1337,-2.1337,-2.1351,-2.1842,-2.1871,-2.1606,-2.1606,-2.2141,-2.2911,-1.54,-1.5407,-1.537,-1.532,-1.5133,-1.487,-1.4489,-1.4888,-1.529,-1.542,-1.7095,-1.8631,-1.9568,-2.1651,-2.3191,-2.3702,-2.5033,-2.4683,-2.1949,-1.8945,-1.6351,-1.4246,-1.515,-1.5975,-1.6581,-1.6902,-1.6868,-1.6534,-1.7719,-1.8285,-1.8361,-2.1282,-2.3079,-2.3944,-2.5831,-2.5852,-2.4405,-2.2945,-2.1618,-2.0599,-2.1172,-2.1228,-2.1126,-2.2103,-2.0946,-1.8876,-1.9483,-2.0113,-2.0606,-2.0235,0.0,0.0,0.0,0.0,0.0,0.0,0.0,0.0,0.0,0.0,0.0,0.0,0.0,0.0,0.0,0.0,0.0,0.0,0.0,0.0,0.0,0.0,0.0,0.0,-2.0089,-2.0694,-2.1595,-2.1718,-2.1835,-2.2232,-2.2273,-2.2176,-2.1934,-2.1787,-2.1592,-2.1342,-2.1568,-2.1697,-2.1697,-2.1697,-2.1758,-2.1894,-2.1758,-2.1946,-2.2438,-2.2104,-2.1612,-2.0953,-2.0733,-2.0064,-1.9043,-1.9259,-1.9372,-1.9426,-2.0097,-2.0401,-2.0451,-2.0845,-2.0878,-2.0764,0.0,0.0,0.0,0.0,-2.1396,-2.165,-1.5557,-1.5466,-1.5409,-1.5434,-1.5212,-1.4916,-1.4649,-1.5433,-1.6331,-1.7051,-1.8247,-1.9423,-2.0472,-2.1887,-2.282,-2.297,-2.3282,-2.2421,-1.9906,-1.5727,-1.3666,-1.4426,-1.4078,-1.47,-1.6561,-1.6483,-1.6565,-1.6935,-1.6927,-1.6919,-1.696,-1.8068,-1.9532,-2.1254,-2.2622,-2.3116,-2.2856,-2.1222,-2.0123,-1.9249,-1.7072,-1.7407,-1.9415,-2.0882,-2.034,-1.8977,-2.0587,-2.0953,-2.0758,-2.1472,0.0,0.0,0.0,0.0,0.0,0.0,0.0,0.0,0.0,0.0,0.0,0.0,0.0,0.0,0.0,0.0,0.0,0.0,0.0,0.0,0.0,0.0,0.0,0.0,-1.9592,-1.9876,-2.0493,-2.1099,-2.1482,-2.1482,-2.1482,-2.1293,-2.0746,-2.1172,-2.1232,-2.0608,-2.1148,-2.1459,-2.1373,0.0,0.0,0.0,0.0,-2.1256,-2.0782,-2.0795,-2.0514,-1.9887,-1.9357,-1.8747,-1.8106,-1.8106,-1.8106,-1.8151,-1.9041,-1.9426,-1.9498,-2.0334,-2.0434,-2.011,-2.0633,-2.0845,-2.0894,-2.1194,-2.1132,-2.0959,-1.6445,-1.5879,-1.5603,-1.6236,-1.565,-1.4978,-1.4644,-1.5729,-1.6495,-1.6273,-1.755,-1.9002,-2.0429,-2.0899,-2.1612,-2.295,-2.2475,-2.0634,-1.7209,-1.5205,-1.4318,-1.4724,-1.4794,-1.5166,-1.5871,-1.5051,-1.4636,-1.4699,-1.4678,-1.465,-1.4684,-1.654,-1.7635,-1.8123,-2.0911,-2.173,-2.0859,-1.9439,-1.875,-1.8328,-1.5907,-1.6785,-1.9619,-2.0287,-2.0742,-2.1264,-2.2881,-2.3716,-2.4109,-2.4579,-2.4827,-2.4774,-2.4247,-2.3306,0.0,0.0,0.0,0.0,0.0,0.0,0.0,0.0,0.0,0.0,0.0,0.0,0.0,0.0,0.0,0.0,0.0,0.0,0.0,-1.7049,-1.8032,-1.8964,-1.9099,-1.9709,-2.0156,-2.0156,-2.0156,-2.0105,-1.9991,-2.0093,-1.9863,-1.9164,-1.9761,-1.9914,-1.931,-1.9825,-2.0093,-1.9927,-2.0093,-2.0319,-2.065,-2.0343,-2.0084,-1.9887,-1.9357,0.0,-1.8106,-1.8106,-1.8106,-1.8125,-1.8308,-1.8391,-1.8391,-1.8588,-1.8608,-1.8622,-1.9576,-1.9945,-1.9962,-2.0019,-2.0212,-2.0449,-1.793,-1.7305,-1.6815,-1.7184,-1.6778,-1.6337,-1.6132,-1.6969,-1.763,-1.7599,-1.8621,-1.9587,-2.0178,-2.0526,-2.0611,-2.0374,-1.878,-1.6688,-1.4081,-1.298,-1.2719,-1.3327,-1.342,-1.394,-1.4887,-1.437,-1.3779,-1.3203,-1.3171,-1.2856,-1.2341,-1.3358,-1.4145,-1.4784,-1.746,-1.839,-1.7977,-1.7674,-1.7324,-1.6805,-1.4737,-1.5296,-1.7503,-1.8803,-1.9497,-2.0135,-2.263,-2.3722,-2.4136,-2.5157,-2.5923,-2.6304,-2.5493,-2.5181,-2.489,0.0,0.0,0.0,0.0,0.0,0.0,0.0,0.0,0.0,0.0,0.0,0.0,0.0,0.0,-1.7721,0.0,0.0,-1.7163,-1.6587,-1.7417,-1.814,-1.814,-1.8474,-1.8953,-1.9721,-1.9798,-1.9669,-1.9281,-1.9254,-1.9097,-1.8741,-1.8688,-1.8688,-1.8688,-1.8688,-1.8676,-1.8641,-1.8676,-1.8996,-1.9647,-1.8623,-1.8427,-1.9041,-1.7891,-1.734,-1.7312,-1.7312,-1.7312,-1.7312,-1.7585,-1.7706,-1.7727,-1.7987,-1.8106,-1.8165,-1.8688,-1.8893,-1.893,-1.9207,-1.9431,-1.9636,-1.916,-1.8867,-1.8437,-1.8193,-1.7928,-1.7706,-1.7609,-1.8185,-1.873,-1.8989,-1.9727,-2.0158,-1.9978,-2.0344,-1.9712,-1.7473,-1.5159,-1.315,-1.1584,-1.0791,-1.0769,-1.1596,-1.185,-1.2547,-1.373,-1.3737,-1.3288,-1.2285,-1.1852,-1.1031,-0.9904,-0.9904,-1.0264,-1.0969,-1.3137,-1.4399,-1.4998,-1.5568,-1.5796,-1.5569,-1.4,-1.395,-1.5031,-1.7083,-1.7811,-1.8138,-2.1186,-2.2159,-2.2342,-2.4264,-2.5543,-2.6213,-2.5738,-2.6173,-2.6574,-2.4876,-2.4216,0.0,0.0,0.0,0.0,0.0,0.0,0.0,0.0,0.0,-1.804,-1.7501,-1.7304,-1.6977,-1.6111,-1.6297,-1.6561,-1.6428,-1.6956,-1.7385,-1.7385,-1.7495,-1.8031,-1.9228,-1.9371,-1.915,-1.8543,-1.8501,-1.8421,-1.8274,-1.7841,-1.7797,-1.8259,-1.7852,-1.7523,-1.7385,-1.7523,-1.7825,-1.8274,-1.6967,-1.6831,-1.7786,-1.6275,-1.5761,-1.6151,-1.6151,-1.6151,-1.6173,-1.6621,-1.6786,-1.6849,-1.7497,-1.77,-1.7639,-1.7854,-1.7887,-1.7867,-1.8516,-1.8727,-1.8817,-1.9277,-1.9844,-2.0038,-1.9208,-1.8397,-1.7804,-1.7635,-1.8267,-1.8695,-1.8433,-1.9105,-1.9752,-2.0132,-2.0016,-1.8891,-1.6397,-1.4517,-1.2801,-1.1265,-1.0407,-1.0182,-1.0722,-1.1727,-1.2341,-1.2498,-1.2504,-1.2456,-1.2285,-1.0269,-0.8651,-0.7483,-0.7483,-0.6991,-0.6186,-0.8455,-1.062,-1.2613,-1.266,-1.3861,-1.5613,-1.4462,-1.3889,-1.396,-1.5628,-1.6607,-1.733,-1.9081,-1.9232,-1.9028,-2.2204,-2.284,-2.2694,-2.4764,-2.4963,-2.4476,-2.488,-2.4251,-2.3299,-2.2889,0.0,0.0,-1.9467,-1.9419,-1.9305,0.0,0.0,-1.7951,-1.7428,-1.6986,-1.649,-1.5864,-1.5771,-1.5639,-1.5109,-1.591,-1.6624,-1.6624,-1.7202,-1.766,-1.7825,-1.7852,-1.7813,-1.7731,-1.7715,-1.744,-1.6793,-1.7285,-1.7357,-1.6793,-1.7274,-1.7302,-1.6652,-1.7246,-1.733,-1.6765,-1.6747,-1.6628,-1.6403,-1.5678,-1.5183,-1.4903,-1.4903,-1.4903,-1.4903,-1.496,-1.4983,-1.5073,-1.6142,-1.6305,-1.5993,-1.6995,-1.7097,-1.6795,-1.7827,-1.8204,-1.8204,-2.0059,-2.0352,-2.0488,-2.0076,-1.9671,-1.9361,-1.9255,-1.9478,-1.975,-1.9965,-2.0276,-2.0517,-2.0649,-1.8939,-1.7044,-1.522,-1.3763,-1.197,-0.9749,-1.0378,-1.0413,-0.9516,-1.1305,-1.198,-1.1343,-1.1938,-1.1638,-1.0308,-0.8682,-0.7237,-0.6095,-0.4659,-0.3403,-0.233,-0.3928,-0.5596,-0.7339,-0.9347,-1.1186,-1.282,-1.3724,-1.3519,-1.2874,-1.5118,-1.639,-1.7089,-1.8177,-1.8322,0.0,-2.0801,-2.1643,-2.2058,-2.4096,-2.4326,-2.3803,-2.3674,-2.2589,-2.1275,-2.0484,0.0,0.0,0.0,-1.7088,-1.6428,-1.6218,-1.5905,-1.5676,-1.566,-1.5959,-1.5974,-1.5251,-1.5557,-1.5749,0.0,-1.5552,-1.5864,-1.5864,-1.614,-1.633,-1.633,-1.633,-1.65,-1.6922,-1.695,-1.6838,-1.651,-1.6397,-1.6358,-1.6482,-1.6397,-1.6169,-1.5864,-1.6169,-1.6397,-1.6492,-1.5911,-1.5829,-1.6202,-1.5219,-1.4764,-1.4698,-1.4698,-1.4698,-1.4698,-1.4698,-1.4698,-1.4744,-1.5197,-1.5286,-1.5153,-1.5851,-1.6005,-1.5958,-1.7175,-1.7854,-1.8205,-2.0605,-2.0605,-2.0586,-2.0585,-2.0538,-2.0478,-2.0416,-2.0341,-2.0453,-2.0891,-2.0957,-2.0847,-2.059,-1.8177,-1.609,-1.4893,-1.3116,-1.1182,-0.9022,-1.0016,-0.9932,-0.826,-1.0532,-1.1295,-1.0183,-1.0956,-1.0567,-0.889,-0.7374,-0.5879,-0.4366,-0.1941,-0.0044,0.1362,0.057,-0.1003,-0.3295,-0.6122,-0.8617,-1.0778,-1.2693,-1.3006,-1.2584,-1.525,-1.6304,-1.6493,-1.7226,-1.7487,-1.764,-1.8655,-1.9369,-2.0097,-2.1875,-2.2418,-2.2305,-2.1976,-2.0554,-1.8877,-1.7941,0.0,0.0,-1.6277,-1.5361,-1.4601,-1.4844,-1.458,-1.436,-1.464,-1.5334,-1.5689,-1.4993,-1.5541,-1.5948,-1.5488,-1.541,-1.541,-1.541,-1.5584,-1.5633,-1.541,-1.5584,-1.5835,-1.6179,-1.6208,-1.6208,-1.6208,-1.569,-1.5633,-1.6179,-1.57,-1.541,-1.541,-1.541,-1.5671,-1.6179,-1.5392,-1.5191,-1.5618,-1.4731,-1.4296,-1.4201,-1.4201,-1.4201,-1.4201,-1.4201,-1.4276,-1.4372,-1.4549,-1.4697,-1.4862,-1.5324,-1.5495,-1.5596,-1.6577,-1.7216,-1.7672,-2.0605,-2.0605,-2.0585,-2.0513,-2.0508,-2.0478,-2.0416,-2.0334,-2.0312,-2.0323,-2.0323,-2.0098,-1.9513,-1.8141,-1.6868,-1.5843,-1.2686,-1.0499,-0.9904,-0.9129,-0.815,-0.6987,-0.9341,-1.0139,-0.8978,-0.8978,-0.8978,-0.889,-0.6591,-0.4233,-0.1865,0.0476,0.2855,0.5139,0.5093,0.2501,-0.1956,-0.3152,-0.6328,-1.0677,-1.1598,-1.247,-1.3507,-1.5947,-1.6146,-1.5256,-1.5923,-1.6168,-1.6042,-1.5225,-1.4998,-1.5345,-1.7206,-1.8383,-1.9186,-1.9889,-1.8388,-1.6344,-1.5595,0.0,-1.4156,-1.4721,-1.5019,-1.5184,-1.5201,-1.5165,-1.5165,-1.5182,-1.5549,-1.5779,-1.5343,-1.5729,-1.5948,-1.5488,-1.541,-1.541,-1.541,-1.6007,-1.6208,-1.5497,-1.6036,-1.6197,0.0,-1.5439,-1.5439,-1.5439,-1.541,-1.541,-1.5439,-1.541,-1.541,-1.541,-1.541,-1.541,-1.5439,-1.54,-1.4971,-1.4158,-1.4121,-1.3707,-1.2954,-1.2954,-1.2954,-1.2954,-1.2954,-1.3189,-1.3578,-1.4167,-1.4688,-1.5143,-1.5749,-1.5966,-1.5992,-1.602,-1.6045,-1.6157,-2.1348,-2.1465,-2.162,-2.2149,-2.2185,-2.2148,-2.2078,-2.1056,-2.0304,-2.0296,-2.0308,0.0,0.0,0.0,0.0,0.0,-1.4798,-1.2967,-1.1276,-1.1551,-1.0967,-0.9096,-1.1539,-1.1655,-0.8978,-0.9623,-0.8917,-0.6596,-0.5002,-0.2964,-0.0534,0.2635,0.5352,0.7596,0.6815,0.4695,0.1429,-0.2874,-0.6408,-0.9412,-1.2706,-1.385,-1.3746,-1.5446,-1.6276,-1.6268,0.0,-1.3993,-1.3962,-1.3944,-1.4109,-1.4694,-1.6804,-1.7143,-1.6561,-1.5426,-1.4799,-1.436,-1.3797,-1.3322,-1.2995,-1.3058,-1.3171,-1.3113,-1.2435,-1.2814,-1.3245,-1.3042,-1.4044,-1.4765,-1.4148,-1.517,-1.5948,-1.5488,-1.541,-1.541,-1.541,-1.5604,-1.569,-1.5439,-1.5613,0.0,0.0,0.0,0.0,-1.541,-1.541,-1.541,-1.541,-1.4894,-1.4599,-1.4599,-1.4094,-1.3825,-1.3825,-1.3825,-1.3532,-1.2968,-1.2472,-1.1974,-1.1509,-1.1509,-1.1624,-1.1843,-1.1843,-1.2035,-1.2321,-1.2511,-1.2698,-1.2913,-1.3414,-1.3607,-1.3635,-1.3901,-1.4002,-1.4298,-2.1855,-2.2148,-2.2518,-2.2974,-2.304,0.0,0.0,0.0,0.0,0.0,0.0,0.0,0.0,0.0,0.0,0.0,0.0,-1.432,-1.2786,-1.2625,-1.184,-1.0103,-1.1779,-1.1632,-0.9188,-0.9751,-0.9271,-0.7668,-0.4382,-0.1767,0.0166,0.4974,0.7998,0.9302,0.744,0.4787,0.1455,-0.3863,-0.7072,-0.8864,-1.2312,-1.3301,-1.2922,-1.4286,-1.5068,0.0,-1.3491,-1.2596,-1.2171,-1.2119,-1.2592,-1.3457,-1.4937,-1.4882,-1.4011,-1.2629,-1.2182,-1.2072,-1.184,-1.1669,-1.1523,-1.1217,-1.1193,-1.1136,-1.0864,-1.1243,-1.1758,-1.2218,-1.3264,-1.4057,-1.3874,-1.4818,-1.5586,-1.543,-1.5283,-1.5293,-1.5605,-1.588,-1.5939,-1.5674,-1.588,-1.5869,0.0,0.0,0.0,-1.541,-1.541,-1.541,-1.541,-1.4628,-1.4213,-1.4213,-1.3425,-1.3009,-1.3009,-1.3009,-1.2731,-1.2208,-1.1696,-1.1286,-1.0994,-1.1091,-1.1253,-1.1448,-1.1448,-1.1625,-1.1959,-1.1959,-1.2032,-1.22,-1.2512,-1.2611,-1.2636,-1.2896,-1.3009,-1.3322,-2.2168,-2.2695,-2.3237,0.0,0.0,0.0,0.0,0.0,0.0,0.0,0.0,0.0,0.0,0.0,0.0,0.0,0.0,0.0,-1.4448,-1.2531,-1.1018,-1.0207,-1.0471,-1.0356,-0.9725,-0.9464,-1.015,-1.1759,-0.5019,-0.1206,-0.0072,0.6606,0.9722,0.9604,0.6481,0.2575,-0.1895,-0.6046,-0.832,-0.9252,-1.0695,-1.1295,-1.1458,-1.2746,-1.2862,-1.2358,-1.2722,-1.2006,-1.0749,-0.9876,0.0,0.0,0.0,0.0,-1.1749,-1.1598,-1.0629,-0.9648,-0.9811,-0.9858,-0.9749,-0.934,-0.9258,-0.9561,-1.0527,-1.0595,-1.0988,-1.2656,-1.324,-1.3678,0.0,0.0,-1.4951,-1.5352,-1.5117,-1.5195,-1.6007,-1.6718,-1.6897,0.0,0.0,0.0,0.0,0.0,0.0,-1.5293,0.0,-1.5352,-1.5352,-1.454,-1.4085,-1.4085,-1.3312,-1.2864,-1.2911,-1.2897,-1.2538,-1.184,-1.17,-1.1478,-1.122,-1.149,-1.1567,-1.1555,-1.1555,-1.18,-1.2174,-1.2174,-1.2397,-1.2757,-1.2757,-1.2757,-1.2757,-1.2787,-1.2826,-1.3023,0.0,0.0,0.0,0.0,0.0,0.0,0.0,0.0,0.0,0.0,0.0,0.0,0.0,0.0,0.0,0.0,0.0,0.0,-1.6352,-1.4961,-1.407,-1.3801,-1.3763,-1.3397,-1.2658,-1.277,-1.2321,-1.1276,-0.9666,-0.7841,-0.5772,-0.3096,-0.1397,-0.0685,-0.235,-0.4246,-0.6427,-0.9541,-1.139,-1.2274,-1.3282,-1.3864,-1.4042,-1.3805,-1.3686,-1.3501,-1.2678,-1.1647,-1.0541,0.0,0.0,0.0,0.0,-1.2847,-1.241,0.0,0.0,-0.9707,-0.9213,-0.9258,-0.9261,-0.84,-0.8732,-0.9372,-0.9631,-1.0756,-1.17,-1.1574,-1.3059,-1.4,0.0,0.0,0.0,-1.5391,-1.5849,0.0,-1.6533,-1.6709,0.0,-1.6562,0.0,-1.6432,-1.5412,-1.5136,0.0,0.0,-1.4285,-1.451,-1.451,-1.3174,-1.2412,-1.2412,-1.1624,-1.1315,-1.1517,-1.1711,-1.1513,-1.093,-1.0899,-1.0617,-1.0101,-1.0179,-0.9971,-0.9522,-0.9522,-0.9377,-0.9133,-0.9133,-0.9168,-0.9291,-0.9291,-0.9291,-0.9354,-1.0009,-1.0243,-1.0483,0.0,0.0,0.0,0.0,0.0,0.0,0.0,0.0,0.0,0.0,0.0,0.0,0.0,0.0,0.0,0.0,0.0,0.0,0.0,-1.5863,-1.51,-1.5235,-1.4785,-1.4317,-1.3847,-1.3868,-1.395,-1.4069,-1.0923,-0.9308,-0.9058,-0.5337,-0.3747,-0.4073,-0.5817,-0.7732,-0.9843,-1.2746,-1.4057,0.0,0.0,-1.4865,-1.4151,-1.3493,-1.2979,-1.2503,-1.1766,-1.1277,-1.0978,0.0,0.0,-1.2848,-1.2668,-1.2277,-1.167,-1.0575,0.0,-0.9257,-0.8536,-0.851,-0.8389,-0.7403,-0.7897,-0.8604,-0.8453,-0.9769,-1.094,-1.0728,-1.1806,0.0,-1.2078,0.0,0.0,0.0,0.0,0.0,-1.6899,-1.6272,-1.5894,0.0,-1.5992,0.0,-1.4754,-1.4547,-1.4234,0.0,-1.3639,-1.3666,-1.3666,-1.2473,-1.1863,-1.1981,-1.1216,-1.0889,-1.1182,-1.1309,-1.1196,-1.078,-1.0393,-0.9964,-0.9516,-0.9138,-0.8775,-0.8463,-0.8463,-0.8286,-0.7994,-0.7994,-0.7994,-0.7994,-0.7994,-0.7994,-0.8059,-0.8549,-0.8716,-0.8871,0.0,0.0,0.0,0.0,0.0,0.0,0.0,0.0,0.0,-2.1114,-2.0896,-2.0917,0.0,0.0,0.0,0.0,0.0,0.0,0.0,0.0,-1.5234,-1.5633,-1.4833,-1.4371,-1.4332,-1.4129,-1.5251,-1.7709,-1.1337,-0.9418,-1.1587,-0.5593,-0.3799,-0.5741,-0.7795,-1.0283,-1.3108,-1.5704,-1.642,-1.5867,-1.6293,-1.5226,-1.3364,0.0,-1.2136,-1.0954,-1.07,-1.1097,-1.1814,-1.2476,-1.304,-1.3317,-1.2227,-1.1344,-1.062,-1.0151,-0.9376,-0.854,-0.7954,-0.7706,-0.7403,-0.6528,-0.7061,-0.7719,-0.7512,-0.8634,-0.9837,-1.0134,0.0,-1.079,-1.1636,-1.2441,-1.3238,-1.4078,0.0,-1.5233,-1.6864,-1.5657,-1.489,-1.5707,-1.5095,-1.4398,-1.3929,-1.3823,-1.3765,-1.3624,-1.3116,-1.2841,-1.2933,-1.2173,-1.1831,-1.2083,-1.1473,-1.1229,-1.1449,-1.1489,-1.1328,-1.0902,-1.0123,-0.9534,-0.9121,-0.8366,-0.7924,-0.7832,-0.7832,-0.7767,-0.7637,-0.7535,-0.7465,-0.7465,-0.733,-0.7298,-0.7298,-0.7428,-0.746,-0.7493,0.0,0.0,0.0,0.0,0.0,0.0,0.0,0.0,0.0,0.0,-2.2617,-2.2637,0.0,0.0,0.0,0.0,0.0,0.0,0.0,0.0,0.0,-1.697,-1.6298,-1.5968,-1.6055,-1.6242,-1.6457,-1.6745,-1.6334,-1.6448,-1.7042,-1.579,-1.5831,-1.6967,-1.6665,-1.7237,-1.8428,-1.8346,-1.8236,-1.8106,-1.7861,-1.6633,-1.4991,-1.5639,0.0,0.0,-1.1199,-1.1636,-1.2638,-1.1419,-1.2419,-1.4047,-1.3519,-1.2664,-1.1735,-1.0869,-0.9394,-0.7963,-0.7842,-0.7173,-0.6528,-0.6338,-0.7061,-0.787,-0.8151,-0.9639,0.0,0.0,-1.085,-1.1472,-1.0393,-1.1326,-1.2507,-1.3126,0.0,0.0,0.0,0.0,-1.5134,0.0,0.0,0.0,0.0,-1.3544,0.0,0.0,-1.1908,-1.2002,-1.2709,-1.1734,-1.1273,-1.1533,-1.1653,-1.1779,-1.1826,-1.2031,-1.1595,-1.0485,-1.0171,-0.9457,-0.8369,-0.8113,-0.76,-0.6915,-0.6915,-0.6527,-0.5782,-0.5008,-0.4707,-0.4607,-0.3903,-0.3604,-0.3701,-0.4422,-0.4683,-0.491,0.0,0.0,0.0,0.0,0.0,0.0,0.0,-2.4768,-2.4438,-2.4823,-2.4608,-2.4032,-2.3095,-2.2596,-2.1913,0.0,0.0,0.0,0.0,0.0,0.0,-1.7549,0.0,0.0,-1.6979,-1.7089,-1.7427,-1.7959,0.0,-1.8314,-1.9628,-1.8473,-1.8412,-1.9237,-1.8441,-1.8568,-1.9377,-1.9074,-1.9185,-1.9564,-1.9826,-1.8951,-1.7603,0.0,0.0,0.0,0.0,-1.2962,-1.3697,-1.1768,-1.2445,-1.3947,-1.3214,-1.2265,-1.1286,-1.0297,-0.895,-0.7668,-0.7176,-0.6679,-0.6416,-0.6949,-0.8219,-0.919,-0.8806,0.0,0.0,0.0,-0.9822,-1.0149,-0.9418,0.0,0.0,-1.1966,-1.2901,0.0,0.0,0.0,0.0,0.0,0.0,0.0,0.0,-1.2854,-1.259,-1.2127,-1.1824,-1.1763,-1.201,-1.1676,-1.1516,-1.165,-1.1422,-1.1345,-1.1345,-1.0922,-1.0439,-0.9834,-0.9083,-0.8397,-0.7697,-0.7064,-0.6219,-0.5302,-0.5302,-0.4806,-0.3949,-0.3513,-0.3311,-0.328,-0.2878,-0.2711,-0.2744,-0.317,-0.3336,-0.3434,0.0,0.0,0.0,0.0,0.0,0.0,0.0,-2.6125,-2.5977,-2.6521,-2.6337,-2.5469,-2.3686,-2.331,-2.2716,0.0,0.0,0.0,0.0,0.0,0.0,0.0,0.0,0.0,0.0,0.0,0.0,0.0,-1.8347,0.0,0.0,0.0,0.0,0.0,-1.8317,-1.8463,-1.9284,-1.94,-1.991,0.0,0.0,-2.1186,0.0,0.0,0.0,0.0,0.0,-1.4617,-1.486,-1.2955,-1.2985,-1.3638,-1.2811,-1.1539,-1.0214,-0.9368,-0.8295,-0.7231,-0.6511,-0.6451,-0.6795,-0.7591,-0.9406,-1.0737,-0.9669,-1.0874,0.0,0.0,-0.9079,-0.8982,-0.8831,0.0,-1.0656,0.0,-1.1613,-1.255,0.0,0.0,0.0,0.0,0.0,0.0,0.0,-1.2305,0.0,-1.2305,-1.1903,-1.1617,-1.1502,-1.162,-1.1664,-1.1664,-1.0874,-1.049,-1.049,-0.9707,-0.9183,-0.8955,-0.7957,-0.7232,-0.6686,-0.5727,-0.4725,-0.3713,-0.3723,-0.3345,-0.2678,-0.2477,-0.241,-0.2376,-0.221,-0.2111,-0.2111,-0.2111,-0.2111,-0.2144,0.0,0.0,0.0,0.0,0.0,0.0,0.0,-2.6655,-2.6663,-2.6618,-2.7332,-2.7155,-2.5287,-2.4546,-2.3956,0.0,0.0,0.0,0.0,0.0,0.0,0.0,0.0,0.0,0.0,0.0,0.0,-1.8478,-1.9811,0.0,0.0,0.0,0.0,0.0,0.0,-1.9365,-2.0191,-2.0266,0.0,0.0,0.0,0.0,0.0,0.0,0.0,0.0,0.0,-1.6499,0.0,0.0,0.0,-1.3442,-1.3399,-1.1355,-0.8921,-0.8568,0.0,0.0,-0.6259,-0.6984,-0.7668,-0.7783,-0.9932,-1.1826,-1.1019,0.0,0.0,-1.0861,-1.0084,-0.951,-0.891,-0.8931,-0.9194,-0.9736,-0.9919,-1.0397,-1.1505,0.0,0.0,0.0,0.0,0.0,0.0,-1.2305,-1.2305,-1.2305,-1.1446,-1.1162,-1.1808,-1.1241,-1.0902,-1.0902,-0.9954,-0.9448,-0.9448,-0.9334,-0.8841,-0.7931,-0.7621,-0.6556,-0.4752,-0.446,-0.3763,-0.2811,-0.2808,-0.2778,-0.2644,-0.1775,-0.1441,-0.134,-0.0572,-0.0236,-0.0236,-0.0236,-0.0236,-0.037,0.0,0.0,0.0,0.0,0.0,0.0,-2.6467,-2.626,-2.6352,-2.7264,-2.7345,-2.7213,-2.6953,-2.6246,-2.5242,-2.3836,0.0,0.0,0.0,0.0,0.0,0.0,0.0,0.0,0.0,0.0,-2.0145,-2.0455,-2.1283,0.0,0.0,0.0,0.0,0.0,0.0,-2.0715,-2.1088,-2.1148,0.0,0.0,0.0,0.0,0.0,0.0,0.0,0.0,0.0,0.0,-1.8478,0.0,0.0,0.0,-1.4262,-1.2496,0.0,0.0,-0.7972,-0.6013,-0.6927,-0.748,-0.808,-0.9256,-1.1465,-1.344,-1.3765,0.0,-1.4753,-1.3282,-1.2147,-1.1229,-1.0646,-1.0246,-1.0078,-1.0318,-1.0324,-1.0471,-1.0901,0.0,0.0,0.0,0.0,0.0,0.0,0.0,-1.204,-1.1428,-1.1013,-1.0668,-1.0359,-1.0071,-0.9895,-0.9895,-0.8917,-0.8071,-0.7439,-0.6835,-0.5989,-0.4982,-0.4895,-0.4384,-0.3541,-0.3471,-0.2841,-0.1849,-0.1863,-0.1566,-0.1041,-0.0672,-0.0504,-0.0471,-0.0135,0.0,0.0,0.0,0.0,-0.0034,0.0,0.0,0.0,0.0,0.0,-2.5596,-2.6467,-2.6183,-2.6289,-2.7397,-2.7341,-2.7315,-2.7618,-2.7165,-2.6248,-2.4803,-2.4079,0.0,0.0,0.0,0.0,0.0,0.0,0.0,0.0,0.0,-2.1534,-2.2106,-2.272,-2.2948,0.0,0.0,0.0,0.0,0.0,0.0,0.0,0.0,0.0,0.0,0.0,0.0,0.0,0.0,0.0,0.0,0.0,0.0,0.0,0.0,0.0,0.0,-1.6097,-1.4451,-1.2805,0.0,-0.8645,-0.6878,-0.7471,-0.836,-0.9487,-1.1101,-1.3271,-1.5257,0.0,0.0,-1.6725,-1.5448,-1.4295,-1.3248,-1.2388,-1.1902,-1.1495,-1.1115,-1.1015,-1.0942,-1.0735,-1.0648,0.0,0.0,0.0,-1.1116,0.0,-1.1519,-1.1545,-1.0864,-0.9943,-0.9148,-0.8405,-0.7787,-0.7749,-0.8367,-0.7107,-0.6066,-0.5283,-0.46,-0.3865,-0.3085,-0.3085,-0.2905,-0.2518,-0.2499,-0.1924,-0.0894,-0.0633,-0.0346,0.0034,0.0574,0.0639,0.0404,0.0706,0.0639,0.037,0.037,0.0236,0.0,0.0,0.0,0.0,0.0,0.0,0.0,-2.6467,-2.6713,-2.6762,-2.6723,-2.7577,-2.7828,-2.6907,-2.6862,-2.6858,-2.6777,-2.5074,0.0,0.0,0.0,0.0,0.0,0.0,0.0,0.0,0.0,-2.2316,-2.2795,-2.412,-2.4433,-2.3797,-2.4056,-2.3697,-2.2802,0.0,0.0,0.0,0.0,0.0,0.0,0.0,0.0,0.0,0.0,0.0,0.0,0.0,0.0,0.0,0.0,0.0,0.0,0.0,-1.7269,-1.4453,-1.0252,-0.8993,-0.8733,-0.7595,-0.9677,-1.2387,-1.3236,-1.5223,-1.724,0.0,0.0,-1.7924,-1.6974,-1.6294,-1.5378,-1.3776,-1.3487,-1.3077,-1.1871,-1.1686,-1.1464,-1.0801,-1.0686,0.0,0.0,0.0,-1.0827,-1.1342,-1.1039,-1.082,-1.0783,-0.7956,0.0,-0.6245,-0.4281,-0.4089,-0.6168,-0.4242,-0.3161,-0.3122,-0.3124,-0.3124,-0.3085,-0.3085,-0.2579,-0.1605,-0.1604,-0.102,0.0038,0.0894,0.0805,0.014,0.1932,0.211,0.1374,0.231,0.2108,0.1273,0.1273,0.0739,0.0,0.0,0.0,0.0,0.0,0.0,0.0,0.0,-2.5855,-2.6114,-2.6696,-2.7082,-2.7426,-2.7729,-2.7248,-2.7151,-2.7773,-2.6152,0.0,0.0,0.0,0.0,0.0,0.0,0.0,0.0,0.0,-2.3082,-2.4236,-2.4257,-2.4617,-2.5296,-2.4973,-2.4719,-2.449,-2.3995,0.0,0.0,0.0,0.0,0.0,0.0,0.0,0.0,0.0,0.0,0.0,0.0,0.0,0.0,0.0,0.0,0.0,0.0,0.0,0.0,-1.5179,-1.242,-1.0283,-1.0461,-1.1272,-1.2381,-1.3647,-1.5746,-1.7835,-1.9189,-1.98,-1.9927,-1.9266,-1.8644,-1.7965,-1.7075,-1.633,-1.5706,-1.5382,-1.4249,-1.3243,-1.2744,0.0,0.0,-1.0329,-0.9935,-1.0054,0.0,0.0,-0.92,-0.777,-0.674,-0.5591,-0.4167,-0.2812,-0.2696,-0.4051,-0.3431,-0.2773,-0.2074,-0.2074,-0.1722,-0.0979,-0.0979,-0.0431,0.0587,0.0583,0.1151,0.2149,0.2412,0.2312,0.2025,0.2594,0.2622,0.2277,0.2577,0.2511,0.2177,0.1541,0.114,0.0806,0.0,0.0,0.0,0.0,0.0,0.0,0.0,-2.5441,-2.5695,-2.6237,-2.6386,-2.6784,-2.7644,-2.7254,-2.7318,-2.8223,-2.7262,0.0,0.0,0.0,0.0,0.0,0.0,0.0,-2.32,-2.2996,-2.3493,-2.4705,-2.4541,-2.4976,-2.5993,-2.5694,-2.5457,-2.5274,-2.4842,-2.4646,0.0,0.0,0.0,0.0,0.0,0.0,-2.4685,0.0,0.0,0.0,0.0,0.0,0.0,0.0,0.0,0.0,0.0,0.0,0.0,0.0,-1.6393,-1.3859,-1.3204,-1.3641,-1.4611,-1.5866,-1.7496,-1.9172,-2.0573,-2.1054,-2.1134,-2.0798,-2.0443,-1.99,-1.9063,-1.8385,-1.7678,-1.6896,-1.5601,-1.435,-1.3359,0.0,0.0,-0.9838,0.0,0.0,0.0,-0.8604,-0.7435,-0.5736,-0.489,-0.3896,-0.2617,-0.1553,-0.1281,-0.1916,-0.1916,-0.1643,-0.102,-0.098,-0.0471,0.0588,0.0588,0.1137,0.2151,0.2151,0.2522,0.3133,0.3481,0.337,0.0,0.3659,0.3662,0.3294,0.3596,0.3313,0.2644,0.2043,0.1408,0.0739,0.0,0.0,0.0,0.0,0.0,0.0,0.0,-2.5415,-2.5493,-2.5503,-2.5611,-2.6016,-2.6816,-2.6953,-2.7344,-2.8223,0.0,0.0,0.0,0.0,0.0,0.0,0.0,0.0,-2.3324,-2.3265,-2.3702,-2.4608,-2.5023,-2.556,-2.6162,-2.6314,-2.6022,-2.5409,-2.5456,-2.5467,0.0,0.0,0.0,0.0,-2.5765,-2.5395,0.0,0.0,0.0,0.0,0.0,0.0,0.0,0.0,0.0,0.0,0.0,0.0,0.0,0.0,0.0,0.0,0.0,-1.6604,-1.8324,-1.919,-2.0015,-2.0935,-2.2157,-2.2037,0.0,-2.1658,-2.1612,-2.1227,-1.9976,-1.9677,-1.8993,-1.6954,-1.6046,-1.4956,0.0,-1.2242,0.0,0.0,-0.9553,0.0,-0.6975,-0.6373,-0.5611,-0.4484,-0.2661,-0.1561,-0.1484,-0.0536,0.0,0.0,0.0079,0.0079,0.0,0.0079,0.0588,0.1489,0.1645,0.219,0.3085,0.3163,0.324,0.3392,0.4268,0.4112,0.342,0.4971,0.5105,0.4383,0.5114,0.4317,0.2778,0.2711,0.161,0.0067,0.0,0.0,0.0,0.0,0.0,0.0,0.0,0.0,0.0,0.0,-2.5683,-2.5781,-2.5977,-2.6602,-2.7344,0.0,0.0,0.0,0.0,0.0,0.0,0.0,0.0,0.0,-2.4487,-2.4003,-2.4667,-2.6621,-2.5828,-2.6271,-2.7829,-2.73,-2.6795,-2.6299,-2.6361,-2.6022,0.0,0.0,0.0,0.0,-2.5037,-2.4762,0.0,0.0,0.0,0.0,-2.4312,-2.4312,0.0,0.0,0.0,0.0,0.0,0.0,0.0,0.0,-2.1721,-2.0439,-1.9718,0.0,-1.8551,-1.9165,-2.0041,-2.0934,0.0,-2.198,-2.2135,-2.2135,-2.1838,-2.1506,-2.1196,-2.0585,-1.9845,-1.8999,-1.7574,-1.6277,-1.5466,0.0,0.0,-1.0717,-0.9883,-0.866,-0.669,-0.5606,-0.4284,-0.2431,-0.1858,-0.1224,-0.0419,-0.0152,0.0,0.0,0.0784,0.0824,0.0,0.0824,0.0941,0.0392,0.1995,0.289,0.3124,0.3943,0.4766,0.5547,0.579,0.5676,0.5336,0.5646,0.5579,0.5293,0.5353,0.4688,0.3613,0.2945,0.1976,0.0906,0.0,0.0,0.0,0.0,0.0,0.0,0.0,0.0,0.0,0.0,0.0,-2.5683,-2.566,-2.6816,0.0,0.0,0.0,0.0,0.0,0.0,0.0,0.0,0.0,-2.3752,-2.3886,-2.3903,-2.4761,-2.6523,-2.6241,-2.6883,-2.8395,-2.799,-2.7375,-2.6582,-2.6226,-2.5794,0.0,0.0,0.0,0.0,-2.5092,0.0,0.0,0.0,0.0,0.0,-2.419,-2.419,0.0,-2.419,-2.419,-2.419,0.0,0.0,0.0,0.0,-2.2146,-2.1228,-2.1039,-2.0175,-1.9393,-1.9687,-2.0327,-2.0959,-2.1259,-2.1507,-2.1706,-2.1706,-2.1321,-2.0895,-2.0717,-2.0099,-1.9284,-1.8296,-1.7224,0.0,0.0,0.0,-1.1454,-0.9994,-0.8817,-0.7289,0.0,-0.3921,-0.2601,-0.0983,-0.0849,-0.0626,-0.0038,0.0,0.0,0.0,0.1058,0.1333,0.0745,0.1761,0.2229,0.2151,0.3281,0.41,0.4569,0.5157,0.5747,0.63,0.63,0.6252,0.6125,0.5969,0.582,0.5636,0.5071,0.4266,0.3278,0.2377,0.1487,0.065,0.0,0.0,0.0,0.0,0.0,0.0,0.0,0.0,0.0,0.0,0.0,0.0,0.0,0.0,0.0,0.0,0.0,0.0,0.0,0.0,0.0,0.0,-2.4306,-2.3464,-2.3128,-2.3627,-2.4541,-2.5839,-2.6615,-2.7543,-2.8611,-2.8734,-2.8077,-2.6774,-2.6019,-2.5615,0.0,0.0,0.0,0.0,-2.5408,0.0,0.0,0.0,0.0,0.0,0.0,0.0,0.0,-2.419,-2.417,-2.4113,-2.4113,0.0,0.0,0.0,0.0,0.0,-2.1022,-2.0717,-2.0507,-2.0412,-2.0715,-2.0991,-2.0991,-2.0991,-2.0975,-2.0894,-2.047,-1.9949,-1.9421,-1.8908,-1.8082,-1.6595,0.0,0.0,-1.2743,-1.1459,-1.0224,-0.875,-0.7458,0.0,-0.3359,-0.2224,-0.1171,-0.0076,0.0,0.0,0.0,0.0,0.0,0.0,0.1176,0.1841,0.1841,0.2852,0.3709,0.4453,0.4805,0.5354,0.606,0.6219,0.6286,0.6265,0.6265,0.6265,0.6252,0.6057,0.5932,0.5712,0.461,0.3599,0.261,0.1662,0.0759,0.0035,0.0,0.0,0.0,0.0,0.0,0.0,0.0,0.0,0.0,0.0,0.0,0.0,0.0,0.0,0.0,0.0,0.0,0.0,0.0,0.0,0.0,-2.5706,-2.4123,-2.3832,-2.5041,-2.4299,-2.4892,-2.6939,-2.7536,-2.8409,-2.9595,-3.0223,-2.9513,-2.7678,-2.7563,-2.7082,-2.6365,-2.573,0.0,-2.5767,-2.519,0.0,0.0,0.0,0.0,0.0,0.0,0.0,0.0,-2.419,-2.4006,-2.3785,-2.3785,0.0,0.0,0.0,0.0,0.0,-2.0609,-2.0986,-2.1387,-2.0998,-2.0943,-2.0991,-2.0991,-2.0991,-2.0878,-2.0422,-1.998,-1.9352,-1.8281,-1.773,-1.7165,-1.6291,0.0,-1.4486,0.0,0.0,-1.0934,-0.9517,0.0,-0.5511,-0.3531,-0.2286,-0.1171,-0.0076,0.0,0.0,0.0,0.0,0.0,0.0,0.1877,0.2851,0.2851,0.3943,0.41,0.3357,0.5196,0.567,0.496,0.5906,0.619,0.6027,0.6027,0.6027,0.6054,0.5898,0.5898,0.5868,0.4664,0.3672,0.2727,0.1688,0.0757,0.0145,0.0,0.0,0.0,0.0,0.0,0.0,0.0,0.0,0.0,0.0,0.0,0.0,0.0,0.0,0.0,0.0,0.0,0.0,0.0,0.0,-2.7436,-2.6807,-2.4853,-2.3741,-2.3607,-2.4551,-2.561,-2.6819,-2.8411,-2.9642,-3.0496,-3.0302,-2.9698,-2.8793,-2.8014,-2.7471,-2.7024,-2.6188,-2.5958,-2.6074,0.0,0.0,0.0,0.0,0.0,0.0,0.0,0.0,0.0,0.0,-2.3827,-2.3671,-2.3488,0.0,0.0,0.0,0.0,0.0,-1.9775,-1.9888,-2.0302,-2.0831,-2.1675,-2.2397,-2.2397,-2.2113,-2.1574,-2.0744,-1.9621,-1.8425,-1.7246,-1.6779,-1.6383,-1.5919,0.0,-1.2111,-1.1605,-1.0306,-0.8866,0.0,0.0,-0.4249,-0.2575,-0.1389,-0.0529,-0.0038,0.0,0.0,0.0,0.0,0.0272,0.0862,0.2306,0.3396,0.3945,0.504,0.5315,0.4844,0.5825,0.6025,0.5589,0.6064,0.6176,0.5996,0.6118,0.6108,0.5993,0.6044,0.5735,0.5078,0.402,0.2978,0.2001,0.1588,0.1545,0.1748,0.0,0.0,0.0,0.0,0.0,0.0,0.0,0.0,0.0,0.0,0.0,0.0,0.0,0.0,0.0,0.0,0.0,0.0,0.0,0.0,-2.807,-2.7538,-2.5499,-2.3918,-2.297,-2.4634,-2.5902,-2.6708,-2.8827,-3.0377,-3.1364,-3.0762,-3.0169,-2.9558,-2.8483,-2.7794,-2.7383,-2.6612,-2.6276,-2.6147,0.0,0.0,0.0,0.0,0.0,0.0,0.0,0.0,0.0,0.0,0.0,0.0,0.0,0.0,0.0,-2.1347,-2.0766,-2.0089,-1.9146,-1.9021,-1.9373,-2.0288,-2.1305,-2.2321,-2.3149,-2.248,-2.1482,-2.0937,-1.9512,-1.7974,-1.6645,-1.5853,0.0,-1.4442,-1.2144,-1.043,-1.0387,-0.8769,-0.7048,-0.5663,-0.4408,-0.3103,-0.1718,-0.0617,0.0,0.0,0.0,0.0,0.0,0.0,0.047,0.1515,0.2532,0.3581,0.4647,0.5732,0.63,0.63,0.63,0.63,0.63,0.63,0.6156,0.5946,0.6139,0.6118,0.5949,0.6142,0.5574,0.4442,0.3497,0.2407,0.141,0.1814,0.2583,0.3418,0.0,0.0,0.0,0.0,0.0,0.0,0.0,0.0,0.0,0.0,0.0,0.0,0.0,0.0,0.0,0.0,0.0,0.0,0.0,0.0,-2.7896,-2.6997,-2.5431,-2.4935,-2.5711,-2.463,-2.5137,-2.7344,-2.8332,-2.9976,-3.2219,-3.2836,-3.1855,-2.9595,-2.9573,-2.8674,-2.7179,-2.6557,-2.6182,-2.5955,-2.524,0.0,0.0,0.0,0.0,0.0,0.0,0.0,0.0,0.0,0.0,0.0,0.0,0.0,-2.0991,-2.0517,-2.0348,-2.0093,-1.914,-1.9398,-1.9832,-1.9407,-1.8494,-1.8512,-2.1823,-2.0808,-1.9439,-2.0404,-1.9864,-1.8651,-1.6758,-1.4851,-1.291,-1.084,-1.1075,-1.0993,-0.9596,0.0,-0.7357,-0.6249,-0.4375,-0.2724,-0.1684,-0.0627,0.0,0.0,0.0,0.0,0.0,0.0,0.0388,0.1288,0.2471,0.3552,0.449,0.572,0.63,0.63,0.63,0.63,0.63,0.63,0.6136,0.5827,0.5942,0.5959,0.583,0.5983,0.5506,0.4595,0.3505,0.2493,0.1676,0.2649,0.3605,0.4408,0.0,0.0,0.0,0.0,0.0,0.0,0.0,0.0,0.0,0.0,0.0,0.0,0.0,0.0,0.0,0.0,0.0,0.0,0.0,-2.9978,-2.9236,-2.8544,-2.7125,-2.6421,-2.6627,-2.5905,-2.6343,-2.8025,-2.977,-3.1389,-3.2845,-3.2127,-3.1395,-3.0687,-2.9873,-2.9158,-2.8493,-2.7344,-2.6899,-2.6816,-2.5434,-2.4799,0.0,0.0,0.0,0.0,0.0,0.0,0.0,0.0,-2.3041,-2.2514,-2.1955,-2.1227,-2.0533,-2.0348,-1.9884,-1.9207,-1.8184,-1.8656,-1.9243,-1.8406,-1.7485,-1.7785,-2.1781,-2.1631,-2.072,-2.0986,-2.0113,-1.8442,-1.5678,0.0,-1.3084,-1.1167,-1.046,-0.9745,-0.8528,-0.7518,-0.624,-0.4477,-0.3587,-0.2462,-0.0784,-0.0236,0.0,0.0,0.0,0.0,0.0,0.0,0.0698,0.2228,0.2817,0.3859,0.5423,0.6026,0.63,0.63,0.63,0.63,0.63,0.63,0.6184,0.5909,0.5969,0.5959,0.5909,0.5969,0.5503,0.4608,0.3513,0.3281,0.3556,0.3945,0.4737,0.5637,0.0,0.0,0.0,0.0,0.0,0.0,0.0,0.0,0.0,0.0,0.0,0.0,0.0,0.0,0.0,0.0,0.0,0.0,-3.0652,-3.0173,-2.9771,-2.9533,-2.8056,-2.7275,-2.7289,-2.6794,-2.7063,-2.8122,-3.0401,-3.1812,-3.2382,-3.1308,-3.0966,-3.1166,-2.9592,-2.8889,-2.8798,-2.7351,-2.6653,-2.6441,-2.5324,-2.4799,0.0,0.0,0.0,0.0,0.0,0.0,0.0,0.0,-2.2527,-2.1961,-2.1292,-2.0351,-1.9563,-1.9598,-1.9148,-1.8374,-1.7118,-1.7364,-1.7746,-1.6813,-1.6162,-1.6681,-2.0279,-2.0578,-2.0301,-2.0964,-1.9675,-1.7601,-1.4879,-1.3872,0.0,0.0,-0.9785,-0.8841,-0.7518,-0.644,-0.5118,-0.3318,-0.2813,-0.1917,-0.0157,0.0,0.0,0.0,0.0,0.0,0.0,0.0273,0.115,0.2798,0.3217,0.4239,0.5922,0.6108,0.6252,0.63,0.63,0.63,0.63,0.63,0.6176,0.5996,0.6081,0.6074,0.5996,0.6084,0.5542,0.4608,0.3904,0.4062,0.4727,0.5079,0.567,0.63,0.0,0.0,0.0,0.0,0.0,0.0,0.0,0.0,0.0,0.0,0.0,0.0,0.0,0.0,0.0,0.0,0.0,0.0,-3.0547,-2.9594,-2.9173,-2.9591,-2.7867,-2.7222,-2.7882,-2.7029,-2.6905,-2.7526,-2.977,-3.0812,-3.0699,-3.0754,-3.081,-3.0771,-2.8718,-2.7787,-2.7699,-2.6292,-2.5241,-2.4537,-2.4865,-2.4797,-2.451,0.0,0.0,0.0,0.0,0.0,0.0,0.0,-2.1615,-2.0859,-2.0128,-1.8981,-1.7939,-1.8046,-1.8092,-1.7704,-1.6048,-1.555,-1.5322,-1.4572,-1.4255,-1.4718,-1.6877,-1.7037,-1.746,-2.005,-1.8459,-1.6129,-1.4565,-1.332,0.0,-0.8854,-0.8888,-0.858,-0.6567,-0.5392,-0.4295,-0.324,-0.2229,-0.1176,-0.0118,0.0,0.0,0.0,0.0,0.0,0.0,0.0843,0.1716,0.2687,0.3666,0.4718,0.58,0.5915,0.6108,0.63,0.63,0.63,0.63,0.63,0.6176,0.6003,0.6193,0.6169,0.6006,0.6235,0.567,0.4727,0.4727,0.4727,0.4844,0.5906,0.63,0.63,0.0,0.0,0.0,0.0,0.0,0.0,0.0,0.0,0.0,0.0,0.0,0.0,0.0,0.0,0.0,0.0,0.0,0.0,-2.9848,-2.9441,-2.9199,-2.9177,-2.8203,-2.7636,-2.7552,-2.674,-2.7098,-2.8697,-2.9802,-3.0199,-2.9935,-2.9908,-2.9508,-2.8826,-2.8166,-2.7401,-2.6538,-2.555,-2.5221,-2.5287,-2.484,-2.4674,-2.4716,0.0,0.0,0.0,0.0,0.0,0.0,0.0,0.0,0.0,-1.9853,-1.88,-1.7852,-1.7616,-1.7025,-1.6283,-1.5362,-1.5631,-1.5832,-1.4225,-1.5171,-1.6541,-1.685,-1.7256,-1.7829,-1.8549,-1.7062,-1.5138,-1.3589,-1.3313,0.0,-0.8936,-0.8888,-0.858,-0.6567,-0.5392,-0.4295,-0.324,-0.2229,-0.1176,-0.0118,0.0,0.0,0.0,0.0,0.0273,0.0879,0.1175,0.1997,0.3569,0.3989,0.4718,0.58,0.5915,0.6108,0.63,0.63,0.63,0.63,0.63,0.6276,0.6183,0.601,0.6034,0.6235,0.6279,0.6103,0.5825,0.5825,0.5825,0.5867,0.618,0.63,0.63,0.0,0.0,0.0,0.0,0.0,0.0,0.0,0.0,0.0,0.0,-3.1698,-3.1371,0.0,0.0,0.0,-3.0496,-3.0162,-2.9815,-2.941,-2.9314,-2.9218,-2.9083,-2.8549,-2.8032,-2.7579,-2.7397,-2.7753,-2.8641,-2.877,-2.8852,-2.8887,-2.9006,-2.8749,-2.8194,-2.7967,-2.7317,-2.6313,-2.5147,-2.4762,-2.4873,-2.445,-2.4415,-2.4575,0.0,0.0,0.0,0.0,0.0,0.0,0.0,0.0,0.0,-1.9847,-1.8743,-1.7701,-1.6883,-1.6202,-1.5573,-1.4806,-1.5268,-1.574,-1.4821,-1.5905,-1.7085,-1.6735,-1.7057,-1.7435,-1.7378,-1.5904,-1.4332,-1.3403,-1.3163,0.0,-0.9249,-0.9007,-0.852,-0.6556,-0.5348,-0.4248,-0.3237,-0.2229,-0.1176,-0.0118,0.0,0.0,0.0,0.0392,0.0815,0.1285,0.2018,0.2916,0.398,0.4456,0.5044,0.58,0.5891,0.6047,0.63,0.63,0.63,0.63,0.63,0.6265,0.6156,0.5908,0.5942,0.6169,0.6169,0.6245,0.63,0.63,0.63,0.63,0.63,0.63,0.63,0.0,0.0,0.0,0.0,0.0,0.0,0.0,0.0,0.0,-3.1814,-3.1698,-3.1371,0.0,0.0,0.0,-3.0416,-2.9738,-2.9285,-2.9199,-2.9205,-2.9209,-2.9199,-2.8804,-2.8399,-2.7956,-2.8459,-2.8378,-2.7649,-2.7133,-2.7155,-2.7705,-2.8081,-2.8243,-2.822,-2.7785,-2.7204,-2.6432,-2.4829,-2.3981,-2.3724,-2.3898,-2.4061,-2.4266,-2.4654,0.0,0.0,0.0,0.0,0.0,0.0,0.0,0.0,-2.0041,-1.8739,-1.7432,-1.6015,-1.5545,-1.5313,-1.4457,-1.4651,-1.5276,-1.5841,-1.6268,-1.6546,-1.6473,-1.6384,-1.6349,-1.6349,-1.4791,-1.3448,-1.3564,-1.2732,-1.1428,-0.9573,-0.9094,-0.8333,-0.6524,-0.5158,-0.4027,-0.3193,-0.2112,-0.1058,-0.0079,0.0079,0.0157,0.0157,0.1137,0.1704,0.1582,0.3235,0.4191,0.4139,0.4953,0.5535,0.5796,0.58,0.5956,0.63,0.63,0.63,0.63,0.63,0.6169,0.5963,0.5861,0.5874,0.5952,0.5966,0.6101,0.6279,0.6279,0.6286,0.63,0.63,0.63,0.63,0.0,0.0,0.0,0.0,0.0,0.0,0.0,0.0,-3.2602,-3.1814,-3.1698,-3.1371,-3.05,-3.0414,0.0,-3.0404,-3.024,-2.9876,-2.9233,-2.9244,-2.9252,-2.9203,-2.882,-2.8713,-2.8978,-2.745,-2.6599,-2.6532,-2.6672,-2.6809,-2.6945,-2.7029,-2.6756,-2.6228,-2.6121,-2.55,-2.445,-2.3458,-2.33,-2.3703,-2.3749,-2.4022,-2.4461,-2.4708,-2.4775,0.0,0.0,0.0,0.0,0.0,0.0,0.0,-2.0207,-1.853,-1.6905,-1.5899,-1.5191,-1.4672,-1.4422,-1.483,-1.5273,-1.5062,-1.5272,-1.5531,-1.551,-1.4871,-1.4307,-1.4307,-1.2771,-1.1675,-1.2475,-1.113,-0.9761,-0.9243,-0.8401,-0.7434,-0.6221,-0.4423,-0.3195,-0.3115,-0.1488,-0.0235,-0.0039,0.0745,0.1254,0.1254,0.219,0.3029,0.3558,0.3969,0.4477,0.5078,0.5309,0.5535,0.5796,0.58,0.5956,0.63,0.63,0.63,0.63,0.63,0.6149,0.5847,0.5817,0.5755,0.5694,0.5803,0.5939,0.6078,0.6078,0.6156,0.63,0.63,0.63,0.63,0.0,0.0,0.0,0.0,0.0,0.0,0.0,0.0,-3.3212,-3.1334,-3.1775,-3.1641,-2.9967,-2.9775,0.0,0.0,-2.9563,-2.9445,-2.8672,-2.9416,-2.9767,-2.9506,-2.927,-2.884,-2.8256,-2.6807,-2.5777,-2.5246,-2.4749,-2.4946,-2.5781,-2.5481,-2.5261,-2.5084,-2.5439,-2.4888,-2.363,-2.3202,-2.3201,-2.3448,-2.3448,-2.3593,-2.3801,-2.4014,-2.3888,-2.3615,-2.3676,0.0,0.0,0.0,0.0,0.0,0.0,0.0,-1.7025,-1.5484,-1.4402,-1.3863,-1.4435,-1.4438,-1.4348,-1.482,-1.4708,-1.4494,-1.4494,-1.3738,-1.2908,-1.2412,-1.1527,-1.0975,-1.1502,-1.0346,-0.9075,-0.8443,-0.7859,-0.7163,-0.6139,-0.467,-0.3535,-0.3154,-0.1722,-0.0549,-0.0039,0.098,0.156,0.1464,0.2879,0.3867,0.4108,0.4597,0.5038,0.5402,0.5467,0.5579,0.58,0.5874,0.603,0.63,0.63,0.6259,0.6146,0.6074,0.5952,0.5793,0.565,0.5589,0.5596,0.5671,0.583,0.5993,0.5993,0.6125,0.63,0.63,0.63,0.63,0.0,0.0,0.0,0.0,0.0,0.0,0.0,0.0,0.0,-3.0764,-3.1827,-3.1872,-2.9323,-2.9048,-2.8722,0.0,0.0,0.0,-2.8225,-2.9631,-3.0378,-3.0099,-2.9714,-2.8812,-2.728,-2.6285,-2.5125,-2.3793,-2.2388,-2.2517,-2.4069,-2.375,-2.3883,-2.4432,-2.4888,-2.4464,-2.3393,-2.3257,-2.3106,-2.2935,-2.2971,-2.288,-2.2749,-2.2998,-2.2727,-2.226,-2.2293,-2.2381,-2.2458,-2.2121,0.0,0.0,0.0,0.0,-1.7456,-1.5354,-1.4011,-1.3396,-1.4152,-1.3604,-1.3199,-1.48,-1.4314,-1.3455,-1.3455,-1.2842,-1.1996,-1.1013,-1.0677,-1.0527,-1.0527,-0.9593,-0.8496,-0.7625,-0.7334,-0.6898,-0.6097,-0.4938,-0.3931,-0.3189,-0.2034,-0.098,-0.0079,0.0977,0.1583,0.1588,0.3375,0.4434,0.43,0.5133,0.5552,0.5399,0.5545,0.5657,0.58,0.5915,0.6108,0.63,0.63,0.6179,0.5986,0.5871,0.5786,0.5749,0.5515,0.5467,0.5552,0.5552,0.5725,0.5952,0.5952,0.6101,0.63,0.63,0.63,0.6338,0.0,0.0,0.0,0.0,0.0,0.0,0.0,0.0,0.0,0.0,-3.1703,-3.1663,-2.9109,-2.8841,-2.8529,-2.7701,-2.79,-2.8305,-2.8918,0.0,0.0,-3.1249,-2.9654,-2.844,-2.7811,-2.5592,-2.3716,-2.2216,-2.0861,-2.0533,-2.118,-2.1978,-2.2916,-2.3951,-2.3338,-2.3194,-2.3359,-2.2733,-2.2203,-2.1823,-2.206,-2.1939,-2.1643,-2.2039,-2.2126,-2.2057,-2.2242,-2.2417,-2.253,-2.214,-2.1883,0.0,0.0,0.0,-1.7869,-1.6454,-1.5335,-1.4282,-1.2976,-1.2375,-1.2617,-1.4696,-1.3839,-1.2482,-1.2482,-1.2372,-1.1996,0.0,-1.0115,-0.9485,-0.9485,-0.797,-0.6844,-0.7269,-0.661,-0.5974,-0.583,-0.4155,-0.2969,-0.3068,-0.1409,-0.0157,0.0,0.0962,0.1894,0.2642,0.3799,0.4748,0.5354,0.5517,0.5552,0.5399,0.5545,0.5657,0.58,0.5915,0.6108,0.63,0.63,0.6179,0.5986,0.5871,0.5735,0.561,0.547,0.5405,0.5426,0.5426,0.56,0.583,0.583,0.6006,0.63,0.63,0.63,0.6416,0.0,0.0,0.0,0.0,0.0,0.0,0.0,0.0,0.0,0.0,0.0,-3.1096,-2.9017,-2.8354,-2.7731,-2.6892,-2.7033,-2.7542,-2.8429,-2.8804,-2.9085,-2.9312,-2.8171,-2.7022,-2.5964,-2.4196,-2.2472,-2.0769,-1.9825,-1.9435,-1.9663,-2.0094,-2.102,-2.2262,-2.1908,-2.1981,-2.233,-2.1597,-2.1407,-2.1559,-2.129,-2.1526,-2.1984,-2.1268,-2.1403,-2.1839,-2.0575,-2.0217,-2.0327,-2.0069,-1.9933,-1.9792,-1.9164,0.0,0.0,0.0,-1.3936,-1.2617,-1.2102,-1.2484,-1.3244,-1.4116,-1.3702,-1.2952,-1.2409,-1.2305,-1.1848,-1.0271,-0.9599,-0.9112,-0.858,-0.7288,-0.6377,-0.6548,-0.6218,-0.5705,-0.5145,-0.378,-0.267,-0.2299,-0.0941,0.0,0.0,0.0959,0.1915,0.2736,0.3745,0.4665,0.5437,0.5494,0.5467,0.5395,0.5586,0.5739,0.58,0.6589,0.7323,0.797,0.797,0.7568,0.683,0.6693,0.6248,0.5583,0.5463,0.5395,0.5395,0.5395,0.5569,0.58,0.58,0.6352,0.7138,0.7138,0.748,0.8046,0.0,0.0,0.0,0.0,0.0,0.0,0.0,0.0,0.0,0.0,0.0,-3.0476,-2.8799,0.0,0.0,0.0,-2.6213,-2.666,-2.7602,-2.7803,-2.7829,-2.7711,-2.7055,-2.5981,-2.4436,-2.3216,-2.1689,-1.9827,-1.9066,-1.8773,-1.8921,-1.8793,-1.9424,-2.0704,-2.08,-2.107,-2.1396,-2.0692,-2.063,-2.1023,-2.0732,-2.1189,-2.1941,-2.0994,-2.1188,-2.1674,-1.9357,-1.8601,-1.8652,-1.8174,-1.8056,-1.8025,-1.7625,-1.7068,0.0,0.0,0.0,-1.0951,-1.1289,-1.1906,-1.2568,-1.3135,-1.3195,-1.2971,0.0,0.0,-1.1737,0.0,-0.9296,-0.8917,-0.7668,-0.6795,-0.6248,-0.6016,-0.58,-0.5346,-0.459,-0.3353,-0.2285,-0.168,-0.0667,0.0,0.0,0.0725,0.1595,0.2617,0.3168,0.4036,0.5332,0.516,0.516,0.5395,0.5647,0.5907,0.619,0.7518,0.8428,0.8917,0.8917,0.828,0.7122,0.6977,0.642,0.5583,0.5463,0.5395,0.5395,0.5395,0.5569,0.58,0.58,0.6607,0.7783,0.7783,0.8428,0.9334,0.0,0.0,0.0,0.0,0.0,0.0,0.0,0.0,0.0,0.0,0.0,-2.9997,-2.8315,-2.759,-2.689,-2.6068,-2.5626,-2.5778,-2.6703,-2.7475,-2.7918,-2.7977,-2.7157,0.0,-2.4426,-2.3226,-2.1616,-1.9612,-1.8636,-1.8425,-1.8969,-1.8473,-1.8812,-1.9873,-2.0261,-2.0661,-2.0991,-2.03,-1.9832,-1.961,-2.0581,-2.0785,-2.061,-2.1481,-2.1848,-2.164,-1.9594,-1.8967,-1.8866,-1.7447,-1.7095,-1.7212,-1.7017,-1.674,-1.6352,0.0,0.0,0.0,-1.0434,-0.9632,-0.9302,-1.1541,-1.1793,-1.1651,0.0,0.0,-1.1737,-0.9712,-0.9296,-0.8694,-0.6756,-0.6338,-0.6248,-0.6016,-0.5196,-0.4555,-0.4515,-0.2712,-0.1448,-0.1602,-0.0667,0.0,0.0,0.0038,0.0801,0.2577,0.1938,0.2614,0.5259,0.4553,0.4486,0.5362,0.5647,0.6262,0.7208,0.8551,0.8765,0.7897,0.7897,0.7231,0.6061,0.5943,0.576,0.5583,0.5463,0.5395,0.5395,0.5395,0.5569,0.58,0.58,0.6607,0.7783,0.7783,0.8428,0.9448,0.0,0.0,0.0,0.0,0.0,0.0,0.0,0.0,0.0,0.0,0.0,0.0,0.0,-2.6999,-2.611,-2.5838,-2.5372,-2.5304,-2.5768,-2.6073,-2.6237,-2.6269,-2.5837,-2.4997,-2.3666,-2.2775,-2.1438,-1.9588,-1.8939,-1.8574,-1.8482,-1.8293,-1.8403,-1.8816,-1.9597,-2.0197,-2.0543,-1.934,-1.8941,-1.9139,-1.9783,-2.0672,-2.1614,-2.1643,-2.2718,0.0,0.0,0.0,0.0,-1.8497,-1.7367,-1.6045,-1.6108,-1.5708,-1.4823,-1.2791,-1.1821,-1.1292,-1.0633,-1.0247,-1.0246,-1.114,-1.1576,-1.1732,-1.1499,-1.1897,-1.1737,-0.9712,-0.9296,-0.8689,-0.6679,-0.63,-0.6044,-0.529,-0.4793,-0.4051,-0.2812,-0.1868,-0.1106,-0.0626,-0.0236,0.0,0.0,0.0,0.0783,0.2679,0.1874,0.2574,0.5501,0.4614,0.4469,0.5508,0.561,0.6561,0.8435,0.836,0.8799,0.9734,0.9064,0.8201,0.7143,0.6888,0.6371,0.5711,0.5501,0.5395,0.5428,0.6009,0.6344,0.6565,0.7311,0.8375,0.9495,0.9681,1.0378,1.1285,0.0,0.0,0.0,0.0,0.0,0.0,0.0,0.0,-2.8407,-2.8986,0.0,0.0,0.0,0.0,-2.5919,-2.5437,-2.5153,-2.5071,-2.5198,-2.5264,-2.5308,-2.5308,-2.5105,-2.4544,-2.3599,-2.2664,-2.1558,-2.0238,-1.935,-1.8821,-1.8696,-1.8518,-1.8467,-1.8486,-1.9112,-1.9575,-1.9822,-1.8612,0.0,-1.8752,0.0,0.0,-2.1848,0.0,0.0,0.0,0.0,0.0,0.0,0.0,0.0,-1.7539,-1.6327,-1.491,-1.3269,-1.1056,-1.1075,-1.1513,-1.0029,-1.01,-1.0613,-1.0586,-1.0735,-1.1005,-1.1404,0.0,-1.0701,-0.9552,-0.9031,-0.8275,-0.6606,-0.63,-0.5944,-0.4882,-0.4313,-0.345,-0.1837,-0.116,-0.0655,-0.0078,0.0,0.0,0.0,0.0,0.0642,0.2226,0.1439,0.0,0.5114,0.4209,0.4295,0.57,0.6036,0.6967,0.8662,0.8434,0.8799,0.9771,0.9102,0.8275,0.7276,0.6952,0.6437,0.5786,0.5525,0.5395,0.5458,0.633,0.6764,0.7018,0.8043,0.9176,1.026,1.043,1.1216,1.2144,0.0,0.0,0.0,0.0,0.0,0.0,0.0,0.0,-2.8376,-2.8376,0.0,0.0,0.0,0.0,0.0,-2.4956,-2.4955,-2.5018,-2.5004,-2.5173,-2.5284,-2.5308,-2.5105,-2.4795,-2.4315,-2.2939,-2.1975,-2.1464,-1.9773,-1.9181,-1.9632,-1.9127,-1.8911,-1.8939,-1.8806,-1.8784,-1.8792,0.0,-1.7988,-1.8377,0.0,-2.1277,-2.1087,0.0,0.0,0.0,-2.0478,-1.992,0.0,-2.0512,0.0,0.0,0.0,0.0,-1.1863,-1.0703,-1.0813,-1.0817,0.0,0.0,0.0,-0.9798,0.0,0.0,-1.1821,0.0,-0.8693,-0.9129,-0.8438,-0.746,-0.649,-0.6261,-0.5906,-0.4844,-0.3787,-0.2735,-0.1684,-0.0667,0.0,0.0,0.0,0.0,0.0,0.0,0.0379,0.1248,0.0518,0.1276,0.4075,0.3451,0.3926,0.5942,0.6809,0.7426,0.777,0.8727,0.8732,0.7783,0.7783,0.7253,0.6289,0.5942,0.58,0.5786,0.5525,0.5395,0.5458,0.633,0.6793,0.7031,0.7889,0.894,0.9939,0.9944,1.0787,1.1852,0.0,0.0,0.0,0.0,0.0,-3.0828,-2.9819,-2.8702,-2.7978,0.0,0.0,0.0,-2.6339,-2.6019,-2.5717,-2.5468,-2.5479,-2.5371,-2.5031,-2.5046,-2.5152,-2.5284,-2.5253,-2.493,-2.4304,-2.3404,-2.2209,-2.078,-2.0203,-1.9397,-1.8401,-1.8745,-1.8453,-1.7618,-1.7589,-1.7538,-1.7411,-1.6845,0.0,0.0,-1.9662,-2.0485,0.0,0.0,0.0,0.0,0.0,-2.2646,-2.191,0.0,-2.0818,-1.7851,0.0,-1.2496,-1.1535,-1.0145,-1.0527,-1.0927,-0.8883,0.0,0.0,0.0,0.0,0.0,0.0,0.0,0.0,-0.772,-0.7126,-0.6565,-0.635,-0.567,-0.4805,-0.3709,-0.3279,-0.2461,-0.0706,-0.0196,0.0,0.0,0.0,0.0,0.0,0.0,0.0427,0.0,0.1311,0.2149,0.4442,0.4845,0.5273,0.5824,0.6108,0.6647,0.7571,0.7297,0.7365,0.7783,0.7061,0.6567,0.6289,0.5942,0.58,0.5786,0.5525,0.5395,0.5458,0.633,0.7077,0.7805,0.887,0.9858,1.0721,1.0893,1.1229,1.1433,0.0,0.0,-3.2618,-3.1667,-3.1215,-3.0668,-2.9657,-2.8677,-2.7942,0.0,0.0,0.0,-2.6477,-2.6137,-2.5811,-2.5588,-2.5337,-2.508,-2.4814,-2.4858,-2.4993,-2.5163,-2.5168,-2.4991,-2.4591,-2.3676,-2.2415,-2.0792,-2.0464,-1.9585,-1.8253,-1.8932,-1.8599,-1.7436,-1.7383,-1.7089,-1.6606,-1.578,0.0,0.0,-1.9084,0.0,0.0,-2.2231,-2.3363,0.0,0.0,0.0,-2.2393,-2.3994,-2.1332,0.0,0.0,0.0,-1.0817,-0.9738,-1.033,-1.1045,-0.9598,-0.9935,-1.0515,-0.9791,0.0,0.0,-0.9216,-0.8014,0.0,0.0,-0.6781,-0.6255,-0.6287,-0.5431,-0.4334,-0.3279,-0.2735,-0.1878,-0.0235,0.0,0.0,0.0,0.0,0.0,0.0,0.0,0.0275,0.0902,0.1333,0.2504,0.4569,0.5461,0.5925,0.5989,0.5928,0.6224,0.6979,0.6521,0.6606,0.7176,0.6567,0.63,0.6289,0.6006,0.5861,0.5789,0.559,0.5491,0.5518,0.5973,0.6658,0.7549,0.8602,0.9282,0.9765,0.9916,1.0043,1.0054,0.0,0.0,-3.2317,-3.1983,-3.1302,-3.0681,-3.0366,-2.9322,-2.8315,0.0,-2.7376,-2.73,-2.7333,-2.6806,-2.6197,-2.5525,-2.4903,-2.4537,-2.4495,-2.467,-2.4835,-2.4974,-2.4998,-2.4998,-2.498,-2.385,-2.2554,-2.1098,-2.0548,-1.968,-1.8612,-1.9196,-1.8906,-1.788,-1.768,-1.7061,-1.6087,-1.4973,0.0,-1.5509,-1.858,-1.9132,0.0,0.0,-2.1803,-2.1869,-2.2359,-2.222,-2.2209,-2.4757,-2.2319,0.0,0.0,0.0,0.0,0.0,-1.0511,-1.1408,-1.0505,-1.0849,-1.1483,-1.1592,-1.0236,0.0,-1.0278,-0.8109,-0.6174,0.0,-0.6699,-0.6003,-0.6071,-0.5179,-0.408,-0.3088,-0.2081,-0.1091,0.0,0.0,0.0,0.0,0.0,0.0,0.0,0.0,0.0,0.0,0.098,0.2504,0.4569,0.5421,0.5985,0.6293,0.6108,0.6105,0.6296,0.63,0.63,0.63,0.63,0.63,0.6293,0.6101,0.5919,0.582,0.5677,0.5613,0.5634,0.5582,0.6039,0.6782,0.7544,0.7929,0.7994,0.7994,0.8149,0.8325,-3.2561,-3.223,-3.2106,-3.2656,-3.2316,-3.174,-3.1103,-3.0296,-2.9509,-2.8762,-2.7807,-2.7461,-2.8099,-2.6706,-2.5762,-2.5875,-2.5223,-2.4736,-2.4515,-2.4545,-2.4647,-2.4828,-2.4937,-2.4943,-2.4842,-2.4069,-2.2632,-2.0488,-2.0195,-1.9311,-1.7908,-1.8027,-1.7963,-1.77,-1.7142,-1.6314,-1.5309,-1.474,0.0,-1.5004,-1.7151,0.0,-1.7996,-2.1262,-2.249,-2.2578,-2.3163,-2.3559,-2.3772,-2.34,-2.2158,-2.0293,0.0,0.0,0.0,-1.1978,0.0,-1.3138,-1.1204,-1.1235,-1.1697,0.0,0.0,0.0,-0.9119,-0.7207,-0.5695,0.0,0.0,-0.4266,-0.4706,-0.3622,-0.2523,-0.1975,-0.1014,0.0,0.0,0.0,0.0,0.0,0.0,0.0,0.0,0.0,0.0,0.0,0.098,0.2504,0.4569,0.4768,0.5258,0.6254,0.6108,0.6105,0.6296,0.63,0.63,0.63,0.63,0.63,0.6293,0.6101,0.5976,0.5939,0.5827,0.5762,0.582,0.6383,0.6713,0.6865,0.6944,0.7372,0.7994,0.7994,0.8019,0.7985,-3.2123,-3.1951,-3.1976,-3.2539,-3.2178,-3.1554,-3.0857,-3.0158,-2.9325,-2.8244,-2.7801,-2.769,-2.793,-2.6625,-2.5813,-2.5991,-2.4962,-2.4325,-2.4358,-2.4348,-2.4435,-2.4639,-2.4708,-2.4759,-2.4804,-2.4035,-2.2692,-2.0748,-2.0059,-1.8904,-1.7405,-1.7405,-1.7398,-1.7368,-1.6699,-1.585,-1.485,0.0,-1.3513,-1.3788,-1.6434,0.0,-1.868,-2.1218,-2.2406,-2.2694,-2.2651,-2.3201,-2.3856,-2.3209,-2.1439,0.0,0.0,-1.7427,-1.5571,0.0,-1.3425,-1.3794,0.0,0.0,0.0,-1.1619,0.0,0.0,0.0,0.0,0.0,0.0,0.0,0.0,-0.496,0.0,-0.2395,0.0,0.0,0.0,0.0,0.0,0.0,0.0,0.0,0.0,0.0,0.0,0.0236,0.0745,0.1279,0.228,0.3824,0.3857,0.4076,0.4683,0.4594,0.4591,0.4688,0.5175,0.541,0.541,0.5914,0.6146,0.6146,0.6146,0.6101,0.599,0.5912,0.6167,0.6619,0.6416,0.6658,0.7077,0.6797,0.6691,0.6695,0.6695,0.6695,0.6629,-3.1021,-3.1417,-3.1665,-3.1591,-3.1435,-3.1051,-3.0281,-2.9576,-2.863,-2.7211,-2.7392,-2.758,-2.7299,-2.6503,-2.6016,-2.6077,-2.5028,-2.4431,-2.4519,-2.4531,-2.4558,-2.4668,-2.4552,-2.4586,-2.4738,-2.3795,-2.2461,-2.0773,-1.9581,-1.828,-1.6901,-1.6687,-1.6669,-1.6785,-1.6445,-1.5577,0.0,0.0,0.0,-1.3296,0.0,-1.7625,-1.8659,-2.0635,-2.1639,-2.2011,-2.1923,-2.2532,-2.3306,-2.3018,-2.0864,-1.8509,-1.9919,-1.8235,0.0,0.0,0.0,0.0,0.0,0.0,0.0,0.0,0.0,-1.0449,0.0,0.0,0.0,0.0,0.0,0.0,0.0,0.0,0.0,0.0,0.0,0.0,0.0,0.0,0.0,0.0,0.0,0.0,0.0,0.0,0.0464,0.1527,0.14,0.1804,0.3039,0.2905,0.2898,0.3081,0.3085,0.3117,0.3103,0.4029,0.4505,0.4521,0.5495,0.5963,0.5996,0.6159,0.6166,0.6074,0.6074,0.663,0.75,0.6699,0.6873,0.7584,0.6789,0.6039,0.5395,0.5395,0.5395,0.5395,-2.8376,-3.0053,-3.0777,-2.9207,-3.0298,-3.097,-2.9776,-2.8972,-2.7988,-2.6599,-2.6451,-2.6478,-2.6441,-2.618,-2.6098,-2.6334,-2.6633,-2.6482,-2.5751,-2.5715,-2.5581,-2.5312,-2.4781,-2.4512,-2.4518,-2.3216,-2.1458,-1.9241,-1.8098,-1.7075,-1.6187,-1.5232,-1.5108,-1.5722,-1.6601,-1.5602,0.0,0.0,-1.5051,0.0,-1.5449,-1.5436,0.0,-1.8975,-1.9897,-1.9791,-2.1849,-2.2657,-2.2629,0.0,-2.117,-2.0482,0.0,-1.8529,-2.017,-1.4449,0.0,0.0,0.0,0.0,0.0,0.0,-1.0992,0.0,0.0,0.0,0.0,0.0,0.0,0.0,0.0,0.0,0.0,0.0,0.0,0.0,0.0,0.0,0.0,0.0,0.0,0.0,0.0,0.0,0.0439,0.1522,0.0721,0.1032,0.2992,0.2255,0.2175,0.3083,0.3085,0.3093,0.3107,0.4035,0.4501,0.4512,0.5387,0.5898,0.5993,0.601,0.6122,0.6272,0.6272,0.6842,0.7808,0.8268,0.8621,0.8696,0.6542,0.5579,0.5395,0.5395,0.5395,0.5395,-2.7559,-2.8416,-2.8878,-2.8554,-2.8858,-2.8968,-2.8458,-2.7805,-2.6995,-2.6024,-2.5879,-2.601,-2.6318,-2.555,0.0,0.0,0.0,-2.6392,0.0,0.0,-2.5297,-2.4452,-2.4164,-2.3906,-2.3647,-2.2709,-2.1398,-1.9749,-1.7826,-1.6593,-1.6014,-1.4747,-1.4334,-1.473,-1.6056,-1.5744,-1.4213,0.0,-1.4191,0.0,0.0,0.0,0.0,-1.8435,-1.9719,-1.9687,-2.1083,-2.1833,-2.2112,0.0,-2.0678,0.0,0.0,0.0,0.0,0.0,0.0,0.0,0.0,0.0,0.0,0.0,0.0,0.0,-0.9553,0.0,-0.853,0.0,0.0,0.0,0.0,0.0,0.0,0.0,0.0,0.0,0.0,0.0,0.0,0.0,0.0,0.0,0.0,0.0,0.0,0.0,0.0251,0.0388,0.1247,0.0919,0.0879,0.1291,0.1775,0.2058,0.2039,0.3475,0.4194,0.4217,0.5214,0.5711,0.5779,0.5915,0.6027,0.617,0.6866,0.7744,0.8685,0.8965,0.9443,0.973,0.7487,0.6513,0.6318,0.5659,0.5395,0.5395,-2.623,-2.6908,-2.7352,-2.7184,-2.7205,-2.7117,-2.681,-2.6349,-2.5809,-2.5151,-2.5061,-2.5281,-2.5839,-2.5459,0.0,0.0,-2.7654,-2.7249,0.0,0.0,-2.5671,-2.5023,-2.4078,0.0,-2.3666,-2.2416,-2.1092,-1.9699,-1.7604,-1.6368,-1.5925,-1.4539,-1.3884,-1.3938,-1.5349,-1.5444,-1.4538,0.0,-1.4114,-1.4184,-1.4384,-1.4541,-1.4983,-1.8138,-1.9547,-1.9901,-2.0547,-2.1064,-2.1452,-2.1479,-1.9804,0.0,-2.1035,0.0,0.0,0.0,0.0,0.0,-1.2395,0.0,0.0,0.0,0.0,0.0,0.0,0.0,0.0,0.0,0.0,0.0,0.0,0.0,0.0,0.0,0.0,0.0,0.0,0.0,0.0,0.0,0.0,0.0,0.0,0.0,0.0,0.0,0.0,0.0138,0.0428,0.0153,0.0153,0.0431,0.0766,0.1054,0.1308,0.2856,0.3751,0.4,0.504,0.5549,0.5599,0.585,0.5952,0.6037,0.6984,0.8127,0.9296,0.9296,0.9984,1.0864,0.8652,0.7739,0.7476,0.5944,0.5395,0.5395,-2.3599,-2.5717,-2.664,-2.4197,-2.5295,-2.6132,-2.489,-2.4687,-2.4425,0.0,0.0,0.0,0.0,0.0,0.0,0.0,0.0,-3.0224,-2.8318,0.0,-2.7484,-2.8219,-2.5028,-2.3885,0.0,-2.2437,-2.003,-1.8166,-1.7046,-1.6268,-1.577,-1.4493,-1.3693,-1.3385,-1.4601,-1.4511,-1.3534,-1.4796,-1.6107,-1.7303,-1.6854,-1.6811,-1.7074,0.0,-1.8907,-1.9901,-2.0547,0.0,0.0,-1.8986,-1.8582,0.0,0.0,0.0,0.0,0.0,0.0,0.0,0.0,0.0,0.0,-0.9219,0.0,0.0,0.0,0.0,-0.9567,0.0,0.0,0.0,0.0,0.0,0.0,0.0,0.0,0.0,0.0,0.0,0.0,0.0,0.0,0.0,0.0,0.0,0.0,0.0,0.0,0.0,0.1503,0.0573,0.0459,0.1528,0.0575,0.0448,0.1274,0.2264,0.3166,0.402,0.4964,0.5481,0.5596,0.5742,0.5888,0.6,0.6231,0.748,0.9296,0.9296,1.0453,1.2031,0.9876,0.9057,0.8748,0.6298,0.5395,0.5395,-2.355,-2.4292,-2.4609,-2.3756,-2.4128,-2.4295,-2.3479,-2.3039,0.0,0.0,0.0,0.0,0.0,-2.648,-2.7464,0.0,0.0,-2.9435,-2.8048,-2.7283,0.0,0.0,0.0,-2.3524,0.0,-2.2807,-2.0877,-1.9223,-1.7935,-1.6921,-1.6166,-1.4609,-1.3693,-1.3336,-1.452,-1.5014,0.0,0.0,0.0,0.0,0.0,-1.5326,-1.6617,0.0,0.0,-1.8217,-1.9635,-2.0421,0.0,-2.0157,-1.9292,-1.8599,-1.9339,-1.8169,-1.6711,-1.7538,-1.713,-1.6107,0.0,0.0,-1.6177,-1.1213,0.0,0.0,0.0,0.0,0.0,0.0,0.0,0.0,0.0,0.0,0.0,0.0,0.0,0.0,0.0,0.0,0.0,0.0,0.0,0.0,0.0,0.0,0.0,0.0,0.0,0.0,0.0,0.0466,0.1244,0.1606,0.237,0.293,0.323,0.4062,0.4629,0.4921,0.5259,0.5423,0.5481,0.5691,0.583,0.5928,0.6859,0.8046,0.9334,1.0002,1.0677,1.1174,0.9668,0.8665,0.7842,0.6155,0.5545,0.5532,-2.3334,-2.329,-2.3355,-2.3551,-2.3421,-2.3076,-2.2438,0.0,0.0,0.0,-2.3739,0.0,-2.6389,0.0,-2.7494,0.0,-2.9271,-2.8774,-2.7365,-2.7234,0.0,-2.6758,-2.5058,0.0,0.0,0.0,-2.2251,-2.104,-1.906,-1.7654,-1.6739,-1.4948,-1.3651,-1.2834,-1.3541,-1.439,-1.5318,0.0,-1.6325,0.0,0.0,-1.4504,0.0,0.0,-1.657,-1.6667,0.0,-1.9696,-2.0093,-2.0371,-1.9731,-1.9084,-2.0556,-1.917,-1.7248,-1.8723,-1.8122,-1.685,-1.626,-1.7588,0.0,-1.3352,-1.4075,0.0,-1.0101,0.0,0.0,0.0,0.0,0.0,0.0,0.0,0.0,0.0,0.0,0.0,0.0,0.0,0.0,0.0,0.0,0.0,0.0,0.0,0.0,0.0,0.0,0.0,0.0,0.0,0.1757,0.2049,0.3156,0.3867,0.4115,0.4659,0.5057,0.5395,0.5395,0.5395,0.5405,0.5667,0.58,0.5853,0.6836,0.7821,0.8808,0.9475,1.0147,1.0697,0.9612,0.8746,0.7958,0.6268,0.5633,0.5569,-2.2806,-2.2721,-2.2909,-2.3444,-2.2995,-2.2372,0.0,0.0,-2.2048,0.0,-2.3683,-2.4412,-2.6434,-2.7162,-2.7783,-2.8425,-2.9019,-2.8504,-2.6519,-2.7443,0.0,0.0,-2.7114,-2.7604,-2.9575,0.0,0.0,0.0,-2.0345,-1.8389,-1.7458,-1.5448,-1.3596,-1.1961,-1.1859,0.0,-1.4413,-1.4832,-1.6777,-1.9316,-1.6383,-1.4375,-1.3228,-1.3927,-1.4517,-1.5306,-1.7769,-1.8661,-1.8768,-1.9501,-1.9747,-1.9747,-1.9798,-1.9798,-1.9798,-1.9798,-1.9798,-1.9472,-1.7915,-1.7549,-1.7159,-1.5449,-1.5177,0.0,0.0,0.0,-1.4175,0.0,0.0,0.0,0.0,0.0,0.0,0.0,0.0,0.0,0.0,0.0,0.0,0.0,0.0,0.0,0.0,0.0,0.0,0.0,0.0,0.0,0.0,0.0,0.2042,0.2863,0.2975,0.3365,0.4079,0.4071,0.4519,0.5395,0.5395,0.5399,0.5416,0.5671,0.5803,0.583,0.6166,0.6872,0.7783,0.7783,0.8945,1.064,0.9669,0.9258,0.8944,0.6645,0.5722,0.5579,-2.2754,-2.2947,-2.3117,0.0,-2.1562,-2.0863,0.0,0.0,0.0,0.0,-2.3347,-2.4195,-2.7036,-2.7479,-2.782,-2.8448,-2.8654,0.0,0.0,0.0,0.0,-2.8813,-2.7048,-2.7284,-2.991,-2.6812,0.0,-2.4195,0.0,-1.8926,-1.7458,-1.5448,-1.3935,-1.2918,-1.2134,-1.2701,-1.4155,-1.3884,-1.4799,-1.6298,-1.4459,-1.3252,-1.2638,0.0,-1.3727,-1.3844,-1.6817,-1.7868,-1.8015,-1.8741,-1.898,-1.9071,-1.9643,-1.9798,-1.9798,-1.9798,-1.9798,-1.971,-1.9296,-1.9522,-1.9346,-1.7272,-1.7093,-1.6912,0.0,0.0,0.0,0.0,0.0,0.0,0.0,0.0,0.0,0.0,0.0,0.0,0.0,0.0,0.0,0.0,0.0,0.0,0.0,0.0,0.0,0.0,0.0,0.0,0.0,0.0,0.0,0.2895,0.4217,0.4993,0.5202,0.5094,0.516,0.5395,0.5395,0.5453,0.5538,0.5718,0.5864,0.5946,0.6214,0.6872,0.7783,0.7783,0.8537,0.9669,0.941,0.8841,0.802,0.6485,0.5878,0.5742,-2.2707,0.0,0.0,-2.1584,0.0,0.0,-2.1838,-2.0051,0.0,-2.2945,-2.308,0.0,-2.612,-2.7116,-2.7735,-2.8091,-2.8116,0.0,-2.7153,0.0,0.0,-2.7997,-2.7858,-2.8609,-3.0404,-2.8314,0.0,-2.5781,0.0,-1.9766,-1.7853,-1.5574,-1.3818,-1.258,-1.2039,-1.229,-1.3218,-1.4563,-1.4902,-1.4558,-1.4466,-1.3845,0.0,-1.358,-1.3886,-1.4233,-1.5994,-1.6856,-1.7219,-1.7977,-1.8232,-1.8286,-1.8715,-1.8847,-1.89,-1.9228,-1.9307,-1.9397,-1.9721,-2.0251,-2.0453,-1.9447,-1.9597,-1.9522,-1.7814,-1.7978,-1.864,0.0,-1.9588,-2.0035,0.0,0.0,0.0,0.0,0.0,0.0,0.0,0.0,0.0,0.0,0.0,0.0,0.0,0.0,0.0,0.0,0.0,0.0,0.0,0.0,0.0,0.2343,0.4074,0.5145,0.5525,0.5038,0.4996,0.5395,0.5395,0.5477,0.5596,0.5735,0.5884,0.6,0.6231,0.6602,0.7134,0.7134,0.7744,0.8689,0.9112,0.8955,0.8338,0.7211,0.6399,0.5891,-2.2508,0.0,0.0,0.0,0.0,0.0,0.0,-2.0926,0.0,-2.293,0.0,-2.3741,-2.5038,-2.6609,-2.76,-2.76,0.0,-2.7106,-2.5944,-2.7435,-2.7914,-2.6805,-2.8865,-3.0332,-3.0898,-2.9842,0.0,0.0,0.0,-2.0513,-1.8201,-1.5734,-1.3616,-1.189,-1.1941,0.0,0.0,-1.5462,-1.5565,-1.381,-1.5157,-1.4927,-1.3816,-1.3948,-1.4591,-1.541,-1.541,-1.5806,-1.6454,-1.7219,-1.7468,-1.7468,-1.7578,-1.7605,-1.7743,-1.8367,-1.8555,-1.8688,-1.9345,-1.9887,-2.0474,-2.1179,-2.1702,-2.18,-2.0884,-2.1156,-2.1615,-2.1607,-2.1307,-2.1892,0.0,0.0,0.0,0.0,0.0,0.0,0.0,0.0,0.0,0.0,0.0,0.0,0.0,0.0,0.0,0.0,0.0,0.0,0.0,0.0,0.0,0.1733,0.3442,0.4646,0.5196,0.0,0.4531,0.5229,0.5352,0.5484,0.5623,0.5745,0.5895,0.6067,0.6242,0.63,0.63,0.63,0.6911,0.7897,0.8917,0.9221,0.8993,0.8122,0.7037,0.604,-2.155,0.0,0.0,0.0,0.0,-2.3749,-2.3817,-2.2907,-2.2922,-2.4862,-2.5135,-2.5647,-2.6951,-2.74,-2.76,-2.76,-2.76,0.0,0.0,0.0,0.0,-2.8147,-2.8584,-2.946,-3.0861,-2.9424,-2.7947,0.0,0.0,-2.0252,-1.7469,-1.5787,-1.4226,-1.2851,-1.2866,0.0,-1.3666,-1.3061,0.0,-1.4097,-1.4154,-1.4035,-1.3901,-1.4782,-1.5226,-1.541,-1.541,-1.5468,-1.5719,-1.6454,-1.668,-1.6782,-1.7413,-1.7605,-1.7633,-1.7743,-1.7797,-1.7825,-1.7961,-1.8045,-1.8536,-2.0184,-2.0668,-2.1071,-2.2322,-2.2723,-2.2994,-2.3631,-2.4172,-2.4344,-2.3706,0.0,0.0,0.0,0.0,0.0,0.0,0.0,0.0,0.0,0.0,0.0,0.0,0.0,0.0,0.0,0.0,0.0,0.0,0.0,0.0,0.0,0.4251,0.0,0.0,0.0,0.484,0.4266,0.5032,0.5535,0.5766,0.5789,0.5956,0.6259,0.6286,0.63,0.63,0.63,0.6911,0.7897,0.8917,0.8808,0.805,0.7859,0.7153,0.6255,-2.1716,0.0,0.0,0.0,0.0,0.0,0.0,-2.4617,-2.4937,-2.4643,-2.4261,-2.4283,-2.4942,-2.5869,-2.6455,-2.6455,-2.6455,-2.6628,-2.7008,-2.7034,-2.7342,-2.7993,-2.8319,0.0,-2.9648,-2.9212,-2.7723,-2.5213,0.0,-2.0511,-1.7315,-1.5593,-1.4292,-1.3412,0.0,-1.3397,0.0,0.0,0.0,-1.4746,-1.5083,-1.4974,-1.4687,-1.5187,-1.541,-1.541,-1.541,-1.541,-1.5439,-1.5806,-1.5921,-1.5979,-1.6358,-1.6472,-1.6518,-1.6922,-1.7034,-1.7107,-1.7495,-1.7796,-1.8363,-1.9991,-2.0568,-2.1122,-2.2728,-2.3424,-2.3826,-2.4234,-2.4908,-2.4918,-2.3345,-2.0798,0.0,0.0,0.0,0.0,0.0,0.0,0.0,0.0,0.0,0.0,0.0,0.0,0.0,0.0,0.0,0.0,0.0,0.0,0.0,0.0,0.0,0.0,0.0,0.0,0.0,0.4724,0.5269,0.5593,0.5803,0.5884,0.6044,0.63,0.63,0.63,0.63,0.63,0.6911,0.7859,0.8351,0.8237,0.7783,0.7783,0.7176,0.63,0.0,-2.0516,0.0,0.0,-2.2078,-2.2874,-2.3953,-2.5748,-2.6323,-2.447,-2.3743,-2.3325,-2.3205,-2.4518,-2.5398,-2.5398,-2.5398,-2.5646,-2.6229,-2.6256,-2.6522,-2.7111,-2.774,-2.8134,-2.8264,-2.888,-2.7694,0.0,0.0,0.0,-1.7605,-1.5493,-1.4359,-1.4055,0.0,0.0,0.0,0.0,-1.5994,-1.5743,-1.6133,-1.5921,-1.541,-1.541,-1.541,-1.541,-1.541,-1.541,-1.541,-1.541,-1.541,-1.541,-1.541,-1.541,-1.5497,-1.6093,-1.6265,-1.6397,-1.6968,-1.7494,-1.8177,-1.9558,-2.0173,-2.0855,-2.225,-2.3058,-2.3581,-2.3741,-2.4525,-2.4597,-2.2726,-2.0936,0.0,0.0,0.0,0.0,0.0,0.0,0.0,0.0,0.0,0.0,0.0,0.0,0.0,0.0,0.0,0.0,0.0,0.0,0.0,0.0,0.0,0.3365,0.4638,0.0,0.4626,0.5209,0.5493,0.5708,0.5854,0.5939,0.6115,0.63,0.63,0.63,0.63,0.63,0.6756,0.748,0.748,0.748,0.748,0.748,0.6984,0.63,0.0,0.0,0.0,0.0,0.0,-2.4532,-2.4551,-2.5895,-2.6698,-2.604,-2.5904,-2.5698,-2.5204,-2.5301,-2.5398,-2.5398,-2.5398,-2.5425,-2.5508,-2.5508,-2.5536,-2.5591,-2.6295,-2.6923,-2.7485,-2.8225,-2.7684,0.0,0.0,-2.0771,-1.8423,-1.575,-1.4789,-1.5273,0.0,0.0,0.0,-1.6001,-1.612,-1.728,-1.6024,-1.5468,-1.541,-1.541,-1.541,-1.541,-1.541,-1.541,-1.541,-1.541,-1.541,-1.541,-1.541,-1.541,-1.541,-1.5468,-1.5497,-1.5526,-1.5575,-1.596,-1.6608,-1.79,-1.852,-1.9189,-2.0542,-2.0899,-2.1184,-2.1959,-2.3357,-2.3617,-2.1094,-2.2721,-2.3199,0.0,0.0,0.0,0.0,0.0,0.0,0.0,0.0,0.0,0.0,0.0,0.0,0.0,0.0,0.0,0.0,0.0,0.0,-0.1059,0.0,0.2649,0.2146,0.4353,0.5171,0.4593,0.539,0.5861,0.5973,0.5986,0.6115,0.63,0.63,0.63,0.63,0.63,0.6338,0.6451,0.6451,0.6451,0.6451,0.6451,0.6377,0.63,0.0,0.0,0.0,0.0,0.0,0.0,0.0,-2.626,-2.6477,-2.5907,-2.5548,-2.5162,-2.4618,-2.4553,-2.4409,-2.4044,-2.4018,-2.4208,-2.4709,-2.4738,-2.4922,-2.537,-2.5673,-2.5959,-2.6171,-2.6923,-2.6366,0.0,0.0,0.0,-1.7852,-1.6674,-1.6304,-1.6625,-1.6392,-1.6987,-1.8123,-1.7079,-1.702,-1.7468,-1.5997,-1.541,-1.541,-1.541,-1.541,-1.541,-1.541,-1.541,-1.541,-1.541,-1.541,-1.541,-1.541,-1.541,-1.541,-1.541,-1.541,-1.541,-1.541,-1.5928,-1.6712,-1.7729,-1.8512,-1.9296,-2.0353,-2.059,-2.0687,-2.1037,-2.1612,-2.2223,-2.2668,-2.1689,-2.1215,-2.2442,0.0,0.0,0.0,0.0,0.0,0.0,0.0,0.0,0.0,0.0,0.0,0.0,0.0,0.0,0.0,0.0,0.0,-0.186,0.0,0.1687,0.2743,0.41,0.4926,0.5287,0.5719,0.5932,0.5996,0.6125,0.6242,0.63,0.63,0.63,0.63,0.63,0.63,0.63,0.63,0.63,0.63,0.63,0.63,0.63,-2.3844,-2.291,-2.2891,-2.5072,-2.4564,-2.4466,-2.6233,-2.6499,-2.6348,-2.59,-2.5523,-2.5034,-2.4318,-2.4243,-2.4004,-2.3409,-2.3358,-2.3525,-2.3927,-2.3943,-2.4192,-2.4696,-2.4951,0.0,-2.5063,-2.5783,-2.5495,-2.4046,-2.2593,0.0,-1.8673,-1.7547,-1.7327,-1.7854,-1.7723,-1.7922,-1.8314,-1.7584,-1.7285,-1.7163,-1.5911,-1.541,-1.541,-1.541,-1.541,-1.541,-1.541,-1.541,-1.541,-1.541,-1.541,-1.541,-1.541,-1.541,-1.541,-1.541,-1.541,-1.541,-1.541,-1.6034,-1.6855,-1.7451,-1.8275,-1.9077,-1.9694,-1.9857,-1.9911,-2.0171,-2.043,-2.1152,-2.29,-2.0941,-1.9978,-2.2701,0.0,0.0,0.0,0.0,0.0,0.0,0.0,-2.0917,0.0,0.0,0.0,0.0,0.0,0.0,0.0,0.0,0.0,0.0,0.0,0.0,0.0,0.4146,0.5138,0.5939,0.6047,0.6098,0.6101,0.6248,0.63,0.63,0.63,0.63,0.63,0.63,0.63,0.63,0.63,0.63,0.63,0.63,0.63,0.63,-2.4191,-2.3143,-2.3098,-2.5977,-2.5279,-2.481,-2.6261,-2.6499,-2.6499,-2.6487,-2.6474,-2.6059,-2.4901,-2.4775,-2.4562,-2.4042,-2.3991,-2.374,-2.3145,-2.3108,-2.3138,0.0,0.0,-2.4321,-2.4321,-2.5035,-2.5384,-2.537,0.0,0.0,-2.1676,-1.8233,-1.7457,-1.8908,-1.7182,-1.7268,-1.8584,-1.7135,-1.651,-1.6464,-1.569,-1.541,-1.541,-1.541,-1.541,-1.541,-1.541,-1.541,-1.541,-1.541,-1.541,-1.541,-1.541,-1.541,-1.541,-1.541,-1.541,-1.541,-1.541,-1.6034,-1.6697,-1.6697,-1.7373,-1.8008,-1.8042,-1.8042,-1.8269,-1.9144,-2.0009,-2.0623,-2.0655,-2.1186,-2.08,-1.8219,0.0,0.0,0.0,0.0,0.0,0.0,-1.714,-1.6377,-1.763,0.0,0.0,0.0,0.0,0.0,0.0,0.0,0.0,-0.4221,-0.0316,0.0,0.2021,0.4638,0.6101,0.6293,0.6296,0.6296,0.6296,0.63,0.63,0.63,0.63,0.63,0.63,0.63,0.63,0.63,0.63,0.63,0.63,0.63,0.63,0.63,-2.5785,-2.5433,-2.5421,-2.6321,-2.6118,-2.5952,-2.6427,-2.6499,-2.6499,-2.6499,-2.6499,-2.6361,-2.6009,-2.5586,-2.5134,0.0,-2.4217,-2.3916,0.0,-2.3321,-2.3108,-2.3108,-2.3335,-2.3484,-2.3484,-2.425,-2.4652,-2.4652,0.0,0.0,-2.0662,-1.846,-1.8016,-1.902,-1.8097,-1.7804,-1.7907,-1.6922,-1.6492,-1.6436,-1.569,-1.541,-1.541,-1.541,-1.541,-1.541,-1.541,-1.505,-1.4569,-1.4569,-1.4213,-1.3756,-1.3756,-1.451,-1.5294,-1.4746,-1.4962,-1.541,-1.541,-1.6034,-1.6697,-1.6697,-1.735,-1.8008,-1.8008,-1.8008,-1.8236,-1.911,-1.9044,-1.9177,-2.0365,-2.03,-1.9994,-1.9728,-2.0587,0.0,0.0,0.0,0.0,0.0,-1.7856,-1.8267,0.0,-1.8036,0.0,0.0,0.0,0.0,0.0,0.0,0.0,0.0,-0.1204,0.0,0.2112,0.4123,0.5531,0.63,0.63,0.63,0.63,0.63,0.63,0.63,0.63,0.63,0.63,0.63,0.63,0.63,0.63,0.63,0.63,0.63,0.63,0.63,-2.6499,-2.6499,-2.6499,-2.6499,-2.6499,-2.6499,-2.6499,-2.6499,-2.6499,-2.6499,-2.6499,-2.6499,-2.6499,-2.6172,-2.5699,-2.5159,-2.4619,-2.4217,-2.4017,-2.3421,-2.3108,-2.3108,-2.3108,-2.3108,-2.3108,-2.3603,0.0,-2.3855,-2.313,-2.2131,-2.0807,-1.957,-1.9045,-1.906,-1.8258,-1.7621,-1.7135,-1.6397,-1.6093,-1.6036,-1.5584,-1.541,-1.5381,-1.505,-1.4962,-1.4903,-1.4599,-1.4183,-1.3765,-1.3765,-1.3425,-1.2948,-1.2634,-1.3455,-1.4451,-1.4273,-1.4332,-1.4569,-1.4874,-1.5333,-1.5703,-1.5703,-1.6618,-1.7467,-1.7467,-1.7759,-1.8066,-1.8254,-1.8138,-1.8337,-1.9431,-1.9177,-1.8977,-1.9529,-1.9628,-1.9402,-1.8762,0.0,0.0,0.0,0.0,0.0,0.0,-1.8786,0.0,0.0,0.0,0.0,0.0,0.0,0.0,-0.4348,-0.0645,0.0,0.2545,0.4358,0.5622,0.63,0.63,0.63,0.63,0.63,0.63,0.63,0.63,0.63,0.63,0.63,0.63,0.63,0.63,0.63,0.63,0.63,0.63,0.63,-2.6499,-2.6499,-2.6499,-2.6499,-2.6499,-2.6499,-2.6499,-2.6499,-2.6499,-2.6499,-2.6499,-2.6499,-2.6499,-2.6499,-2.6273,-2.5699,-2.5172,0.0,-2.4092,-2.3484,-2.3145,-2.3108,-2.3108,-2.3108,-2.3108,-2.3108,-2.3108,-2.3108,-2.3108,-2.2659,-2.1803,-2.1233,-2.0264,-1.8936,-1.7703,-1.6915,-1.642,-1.571,-1.541,-1.541,-1.5352,-1.5323,-1.5235,-1.4421,-1.4115,-1.4025,-1.3282,-1.2978,-1.2917,-1.2917,-1.2887,-1.2704,-1.1958,-1.2235,-1.2978,-1.3816,-1.3545,-1.3161,-1.3906,-1.4096,-1.4082,-1.4082,-1.5375,-1.6567,-1.6532,-1.7217,-1.7647,-1.6706,-1.7251,-1.7862,-1.7828,-1.7862,-1.7862,-1.7828,-1.7847,-1.7783,-1.7532,-1.7544,-1.7235,0.0,0.0,0.0,0.0,-1.8197,-1.7676,0.0,0.0,0.0,0.0,0.0,-0.4935,-0.3068,0.0974,0.3085,0.3085,0.5237,0.63,0.63,0.63,0.63,0.63,0.6219,0.6219,0.63,0.6219,0.6219,0.63,0.63,0.63,0.63,0.63,0.63,0.63,0.63,0.63,0.63,-2.6499,-2.6499,-2.6499,-2.6499,-2.6499,-2.6499,-2.6499,-2.6499,-2.6499,-2.6499,-2.6499,-2.6499,-2.6499,-2.6499,-2.6436,-2.6298,-2.5737,-2.5184,-2.4657,-2.4104,-2.359,-2.312,-2.3108,-2.3108,-2.3108,-2.3108,-2.3108,-2.3108,-2.3108,-2.2341,-2.091,-2.0753,-1.9648,-1.7759,-1.7105,-1.6595,-1.6148,-1.5635,-1.541,-1.5352,-1.4717,-1.4481,-1.4392,-1.3575,-1.3282,-1.3252,-1.307,-1.2604,-1.2081,-1.2081,-1.1694,-1.1139,-1.0926,-1.1021,-1.1327,-1.2143,-1.2665,-1.3039,-1.3213,-1.3687,-1.4082,-1.4082,-1.5375,-1.6419,-1.5685,-1.6254,-1.668,-1.572,-1.6289,-1.6715,-1.5983,-1.6437,-1.6715,-1.5974,-1.6279,-1.661,-1.6556,-1.7026,-1.727,0.0,-1.7182,-1.7738,-1.8815,-1.8143,-1.7359,0.0,0.0,0.0,0.0,-0.5661,-0.3739,-0.2029,0.1327,0.3085,0.3085,0.5237,0.63,0.63,0.63,0.63,0.6261,0.547,0.5512,0.6261,0.5431,0.555,0.63,0.63,0.63,0.63,0.63,0.63,0.63,0.63,0.63,0.63,-2.6549,-2.6499,-2.6499,-2.6499,-2.6499,-2.6499,-2.6499,-2.6499,-2.6499,-2.6499,-2.6499,-2.6499,-2.6499,-2.6499,-2.6499,-2.6499,-2.5971,-2.5473,-2.5197,-2.4443,-2.3853,-2.354,-2.3246,-2.3108,-2.3108,-2.3108,-2.3108,-2.3108,-2.2732,-2.1865,-2.059,-2.0204,-1.9057,-1.7406,-1.7139,-1.667,-1.6075,-1.584,-1.5379,-1.4805,-1.4392,-1.3965,-1.3575,-1.2757,-1.2451,-1.2389,-1.2027,-1.1632,-1.1257,-1.1257,-1.0958,-1.0593,-1.0593,-1.0593,-1.0688,-1.1108,-1.1569,-1.1965,-1.2358,-1.2636,-1.3028,-1.3744,-1.4935,-1.572,-1.4736,-1.5614,-1.621,-1.4807,-1.5305,-1.579,-1.5305,-1.5623,-1.579,-1.5269,-1.5764,-1.6065,-1.5633,-1.6158,-1.6488,-1.6178,-1.6514,-1.701,-1.7691,-1.732,-1.6497,-1.5124,-1.3152,0.0,-0.6425,-0.4602,-0.3021,-0.1643,0.1445,0.3085,0.3085,0.5237,0.63,0.63,0.63,0.6025,0.555,0.5473,0.5473,0.555,0.5473,0.5473,0.5589,0.6103,0.6022,0.5628,0.6103,0.63,0.63,0.63,0.63,0.63,-2.66,-2.6499,-2.6499,-2.6499,-2.6499,-2.6499,-2.6499,-2.6499,-2.6499,-2.6499,-2.6499,-2.6499,-2.6499,-2.6499,-2.6499,-2.6499,-2.6047,-2.5686,-2.5598,-2.4669,-2.4092,-2.4004,-2.3409,-2.3108,-2.3108,-2.2975,-2.2914,-2.2914,-2.2094,-2.127,-2.0398,-1.9661,-1.8649,-1.7471,-1.7445,-1.6995,-1.6281,-1.6153,-1.5419,-1.4294,-1.4112,-1.3545,-1.2726,-1.1927,-1.1617,-1.1531,-1.0839,-1.0593,-1.0593,-1.0593,-1.0593,-1.0593,-1.0593,-1.0593,-1.0593,-1.0593,-1.0593,-1.0751,-1.1464,-1.1589,-1.1797,-1.3165,-1.4243,-1.47,-1.3709,-1.4871,-1.5641,-1.3846,-1.4279,-1.4914,-1.4772,-1.4879,-1.4928,-1.4792,-1.5432,-1.561,-1.4732,-1.5308,-1.5537,-1.4891,-1.5478,-1.6034,-1.6215,-1.6061,-1.5225,-1.3451,-1.1407,-0.8585,-0.4799,-0.3503,-0.2345,-0.1136,0.164,0.324,0.3591,0.5392,0.63,0.63,0.63,0.5825,0.496,0.5709,0.555,0.4727,0.5512,0.5315,0.453,0.5431,0.5276,0.453,0.5473,0.5906,0.6064,0.6064,0.6141,0.63,-2.66,-2.6499,-2.6499,-2.6499,-2.6499,-2.6499,-2.6499,-2.6499,-2.6499,-2.6499,-2.6499,-2.6499,-2.6499,-2.6499,-2.6499,-2.6499,-2.6411,-2.6147,-2.5624,-2.5034,-2.4481,-2.4017,-2.3409,-2.3108,-2.3108,-2.2445,-2.2106,-2.2106,-2.1227,-2.0365,-1.9497,-1.9365,-1.8813,-1.79,-1.7539,-1.7305,-1.7161,-1.6408,-1.5581,-1.4713,-1.3622,-1.2696,-1.1896,-1.1076,-1.0776,-1.0776,-1.0656,-1.0593,-1.0593,-1.0593,-1.0593,-1.0593,-1.0593,-1.0593,-1.0593,-1.0593,-1.0593,-1.0678,-1.1018,-1.1485,-1.1913,-1.2394,-1.3237,-1.3665,-1.2732,-1.3339,-1.3846,-1.2732,-1.3273,-1.3709,-1.2915,-1.3419,-1.3701,-1.3034,-1.392,-1.4457,-1.3885,-1.4945,-1.5537,-1.4891,-1.5112,-1.5365,-1.5377,-1.4585,-1.359,-1.2497,-0.9723,-0.7056,-0.4722,-0.2846,-0.094,0.1058,0.2384,0.3984,0.5786,0.6141,0.63,0.63,0.63,0.6222,0.6025,0.5276,0.4844,0.4647,0.3904,0.3513,0.3357,0.3513,0.3515,0.3357,0.3513,0.4139,0.496,0.496,0.5512,0.63,-2.6663,-2.6499,-2.6499,-2.6499,-2.6499,-2.6499,-2.6499,-2.6499,-2.6499,-2.6499,-2.6499,-2.6499,-2.6499,-2.6499,-2.6499,-2.6499,-2.6499,-2.6386,-2.6109,-2.5548,-2.4996,-2.4469,-2.3904,-2.3421,-2.3108,-2.2322,-2.1908,-2.1908,-2.0558,-1.9694,-1.9299,-1.8821,-1.8395,-1.8008,-1.7803,-1.7598,-1.7376,-1.6699,-1.5548,-1.4132,-1.3333,-1.2274,-1.1108,-1.0744,-1.0593,-1.0593,-1.0593,-1.0593,-1.0593,-1.0593,-1.0593,-1.0593,-1.0593,-1.0593,-1.0593,-1.0593,-1.0593,-1.0687,-1.1102,-1.1423,-1.1737,-1.2191,-1.3025,-1.3455,-1.2519,-1.3025,-1.3419,-1.2482,-1.2622,-1.2806,-1.2378,-1.2666,-1.2835,-1.2565,-1.3284,-1.3664,-1.3094,-1.387,-1.4256,-1.3527,-1.3078,-1.283,-1.283,-1.1888,-1.0891,-0.99,-0.7972,-0.5947,-0.3887,-0.2383,-0.0352,0.2306,0.3437,0.4727,0.63,0.63,0.63,0.63,0.63,0.5983,0.5431,0.4924,0.4375,0.3826,0.3318,0.2773,0.2347,0.289,0.2773,0.2347,0.289,0.3396,0.3904,0.4491,0.5002,0.5512,-2.6876,-2.6587,-2.6499,-2.6499,-2.6499,-2.6499,-2.6499,-2.6499,-2.6499,-2.6499,-2.6499,-2.6499,-2.6499,-2.6499,-2.6499,-2.6499,-2.6499,-2.6499,-2.6499,-2.6084,-2.5498,-2.4813,-2.4167,-2.3393,-2.2537,-2.1896,-2.1491,-2.1302,-1.9759,-1.9011,-1.8977,-1.8303,-1.8008,-1.8008,-1.8008,-1.7832,-1.75,-1.6931,-1.556,-1.3723,-1.3221,-1.2035,-1.0593,-1.0593,-1.0593,-1.0593,-1.0593,-1.0593,-1.0593,-1.0593,-1.0593,-1.0593,-1.0593,-1.0593,-1.0593,-1.0593,-1.064,-1.0807,-1.1283,-1.1442,-1.165,-1.2171,-1.2842,-1.3208,-1.2445,-1.2842,-1.3171,-1.2445,-1.2305,-1.2305,-1.2305,-1.2305,-1.2331,-1.2475,-1.302,-1.3193,-1.2598,-1.302,-1.304,-1.2065,-1.1273,-1.0708,-1.049,-0.9319,-0.8257,-0.7502,-0.5983,-0.4436,-0.2851,-0.1801,0.0117,0.3005,0.4373,0.5473,0.63,0.63,0.63,0.63,0.63,0.5867,0.5079,0.5079,0.4334,0.3085,0.3085,0.2384,0.1293,0.2073,0.1917,0.1293,0.2073,0.2539,0.2891,0.3943,0.4491,0.4844,-2.7344,-2.6851,-2.6499,-2.6499,-2.6499,-2.6499,-2.6499,-2.6499,-2.6499,-2.6499,-2.6499,-2.6499,-2.6499,-2.6499,-2.6499,-2.6499,-2.6499,-2.6499,-2.6499,-2.6449,-2.5925,-2.4838,-2.3747,-2.2408,-2.0814,-2.0719,-2.0301,-1.9497,-1.8563,-1.811,-1.81,-1.8042,-1.8008,-1.8008,-1.8008,-1.7988,-1.791,-1.7048,-1.5748,-1.4179,-1.3351,-1.2035,-1.0593,-1.0593,-1.0593,-1.0593,-1.0593,-1.0593,-1.0593,-1.0593,-1.0593,-1.0593,-1.0593,-1.0593,-1.0593,-1.0593,-1.0787,-1.1029,-1.1309,-1.1623,-1.1946,-1.2225,-1.2342,-1.2372,-1.2335,-1.2342,-1.2372,-1.2298,-1.2305,-1.2305,-1.2305,-1.2305,-1.2356,-1.2465,-1.3006,-1.3198,-1.2595,-1.3014,-1.2787,-1.1126,-1.0864,-1.0415,-0.9485,-0.7592,-0.6398,-0.6325,-0.3585,-0.188,-0.1723,-0.0706,0.0862,0.3046,0.5118,0.6219,0.63,0.63,0.63,0.63,0.63,0.6261,0.618,0.618,0.504,0.3085,0.3085,0.1955,0.0118,0.0196,0.0196,0.0118,0.0196,0.0824,0.1841,0.2852,0.3865,0.4844,-2.7394,-2.6876,-2.6499,-2.6499,-2.6499,-2.6499,-2.6499,-2.6499,-2.6499,-2.6499,-2.6499,-2.6499,-2.6499,-2.6499,-2.6499,-2.6499,-2.6499,-2.6499,-2.6499,-2.5921,-2.5326,-2.4806,-2.2722,-2.1479,-2.1396,-2.0333,-1.9628,-1.9299,-1.8428,-1.8008,-1.8008,-1.8008,-1.8008,-1.8008,-1.8008,-1.8008,-1.7935,-1.6708,-1.548,-1.4204,-1.2988,-1.1738,-1.0593,-1.0593,-1.0593,-1.0593,-1.0593,-1.0593,-1.0593,-1.0593,-1.0593,-1.0593,-1.0593,-1.0593,-1.0593,-1.0593,-1.0801,-1.1056,-1.1349,-1.1643,-1.1973,-1.2231,-1.2305,-1.2305,-1.2305,-1.2305,-1.2305,-1.2305,-1.2305,-1.2305,-1.2305,-1.2305,-1.2346,-1.2468,-1.2613,-1.2417,-1.1619,-1.1659,-1.1299,-1.0018,-0.9329,-0.8799,-0.8389,-0.6493,-0.5259,-0.5259,-0.3008,-0.1607,-0.1607,0.0626,0.2579,0.4059,0.5512,0.63,0.63,0.63,0.63,0.63,0.63,0.63,0.6261,0.5628,0.4491,0.3085,0.2425,0.1332,0.0,0.0,0.0,0.0,0.0,0.0235,0.0745,0.1801,0.2815,0.3865,-2.7871,-2.7356,-2.6952,-2.6788,-2.6751,-2.6688,-2.6524,-2.6499,-2.6499,-2.6499,-2.6499,-2.6383,-2.606,-2.6025,-2.6025,-2.6025,-2.6025,-2.6025,-2.6025,-2.4555,-2.363,-2.3549,-2.164,-2.0623,-2.0655,-1.9781,-1.9177,-1.8877,-1.8303,-1.8008,-1.8008,-1.8008,-1.8008,-1.8008,-1.8008,-1.7828,-1.7472,-1.6379,-1.5107,-1.376,-1.2645,-1.1568,-1.0593,-1.0593,-1.0593,-1.0593,-1.0593,-1.0593,-1.0593,-1.0593,-1.0593,-1.0593,-1.0593,-1.0593,-1.0593,-1.0593,-1.0861,-1.1176,-1.1335,-1.171,-1.2051,-1.2251,-1.2305,-1.2305,-1.2305,-1.2305,-1.2305,-1.2305,-1.2305,-1.2305,-1.2305,-1.2305,-1.2237,-1.2018,-1.1873,-1.1481,-1.0545,-1.0371,-0.9965,-0.8955,-0.8237,-0.7668,-0.7365,-0.5419,-0.4217,-0.4217,-0.227,-0.1097,-0.1097,0.1562,0.3435,0.4178,0.555,0.63,0.63,0.63,0.63,0.63,0.63,0.63,0.6261,0.555,0.4608,0.3552,0.2503,0.1488,0.0471,0.0157,0.0,0.0,0.0,0.0,0.0118,0.1215,0.2231,0.324,-2.8888,-2.8486,-2.7934,-2.7381,-2.7281,-2.7128,-2.6575,-2.6499,-2.6499,-2.6499,-2.6499,-2.6094,-2.5123,-2.5004,-2.4981,-2.4981,-2.5004,-2.5004,-2.4981,-2.2371,-2.0801,-2.079,-2.0654,-1.9781,-1.8042,-1.8854,-1.8888,-1.8008,-1.8008,-1.8008,-1.8008,-1.8008,-1.8008,-1.8008,-1.7974,-1.7467,-1.6575,-1.6109,-1.4748,-1.2852,-1.2392,-1.1536,-1.0593,-1.0593,-1.0593,-1.0593,-1.0593,-1.0593,-1.0593,-1.0593,-1.0593,-1.0593,-1.0593,-1.0593,-1.0593,-1.0593,-1.0969,-1.1389,-1.1389,-1.185,-1.2305,-1.2305,-1.2305,-1.2305,-1.2305,-1.2305,-1.2305,-1.2305,-1.2305,-1.2305,-1.2298,-1.2298,-1.1959,-1.0938,-1.0783,-1.0453,-0.9448,-0.9296,-0.8917,-0.7897,-0.7783,-0.7403,-0.6374,-0.4373,-0.3085,-0.3085,-0.1175,0.0,0.0,0.1955,0.3085,0.3085,0.5157,0.6261,0.6261,0.63,0.63,0.63,0.63,0.63,0.63,0.63,0.5709,0.4647,0.3591,0.2542,0.1528,0.0471,0.0,0.0,0.0,0.0,0.0118,0.1176,0.2231,0.324,-2.8888,-2.8486,-2.7934,-2.7381,-2.7281,-2.7128,-2.6575,-2.6499,-2.6499,-2.6499,-2.5873,-2.5335,-2.5052,-2.4373,-2.3963,-2.3963,-2.46,-2.4707,-2.4,-2.2248,-2.0767,-1.9795,-1.913,-1.8821,-1.8911,-1.8563,-1.8269,-1.8008,-1.8008,-1.8008,-1.8008,-1.8008,-1.8008,-1.7974,-1.732,-1.6853,-1.6489,-1.5004,-1.3789,-1.2833,-1.1992,-1.1219,-1.0593,-1.0593,-1.0593,-1.0593,-1.0593,-1.0593,-1.0593,-1.0593,-1.0593,-1.0593,-1.0593,-1.0593,-1.0593,-1.0593,-1.0969,-1.1389,-1.1389,-1.185,-1.2305,-1.2305,-1.2305,-1.2305,-1.2305,-1.2305,-1.2305,-1.2305,-1.2305,-1.2077,-1.1391,-1.1242,-1.0901,-0.9895,-0.9744,-0.9405,-0.8389,-0.8237,-0.7859,-0.6872,-0.6756,-0.6328,-0.5276,-0.3904,-0.2813,-0.2113,-0.0784,0.0314,0.1097,0.1723,0.2386,0.3085,0.3709,0.4062,0.4062,0.555,0.63,0.63,0.63,0.63,0.63,0.63,0.5709,0.4686,0.4373,0.3244,0.1568,0.1254,0.0667,0.0,0.0,0.0,0.0039,0.0353,0.1137,0.219,-2.9277,-2.9001,-2.84,-2.7237,-2.733,-2.7081,-2.5538,-2.5652,-2.5756,-2.5358,-2.4767,-2.4264,-2.3854,-2.3257,-2.2925,-2.2925,-2.3478,-2.3551,-2.2962,-2.1607,-2.0373,-1.9343,-1.8633,-1.8414,-1.8787,-1.8269,-1.8008,-1.8008,-1.8008,-1.8008,-1.8008,-1.8008,-1.8008,-1.7974,-1.7035,-1.6384,-1.593,-1.4378,-1.3233,-1.2447,-1.171,-1.1149,-1.0754,-1.0633,-1.0593,-1.0593,-1.0593,-1.0593,-1.0593,-1.0593,-1.0593,-1.0593,-1.0593,-1.0593,-1.0593,-1.0593,-1.0969,-1.1389,-1.1389,-1.185,-1.2305,-1.2305,-1.2305,-1.2305,-1.2305,-1.2305,-1.2187,-1.1774,-1.1694,-1.1391,-1.0378,-1.019,-0.989,-0.8879,-0.8694,-0.8351,-0.7365,-0.6857,-0.6353,-0.5744,-0.5276,-0.4766,-0.4139,-0.3125,-0.2073,-0.1058,-0.0353,0.0275,0.0941,0.1372,0.188,0.2501,0.289,0.3085,0.3085,0.4375,0.5237,0.567,0.567,0.5906,0.63,0.63,0.5944,0.5315,0.4882,0.375,0.2152,0.1762,0.098,0.0,0.0,0.0,0.0,0.0,0.0667,0.1762,-2.9792,-2.9792,-2.9159,-2.7042,-2.7385,-2.6968,-2.4022,-2.4288,-2.4528,-2.3635,-2.3404,-2.3036,-2.2103,-2.1924,-2.1886,-2.1886,-2.1886,-2.1914,-2.1989,-2.0735,-1.9766,-1.9307,-1.887,-1.8442,-1.8018,-1.8008,-1.8008,-1.8008,-1.8008,-1.8008,-1.8008,-1.7906,-1.7862,-1.7828,-1.6819,-1.586,-1.4985,-1.3991,-1.292,-1.1879,-1.1577,-1.1276,-1.0962,-1.0734,-1.0613,-1.0593,-1.0593,-1.0593,-1.0593,-1.0593,-1.0593,-1.0593,-1.0593,-1.0593,-1.0593,-1.0593,-1.0969,-1.1389,-1.1389,-1.185,-1.2305,-1.2305,-1.2305,-1.2305,-1.2305,-1.2224,-1.1922,-1.0975,-1.0746,-1.0378,-0.9334,-0.915,-0.8841,-0.7821,-0.7591,-0.7207,-0.6293,-0.5237,-0.4569,-0.4569,-0.3709,-0.3085,-0.2968,-0.2034,-0.1058,-0.0079,0.0,0.0,0.0,0.0941,0.145,0.145,0.2345,0.2812,0.2812,0.2812,0.3398,0.4569,0.4647,0.5198,0.6141,0.6261,0.63,0.6261,0.5276,0.4217,0.3163,0.2152,0.1097,0.0118,0.0039,0.0,0.0,0.0,0.0628,0.1606,-2.9792,-2.9792,-2.9245,-2.7457,-2.7028,-2.6275,-2.4337,-2.392,-2.3745,-2.3514,-2.2813,-2.2253,-2.2027,-2.1336,-2.0895,-2.0895,-2.0895,-2.1231,-2.1952,-2.1026,-2.0116,-1.9316,-1.9199,-1.8789,-1.8027,-1.8008,-1.8008,-1.8008,-1.8008,-1.8008,-1.7974,-1.7251,-1.6888,-1.6819,-1.5084,-1.4199,-1.3954,-1.3025,-1.2313,-1.1899,-1.1832,-1.1456,-1.0982,-1.0922,-1.0787,-1.0593,-1.0593,-1.0593,-1.0593,-1.0593,-1.0593,-1.0593,-1.0593,-1.0593,-1.0593,-1.0593,-1.0969,-1.1389,-1.1389,-1.185,-1.2305,-1.2305,-1.2305,-1.2305,-1.2305,-1.1694,-1.105,-1.082,-1.0153,-0.9334,-0.8313,-0.8122,-0.7783,-0.6795,-0.5935,-0.5306,-0.5079,-0.4139,-0.3435,-0.3435,-0.324,-0.2773,-0.1996,-0.098,-0.0235,0.0,0.0,0.0,0.0,0.0236,0.0353,0.0353,0.0549,0.0666,0.0666,0.0666,0.1604,0.3474,0.4295,0.4805,0.5079,0.5906,0.63,0.63,0.6064,0.5354,0.4256,0.3203,0.219,0.1176,0.0314,0.0,0.0,0.0,0.0157,0.0628,-2.9792,-2.9792,-2.9114,-2.6976,-2.6591,-2.5733,-2.3165,-2.2799,-2.2627,-2.2188,-2.1669,-2.1336,-2.1336,-2.0895,-2.0605,-2.0605,-2.0605,-2.0828,-2.1298,-2.0857,-2.0312,-1.9619,-1.9394,-1.8975,-1.8286,-1.8115,-1.8008,-1.8008,-1.8008,-1.8008,-1.7974,-1.7035,-1.6602,-1.6532,-1.4557,-1.3709,-1.3637,-1.2703,-1.2218,-1.2064,-1.196,-1.1718,-1.1417,-1.1096,-1.0902,-1.078,-1.064,-1.0593,-1.0593,-1.0593,-1.0593,-1.0593,-1.0593,-1.0593,-1.062,-1.076,-1.1082,-1.1422,-1.1597,-1.1964,-1.2305,-1.2305,-1.2305,-1.2305,-1.2305,-1.1502,-1.0677,-1.019,-0.9291,-0.8275,-0.7288,-0.7099,-0.6911,-0.6377,-0.5395,-0.4688,-0.4688,-0.3359,-0.2386,-0.2386,-0.1917,-0.1409,-0.0902,-0.0314,0.0,0.0,0.0,0.0,0.0,0.0,0.0,0.0,0.0,0.0,0.0,0.0,0.0549,0.1643,0.2698,0.375,0.4727,0.5276,0.5825,0.63,0.63,0.5709,0.4647,0.41,0.2971,0.1528,0.098,0.0432,0.0,0.0,0.0314,0.098,-2.9534,-2.9495,-2.8685,-2.6084,-2.5874,-2.4991,-2.182,-2.1575,-2.1479,-2.0712,-2.0605,-2.0605,-2.0605,-2.0605,-2.0605,-2.0605,-2.0605,-2.0605,-2.0605,-2.0605,-2.041,-1.9932,-1.958,-1.915,-1.8617,-1.8256,-1.8086,-1.8008,-1.8008,-1.7906,-1.7759,-1.6784,-1.628,-1.6035,-1.4235,-1.3455,-1.3419,-1.2629,-1.2305,-1.2278,-1.2074,-1.1946,-1.1852,-1.1329,-1.1082,-1.0962,-1.0754,-1.0633,-1.0593,-1.0593,-1.0593,-1.0593,-1.0593,-1.0593,-1.0646,-1.0909,-1.1196,-1.1455,-1.1826,-1.2084,-1.2305,-1.2305,-1.2305,-1.2305,-1.2305,-1.1391,-1.0303,-0.9485,-0.8351,-0.7288,-0.6451,-0.63,-0.63,-0.63,-0.5237,-0.4414,-0.4414,-0.262,-0.1333,-0.1333,-0.0549,0.0,0.0,0.0,0.0,0.0,0.0,0.0,0.0,0.0,0.0,0.0,0.0,0.0,0.0,0.0,0.0,0.0,0.0902,0.2309,0.4181,0.453,0.5196,0.6025,0.6219,0.5786,0.496,0.4766,0.3597,0.1841,0.1685,0.0941,0.0,0.0,0.0667,0.1723,-2.8518,-2.8347,-2.7619,-2.5324,-2.4388,-2.3442,-2.2034,-2.1213,-2.075,-2.0605,-2.0605,-2.0605,-2.0605,-2.0605,-2.0605,-2.0605,-2.0605,-2.0605,-2.0605,-2.0605,-2.041,-1.9932,-1.9853,-1.9453,-1.8617,-1.8549,-1.8344,-1.8008,-1.8008,-1.7579,-1.6784,-1.5834,-1.4914,-1.4063,-1.2989,-1.2482,-1.2482,-1.2342,-1.2305,-1.2298,-1.2258,-1.2091,-1.1899,-1.1819,-1.1436,-1.0989,-1.0949,-1.0807,-1.0593,-1.0593,-1.0593,-1.0593,-1.0593,-1.0593,-1.0646,-1.0909,-1.1196,-1.1455,-1.1826,-1.2084,-1.2305,-1.2305,-1.2305,-1.2305,-1.2305,-1.0838,-0.9448,-0.9334,-0.7821,-0.6451,-0.6338,-0.63,-0.63,-0.63,-0.4608,-0.3318,-0.3318,-0.1527,-0.0236,-0.0236,-0.0079,0.0,0.0,0.0,0.0,0.0,0.0,0.0,0.0,0.0,0.0,0.0,0.0,0.0,0.0,0.0,0.0,0.0,0.0157,0.0863,0.2075,0.3869,0.4766,0.496,0.5906,0.6222,0.6022,0.5079,0.3984,0.2813,0.1957,0.0941,0.0,0.0,0.0667,0.1607,-2.729,-2.7209,-2.6707,-2.5083,-2.4073,-2.3152,-2.204,-2.1173,-2.0605,-2.0605,-2.0605,-2.0605,-2.0605,-2.0605,-2.0605,-2.0605,-2.0605,-2.0605,-2.0605,-2.0605,-2.0517,-2.0283,-2.0049,-1.9629,-1.9014,-1.8724,-1.8393,-1.8008,-1.8008,-1.7501,-1.6567,-1.5658,-1.4665,-1.3673,-1.2732,-1.2305,-1.2305,-1.2305,-1.2305,-1.2305,-1.2305,-1.2225,-1.2091,-1.1966,-1.1745,-1.1471,-1.1109,-1.0841,-1.0593,-1.0593,-1.0593,-1.0593,-1.0593,-1.0593,-1.068,-1.1102,-1.1323,-1.1523,-1.1984,-1.2204,-1.2305,-1.2305,-1.2305,-1.2305,-1.2305,-1.0726,-0.9296,-0.9296,-0.7706,-0.63,-0.63,-0.63,-0.63,-0.63,-0.4491,-0.3085,-0.3085,-0.1292,0.0,0.0,0.0,0.0,0.0,0.0,0.0,0.0,0.0,0.0,0.0,0.0,0.0,0.0,0.0,0.0,0.0,0.0,0.0,0.0,0.0,0.0549,0.1646,0.3125,0.4139,0.4766,0.5825,0.63,0.6261,0.5786,0.496,0.3904,0.2852,0.1449,0.0,0.0,0.0314,0.0784]},{"header":{"parameterUnit":"m.s-1","parameterCategory":1,"la1":30.6,"la2":28.766,"lo1":-90.7593,"lo2":-88.6598,"dx":0.0162,"dy":0.0183,"nx":116,"ny":114,"refTime":"2022-12-07T18:00:00:Z","depth":0,"parameterNumber":3,"parameterNumberName":"V-component_of_WINDS"},"data":[0.0,0.0,0.0,0.0,0.0,0.0,0.0,0.0,0.0,0.0,0.0,0.0,0.0,0.0,0.0,0.0,0.0,0.0,0.0,0.0,0.0,0.0,0.0,0.0,0.0,0.0,0.0,0.0,0.0,0.0,0.0,0.0,0.0,0.0,0.0,0.0,0.0,0.0,0.0,0.0,0.0,0.0,0.0,0.0,0.0,0.0,0.0,0.0,0.0,0.0,0.0,0.0,0.0,0.0,0.0,0.0,0.0,0.0,0.0,0.0,0.0,0.0,0.0,0.0,0.0,0.0,0.0,0.0,0.0,0.0,0.0,0.0,0.0,0.0,0.0,0.0,0.0,0.0,0.0,0.0,0.0,0.0,0.0,0.0,0.0,0.0,0.0,0.0,0.0,0.0,0.0,0.0,0.0,0.0,0.0,0.0,0.0,0.0,0.0,0.0,0.0,0.0,0.0,0.0,0.0,0.0,0.0,0.0,0.0,0.0,0.0,0.0,0.0,0.0,0.0,0.0,0.0,0.0,0.0,0.0,0.0,0.0,0.0,0.0,0.0,0.0,0.0,0.0,0.0,0.0,0.0,0.0,0.0,0.0,0.0,0.0,0.0,0.0,0.0,0.0,0.0,0.0,0.0,0.0,0.0,0.0,0.0,0.0,0.0,0.0,0.0,0.0,0.0,0.0,0.0,0.0,0.0,0.0,0.0,0.0,0.0,0.0,0.0,0.0,0.0,0.0,0.0,0.0,0.0,0.0,0.0,0.0,0.0,0.0,0.0,0.0,0.0,0.0,0.0,0.0,0.0,0.0,0.0,0.0,0.0,0.0,0.0,0.0,0.0,0.0,0.0,0.0,0.0,0.0,0.0,0.0,0.0,0.0,0.0,0.0,0.0,0.0,0.0,0.0,0.0,0.0,0.0,0.0,0.0,0.0,0.0,0.0,0.0,0.0,0.0,0.0,0.0,0.0,0.0,0.0,0.0,0.0,0.0,0.0,0.0,0.0,0.0,0.0,0.0,0.0,0.0,0.0,0.0,0.0,0.0,0.0,0.0,0.0,0.0,0.0,0.0,0.0,0.0,0.0,0.0,0.0,0.0,0.0,0.0,0.0,0.0,0.0,0.0,0.0,0.0,0.0,0.0,0.0,0.0,0.0,0.0,0.0,0.0,0.0,0.0,0.0,0.0,0.0,0.0,0.0,0.0,0.0,0.0,0.0,0.0,0.0,0.0,0.0,0.0,0.0,0.0,0.0,0.0,0.0,0.0,0.0,0.0,0.0,0.0,0.0,0.0,0.0,0.0,0.0,0.0,0.0,0.0,0.0,0.0,0.0,0.0,0.0,0.0,0.0,0.0,0.0,0.0,0.0,0.0,0.0,0.0,0.0,0.0,0.0,0.0,0.0,0.0,0.0,0.0,0.0,0.0,0.0,0.0,0.0,0.0,0.0,0.0,0.0,0.0,0.0,0.0,0.0,0.0,0.0,0.0,0.0,0.0,0.0,0.0,0.0,0.0,0.0,0.0,0.0,0.0,0.0,0.0,0.0,0.0,0.0,0.0,0.0,0.0,0.0,0.0,0.0,0.0,0.0,0.0,0.0,0.0,0.0,0.0,0.0,0.0,0.0,0.0,0.0,0.0,0.0,0.0,0.0,0.0,0.0,0.0,0.0,0.0,0.0,0.0,0.0,0.0,0.0,0.0,0.0,0.0,0.0,0.0,0.0,0.0,0.0,0.0,0.0,0.0,0.0,0.0,0.0,0.0,0.0,0.0,0.0,0.0,0.0,0.0,0.0,0.0,0.0,0.0,0.0,0.0,0.0,0.0,0.0,0.0,0.0,0.0,0.0,0.0,0.0,0.0,0.0,0.0,0.0,0.0,0.0,0.0,0.0,0.0,0.0,0.0,0.0,0.0,0.0,0.0,0.0,0.0,0.0,0.0,0.0,0.0,0.0,0.0,0.0,0.0,0.0,0.0,0.0,0.0,0.0,0.0,0.0,0.0,0.0,0.0,0.0,0.0,0.0,0.0,0.0,0.0,0.0,0.0,0.0,0.0,0.0,0.0,0.0,0.0,0.0,0.0,0.0,0.0,0.0,0.0,0.0,0.0,0.0,0.0,0.0,0.0,0.0,0.0,0.0,0.0,0.0,0.0,0.0,0.0,0.0,0.0,0.0,0.0,0.0,0.0,0.0,0.0,0.0,0.0,0.0,0.0,0.0,0.0,0.0,0.0,0.0,0.0,0.0,0.0,0.0,0.0,0.0,0.0,0.0,0.0,0.0,0.0,0.0,0.0,0.0,0.0,0.0,0.0,0.0,0.0,0.0,0.0,0.0,0.0,0.0,0.0,0.0,0.0,0.0,0.0,0.0,0.0,0.0,0.0,0.0,0.0,0.0,0.0,0.0,0.0,0.0,0.0,0.0,0.0,0.0,0.0,0.0,0.0,0.0,0.0,0.0,0.0,0.0,0.0,0.0,0.0,0.0,0.0,0.0,0.0,0.0,0.0,0.0,0.0,0.0,0.0,0.0,0.0,0.0,0.0,0.0,0.0,0.0,0.0,0.0,0.0,0.0,0.0,0.0,0.0,0.0,0.0,0.0,0.0,0.0,0.0,0.0,0.0,0.0,0.0,0.0,0.0,0.0,0.0,0.0,0.0,0.0,0.0,0.0,0.0,0.0,0.0,0.0,0.0,0.0,0.0,0.0,0.0,0.0,0.0,0.0,0.0,0.0,0.0,0.0,0.0,0.0,0.0,0.0,0.0,0.0,0.0,0.0,0.0,0.0,0.0,0.0,0.0,0.0,0.0,0.0,0.0,0.0,0.0,0.0,0.0,0.0,0.0,0.0,0.0,0.0,0.0,0.0,0.0,0.0,0.0,0.0,0.0,0.0,0.0,0.0,0.0,0.0,0.0,0.0,0.0,0.0,0.0,0.0,0.0,0.0,0.0,0.0,0.0,0.0,0.0,0.0,0.0,0.0,0.0,0.0,0.0,0.0,0.0,0.0,0.0,0.0,0.0,0.0,0.0,0.0,0.0,0.0,0.0,0.0,0.0,0.0,0.0,0.0,0.0,0.0,0.0,0.0,0.0,0.0,0.0,0.0,0.0,0.0,0.0,0.0,0.0,0.0,0.0,0.0,0.0,0.0,0.0,0.0,0.0,0.0,0.0,0.0,0.0,0.0,0.0,0.0,0.0,0.0,0.0,0.0,0.0,0.0,0.0,0.0,0.0,0.0,0.0,0.0,0.0,0.0,0.0,0.0,0.0,0.0,0.0,0.0,0.0,0.0,0.0,0.0,0.0,0.0,0.0,0.0,0.0,0.0,0.0,0.0,0.0,0.0,0.0,0.0,0.0,0.0,0.0,0.0,0.0,0.0,0.0,0.0,0.0,0.0,0.0,0.0,0.0,0.0,0.0,0.0,0.0,0.0,0.0,0.0,0.0,0.0,0.0,0.0,0.0,0.0,0.0,0.0,0.0,0.0,0.0,0.0,0.0,0.0,0.0,0.0,0.0,0.0,0.0,0.0,0.0,0.0,0.0,0.0,0.0,0.0,0.0,0.0,0.0,0.0,0.0,0.0,0.0,0.0,0.0,0.0,0.0,0.0,0.0,0.0,0.0,0.0,0.0,0.0,0.0,0.0,0.0,0.0,0.0,0.0,0.0,0.0,0.0,0.0,0.0,0.0,0.0,0.0,0.0,0.0,0.0,0.0,0.0,0.0,0.0,0.0,0.0,0.0,0.0,0.0,0.0,0.0,0.0,0.0,0.0,0.0,0.0,0.0,0.0,0.0,0.0,0.0,0.0,0.0,0.0,0.0,0.0,0.0,0.0,0.0,0.0,0.0,0.0,0.0,0.0,0.0,0.0,0.0,0.0,0.0,0.0,0.0,0.0,0.0,0.0,0.0,0.0,0.0,0.0,0.0,0.0,0.0,0.0,0.0,0.0,0.0,0.0,0.0,0.0,0.0,0.0,0.0,0.0,0.0,0.0,0.0,0.0,0.0,0.0,0.0,0.0,0.0,0.0,0.0,0.0,0.0,0.0,0.0,0.0,0.0,0.0,0.0,0.0,0.0,0.0,0.0,0.0,0.0,0.0,0.0,0.0,0.0,0.0,0.0,0.0,0.0,0.0,0.0,0.0,0.0,0.0,0.0,0.0,0.0,0.0,0.0,0.0,0.0,0.0,0.0,0.0,0.0,0.0,0.0,0.0,0.0,0.0,0.0,0.0,0.0,0.0,0.0,0.0,0.0,0.0,0.0,0.0,0.0,0.0,0.0,0.0,0.0,0.0,0.0,0.0,0.0,0.0,0.0,0.0,0.0,0.0,0.0,0.0,0.0,0.0,0.0,0.0,0.0,0.0,0.0,0.0,0.0,0.0,0.0,0.0,0.0,0.0,0.0,0.0,0.0,0.0,0.0,0.0,0.0,0.0,0.0,0.0,0.0,0.0,0.0,0.0,0.0,0.0,0.0,0.0,0.0,0.0,0.0,0.0,0.0,0.0,0.0,0.0,0.0,0.0,0.0,0.0,0.0,0.0,0.0,0.0,0.0,0.0,0.0,0.0,0.0,0.0,0.0,0.0,0.0,0.0,0.0,0.0,0.0,0.0,0.0,0.0,0.0,0.0,0.0,0.0,0.0,0.0,0.0,0.0,0.0,0.0,0.0,0.0,0.0,0.0,0.0,0.0,0.0,0.0,0.0,0.0,0.0,0.0,0.0,0.0,0.0,0.0,0.0,0.0,0.0,0.0,0.0,0.0,0.0,0.0,0.0,0.0,0.0,0.0,0.0,0.0,0.0,0.0,0.0,0.0,0.0,0.0,0.0,0.0,0.0,0.0,0.0,0.0,0.0,0.0,0.0,0.0,0.0,0.0,0.0,0.0,0.0,0.0,0.0,0.0,0.0,0.0,0.0,0.0,0.0,0.0,0.0,0.0,0.0,0.0,0.0,0.0,0.0,0.0,0.0,0.0,0.0,0.0,0.0,0.0,0.0,0.0,0.0,0.0,0.0,0.0,0.0,0.0,0.0,0.0,0.0,0.0,0.0,0.0,0.0,0.0,0.0,0.0,0.0,0.0,0.0,0.0,0.0,0.0,0.0,0.0,0.0,0.0,0.0,0.0,0.0,0.0,0.0,0.0,0.0,0.0,0.0,0.0,0.0,0.0,0.0,0.0,0.0,0.0,0.0,0.0,0.0,0.0,0.0,0.0,0.0,0.0,0.0,0.0,0.0,0.0,0.0,0.0,0.0,0.0,0.0,0.0,0.0,0.0,0.0,0.0,0.0,0.0,0.0,0.0,0.0,0.0,0.0,0.0,0.0,0.0,0.0,0.0,0.0,0.0,0.0,0.0,0.0,0.0,0.0,0.0,0.0,0.0,0.0,0.0,0.0,0.0,0.0,0.0,0.0,0.0,0.0,0.0,0.0,0.0,0.0,0.0,0.0,0.0,0.0,0.0,0.0,0.0,0.0,0.0,0.0,0.0,0.0,0.0,0.0,0.0,0.0,0.0,0.0,0.0,0.0,0.0,0.0,0.0,0.0,0.0,0.0,0.0,0.0,0.0,0.0,0.0,0.0,0.0,0.0,0.0,0.0,0.0,0.0,0.0,0.0,0.0,0.0,0.0,0.0,0.0,0.0,0.0,0.0,0.0,0.0,0.0,0.0,0.0,0.0,0.0,0.0,0.0,0.0,0.0,0.0,0.0,0.0,0.0,0.0,0.0,0.0,0.0,0.0,0.0,0.0,0.0,0.0,0.0,0.0,0.0,0.0,0.0,0.0,0.0,0.0,0.0,0.0,0.0,0.0,0.0,0.0,0.0,0.0,0.0,0.0,0.0,0.0,0.0,0.0,0.0,0.0,0.0,0.0,0.0,0.0,0.0,0.0,0.0,0.0,0.0,0.0,0.0,0.0,0.0,0.0,0.0,0.0,0.0,0.0,0.0,0.0,0.0,0.0,0.0,0.0,0.0,0.0,0.0,0.0,0.0,0.0,0.0,0.0,0.0,0.0,0.0,0.0,0.0,0.0,0.0,0.0,0.0,0.0,0.0,0.0,0.0,0.0,0.0,0.0,0.0,0.0,0.0,0.0,0.0,0.0,0.0,0.0,-0.0664,-0.1977,0.0,0.0,0.0,0.0,0.0,0.0,0.0,0.0,0.0,0.0,0.0,0.0,0.0,0.0,0.0,0.0,0.0,0.0,0.0,0.0,0.0,0.0,0.0,0.1483,0.1327,0.1009,0.1082,0.0,0.0,0.0,0.0,0.0,0.0,0.0,0.0,0.0,0.3911,0.4323,0.5491,0.6627,0.7662,0.6669,0.4722,0.2016,0.0,0.0,0.0,0.0,0.0,0.0,0.0,0.0,0.0,0.0,0.0,0.0,0.0,0.0,0.0,0.0,0.0,0.0,0.0,0.0,0.0,0.0,0.0,0.0,0.0,0.0,0.0,0.0,0.0,0.0,0.0,0.0,0.0,0.0,0.0,0.0,0.0,0.0,0.0,0.0,0.0,0.0,0.0,0.0,0.0,0.0,0.0,0.0,0.0,0.0,0.0,0.0,0.0,0.0,0.0,0.0,0.0,0.0,0.0,0.0,0.0,0.0,0.0,0.0,0.0,0.0,0.0,0.0,0.0,0.0,0.1402,-0.0127,0.0,0.0,0.0,0.0,0.0,0.0,0.0,0.0,0.0,0.0,0.0,0.0,0.0,0.0,0.0,0.0,0.0,0.0,0.0,0.0,0.0,0.2336,0.2374,0.2205,0.2017,0.1823,0.1846,0.1762,0.1513,0.1444,0.0,0.0,0.0,0.0,0.2876,0.4095,0.5154,0.6016,0.8121,0.9915,1.1346,1.0904,0.8422,0.4284,0.2754,0.0,0.0,0.0,0.0,0.0,0.0,0.0,0.0,0.0,0.0,0.0,0.0,0.0,0.0,0.0,0.0,0.0,0.0,0.0,0.0,0.0,0.0,0.0,0.0,0.0,0.0,0.0,0.0,0.0,0.0,0.0,0.0,0.0,0.0,0.0,0.0,0.0,0.0,0.0,0.0,0.0,0.0,0.0,0.0,0.0,0.0,0.0,0.0,0.0,0.0,0.0,0.0,0.0,0.0,0.0,0.0,0.0,0.0,0.0,0.0,0.0,0.0,0.0,0.8946,0.7979,0.6836,0.6244,0.5648,0.4971,0.3433,0.1937,0.0527,-0.0363,0.0,0.0,0.0,0.0,0.0,0.0,0.0,0.0,0.0,0.0,0.0,0.0,0.0,0.0,0.0,0.0,0.0,0.0,0.0,0.3645,0.3883,0.3988,0.3975,0.3826,0.3267,0.2713,0.2286,0.203,0.0,0.0,0.0,0.3696,0.4812,0.5082,0.655,0.9276,1.1756,1.3178,1.356,1.2638,1.1459,1.0018,0.7734,0.5764,0.404,0.0,0.0,0.0,0.0,0.0,0.0,0.0,0.0,0.0,0.0,0.0,0.0,0.0,0.0,0.0,0.0,0.0,0.0,0.0,0.0,0.0,0.0,0.0,0.0,0.0,0.0,0.0,0.0,0.0,0.0,0.0,0.0,0.0,0.0,0.0,0.0,0.0,0.0,0.0,0.0,0.0,0.9399,0.6472,0.0,0.0,0.0,0.0,0.0,0.0,0.0,0.0,0.0,0.0,0.0,0.0,0.0,0.9979,1.052,1.0367,1.0481,1.0779,0.9519,0.8848,0.862,0.7342,0.6355,0.5665,0.5254,0.0,0.284,0.1402,0.0,0.0,0.0,0.0,0.0,0.0,0.0,0.0,0.0,0.0,0.0,0.0,0.0,0.0,0.0,0.0,0.0,0.0,0.0,0.0,0.0,0.6157,0.6703,0.6576,0.6512,0.608,0.5163,0.4466,0.0,0.0,0.4162,0.4843,0.5846,0.7605,1.0465,1.4457,1.5802,1.6885,1.7702,1.7248,1.6459,1.5283,1.3764,1.0847,0.6907,0.4704,0.0,0.0,0.0,0.0,0.0,0.0,0.0,0.0,0.0,0.0,0.0,0.0,0.0,0.0,0.0,0.0,0.0,0.0,0.0,0.0,0.0,0.0,0.0,0.0,0.0,0.0,0.0,0.0,0.0,0.0,0.0,0.0,0.0,0.0,0.0,0.0,0.0,0.0,0.0,1.0194,0.9863,0.8417,0.8324,0.8091,0.0,0.0,0.0,0.0,0.0,0.0,0.0,0.0,0.0,1.2659,1.2938,1.3572,1.4513,1.405,1.3681,1.3405,1.2184,1.1204,1.0455,0.8912,0.8008,0.7656,0.6586,0.577,0.5052,0.3161,0.2116,0.166,0.0,0.0,0.0,0.0,0.1119,0.1475,0.0,0.0,0.0,0.0,0.0,0.0,0.0,0.0,0.0,0.0,0.0,0.0,0.7617,0.8965,0.9816,0.9777,0.972,0.914,0.7867,0.6906,0.6004,0.5125,0.5446,0.6029,0.681,1.0683,1.4777,1.905,1.9499,2.0239,2.1192,2.0803,2.007,1.9084,1.8362,1.5186,1.0212,0.7738,0.5957,0.4579,0.0,0.0,0.0,0.0,0.0,0.0,0.0,0.0,0.0,0.0,0.0,0.0,0.0,0.0,0.0,0.0,0.0,0.0,0.0,0.0,0.0,0.0,0.0,0.0,0.0,0.0,0.0,0.0,0.0,0.0,0.0,0.0,0.0,0.0,0.0,0.0,0.0,1.0797,1.1121,1.0498,1.0717,1.0662,0.0,0.0,0.0,0.0,0.0,0.0,1.3259,1.4175,1.5012,1.5708,1.5927,1.6537,1.7594,1.6824,1.6123,1.5515,1.4088,1.2905,1.1913,1.0321,0.9518,0.9254,0.7946,0.7186,0.6714,0.4914,0.382,0.322,0.2752,0.2803,0.3144,0.2888,0.308,0.3592,0.0,0.0,0.0,0.0,0.0,0.0,0.0,0.0,0.0,0.0,0.0,1.0614,1.1758,1.2639,1.3269,1.3504,1.214,1.0728,0.9473,0.8688,0.7702,0.6462,0.672,0.7256,0.7993,1.4087,1.8791,2.1903,2.2506,2.2822,2.285,2.1318,2.0547,2.047,1.999,1.7871,1.4535,1.2246,1.0231,0.8344,0.5148,0.0,0.0,0.0,0.0,0.0,0.0,0.0,0.0,0.0,0.0,0.0,0.0,0.0,0.0,0.0,0.0,0.0,0.0,0.0,0.0,0.0,0.0,0.0,0.0,0.0,0.0,0.0,0.0,0.0,0.0,0.0,0.0,0.0,0.0,0.0,0.0,0.0,0.0,1.2674,1.3193,0.0,0.0,0.0,0.0,1.4037,1.4713,1.5139,1.5165,1.624,1.6875,1.6924,1.7281,1.7522,1.7605,1.6688,1.6204,1.6131,1.3893,1.2813,1.2711,1.1334,1.033,0.9677,0.9585,0.8795,0.7482,0.6613,0.6217,0.6187,0.6016,0.59,0.5815,0.5942,0.6062,0.6234,0.0,0.0,0.0,0.0805,0.1398,0.2352,0.4034,0.5131,0.6166,0.7304,1.0487,1.2824,1.3245,1.5811,1.7573,1.7652,1.6375,1.5311,1.4634,1.1916,1.0449,1.0675,0.9424,1.0848,1.5348,1.914,2.2496,2.538,2.5217,2.5122,2.5094,2.4012,2.3195,2.264,2.2335,2.1631,2.0412,1.635,1.4043,1.2817,0.963,0.6573,0.0,0.0,0.0,0.0,0.0,0.0,0.0,0.0,0.0,0.0,0.0,0.0,0.0,0.0,0.0,0.0,0.0,0.0,0.0,0.0,0.0,0.0,0.0,0.0,0.0,0.0,0.0,0.0,0.0,0.0,0.0,0.0,0.0,0.0,0.0,0.0,0.0,1.5615,1.6329,0.0,1.5938,1.5567,1.5444,1.5644,1.6565,1.7104,1.7104,1.817,1.8792,1.8792,1.8948,1.9018,1.9018,1.8215,1.7503,1.6899,1.5598,1.4642,1.3982,1.2667,1.1951,1.1653,1.0772,1.012,0.9644,0.9362,0.841,0.7211,0.7642,0.7772,0.7747,0.7887,0.7682,0.7384,0.0,0.0,0.0,0.0619,0.1467,0.2686,0.4532,0.5928,0.7515,0.9585,1.3009,1.5685,1.681,1.9296,2.0887,2.0887,1.9605,1.8354,1.7312,1.4592,1.3019,1.304,1.2496,1.5202,2.158,2.3354,2.5686,2.867,2.8036,2.7717,2.7706,2.668,2.5757,2.4905,2.4829,2.4841,2.4706,2.1414,1.9117,1.7399,1.4193,1.0785,0.7451,0.0,0.0,0.0,0.0,0.0,0.0,0.0,0.0,0.0,0.0,0.0,0.0,0.0,0.0,0.0,0.0,0.0,0.0,0.0,0.0,0.0,0.0,0.0,0.0,0.0,0.0,0.0,0.0,0.0,0.0,0.0,0.0,0.0,0.0,0.0,1.7016,1.7217,1.7993,1.8433,1.818,1.7608,1.7451,1.7856,1.8382,1.8664,1.8664,1.9393,1.9901,2.0131,1.9927,1.9901,2.0131,1.9238,1.8406,1.7581,1.6699,1.5829,1.4971,1.3914,1.3443,1.3372,1.2288,1.1672,1.1474,1.15,1.0646,0.9368,0.9383,0.9416,0.9412,0.9523,0.9187,0.8722,0.0,0.0,0.0151,0.0619,0.1758,0.3188,0.4931,0.6727,0.9379,1.3559,1.634,1.9226,2.2564,2.3063,2.3136,2.3106,2.162,1.9682,1.7319,1.6581,1.5356,1.3386,1.5979,2.0225,2.6094,2.6629,2.8438,3.1685,3.0954,3.0585,3.056,2.9146,2.8011,2.7191,2.7315,2.7301,2.7208,2.7338,2.5466,2.2157,1.8804,1.5242,1.1687,0.0,0.0,0.0,0.0,0.0,0.0,0.0,0.0,0.0,0.0,0.0,0.0,0.0,0.0,0.0,0.0,0.0,0.0,0.0,0.0,0.0,0.0,0.0,0.0,0.0,0.0,0.0,0.0,0.0,0.0,0.0,0.0,0.0,1.4914,1.6424,1.7649,1.7482,1.8209,1.9085,1.9996,1.9474,1.9569,2.0731,2.022,1.985,1.985,1.985,2.0144,2.0771,2.0207,2.0144,2.0771,1.962,1.8769,1.8204,1.7011,1.6179,1.561,1.4994,1.4721,1.4698,1.4097,1.3464,1.2846,1.2924,1.2929,1.2725,1.1408,1.0914,1.0914,1.0914,1.0681,1.0419,-0.0521,-0.0319,0.0151,0.0619,0.1758,0.3188,0.4931,0.6649,0.9281,1.3544,1.7088,2.0364,2.3455,2.5209,2.6005,2.559,2.3566,2.1927,2.0977,1.8416,1.7215,1.7925,2.2619,2.6443,2.9085,3.0999,3.262,3.3994,3.3014,3.2541,3.2475,3.0629,2.9666,2.9371,2.8808,2.8872,2.9425,2.924,2.8804,2.7908,2.4297,2.0886,1.7684,0.0,0.0,0.0,0.0,0.0,0.0,0.0,0.0,0.0,0.0,0.0,0.0,0.0,0.0,0.0,0.0,0.0,0.0,0.0,0.0,0.0,0.0,0.0,0.0,0.0,0.0,0.0,0.0,0.0,0.0,0.0,0.0,1.9416,1.797,1.938,2.0705,2.1111,2.1354,2.1588,2.185,2.1307,2.1093,2.1435,2.128,2.1183,2.1183,2.1183,2.1051,2.0795,2.1051,2.083,2.008,2.0229,1.96,1.8204,1.7864,1.721,1.6238,1.5644,1.5343,1.532,1.471,1.4352,1.4179,1.419,1.419,1.4099,1.3287,1.3239,1.3632,1.3632,1.2977,1.2118,-0.0555,-0.0319,0.0151,0.0619,0.1758,0.3127,0.4708,0.6512,0.9624,1.4988,1.8054,2.1433,2.5851,2.6976,2.7274,2.6909,2.46,2.2817,2.1997,2.0095,2.051,2.3887,2.7332,3.0283,3.263,3.4086,3.5168,3.5864,3.525,3.4938,3.4898,3.3406,3.2431,3.1847,3.1127,3.1084,3.1519,3.1008,3.1308,3.1872,2.8942,2.5581,2.2117,2.0342,1.7969,1.5422,1.4155,1.303,1.1927,1.0449,0.0,0.0,0.0,0.0,0.0,0.0,0.0,0.0,0.0,0.0,0.0,0.0,0.0,0.0,0.0,0.0,0.0,0.0,0.0,0.0,0.0,0.0,0.0,0.0,2.0265,2.115,2.0627,2.1203,2.1835,2.2183,2.2225,2.2322,2.2614,2.2074,2.1828,2.21,2.1852,2.1697,2.1697,2.1697,2.1663,2.1609,2.1663,2.1472,2.1015,2.0885,2.0154,1.8907,1.8627,1.8026,1.7146,1.6815,1.6655,1.6591,1.5772,1.5408,1.5376,1.4903,1.4858,1.5017,0.0,0.0,0.0,0.0,1.3995,1.3561,-0.0543,-0.0287,0.0168,0.0674,0.175,0.3001,0.4391,0.6275,1.0057,1.7089,1.9061,2.2245,2.8701,2.8331,2.756,2.7435,2.5077,2.3066,2.1867,2.2201,2.4782,2.9992,3.0802,3.2729,3.6131,3.6274,3.6666,3.7377,3.736,3.7342,3.7323,3.6538,3.551,3.4346,3.3697,3.3478,3.3491,3.2679,3.3161,3.4371,3.2707,2.9551,2.5648,2.4288,2.2052,1.9523,1.8174,1.6892,1.5714,1.4723,0.0,0.0,0.0,0.0,0.0,0.0,0.0,0.0,0.0,0.0,0.0,0.0,0.0,0.0,0.0,0.0,0.0,0.0,0.0,0.0,0.0,0.0,0.0,0.0,2.1334,2.2367,2.281,2.2331,2.1908,2.1908,2.1908,2.2146,2.274,2.2262,2.2179,2.2838,2.2285,2.1932,2.1988,0.0,0.0,0.0,0.0,2.2156,2.268,2.1487,2.0559,1.9887,1.923,1.8625,1.8106,1.8106,1.8106,1.8033,1.7032,1.6591,1.6506,1.5497,1.5398,1.5818,1.5163,1.4903,1.4835,1.4228,1.4355,1.471,-0.0126,-0.0069,0.0255,0.1046,0.1697,0.2675,0.4338,0.5725,0.9476,1.7566,1.9363,2.2298,2.8707,2.9164,2.8615,2.7655,2.5855,2.4755,2.4692,2.6943,2.9437,3.2032,3.4331,3.6167,3.7503,3.7965,3.8253,3.8417,3.8237,3.8164,3.8129,3.7041,3.6359,3.6053,3.4716,3.444,3.4974,3.4534,3.4624,3.5114,3.4905,3.2943,2.9923,2.8376,2.7216,2.6259,2.4916,2.382,2.263,2.0172,1.8163,1.6359,1.4212,1.1907,0.0,0.0,0.0,0.0,0.0,0.0,0.0,0.0,0.0,0.0,0.0,0.0,0.0,0.0,0.0,0.0,0.0,0.0,0.0,2.2319,2.3288,2.3948,2.4065,2.3593,2.3238,2.3238,2.3238,2.3282,2.3406,2.3319,2.3463,2.4038,2.355,2.342,2.3846,2.347,2.3267,2.3332,2.3267,2.3017,2.2536,2.1863,2.098,1.9887,1.923,0.0,1.8106,1.8106,1.8106,1.8086,1.7874,1.776,1.776,1.7525,1.7504,1.7518,1.6536,1.6151,1.6129,1.5996,1.572,1.541,0.0,0.0,0.022,0.0882,0.1616,0.2478,0.3576,0.4806,0.7988,1.4637,1.5939,1.8345,2.3888,2.4462,2.4186,2.3541,2.3769,2.4742,2.6623,2.924,3.2083,3.5177,3.6622,3.7659,3.8281,3.8562,3.8777,3.8894,3.8802,3.8846,3.8992,3.8387,3.7958,3.7651,3.64,3.6093,3.6453,3.5644,3.5815,3.6557,3.6134,3.5178,3.3804,3.1448,3.0166,2.9365,2.7514,2.6578,2.5883,2.3769,2.1945,2.023,1.831,1.6236,1.4154,0.0,0.0,0.0,0.0,0.0,0.0,0.0,0.0,0.0,0.0,0.0,0.0,0.0,0.0,2.0567,0.0,0.0,2.3089,2.3578,2.4306,2.4796,2.4796,2.4572,2.4204,2.3659,2.3595,2.3702,2.397,2.3991,2.4116,2.4369,2.441,2.441,2.441,2.441,2.4394,2.4348,2.4394,2.4096,2.3467,2.2743,2.1864,2.0779,2.0002,1.9342,1.8893,1.8893,1.8893,1.8893,1.8612,1.8496,1.8477,1.8224,1.8106,1.8046,1.7504,1.7312,1.7271,1.6993,1.6706,1.6403,0.0,0.0,0.0141,0.0615,0.147,0.2272,0.2809,0.3969,0.6495,1.1325,1.2178,1.4082,1.867,1.9221,1.9287,1.9406,2.1954,2.4928,2.8139,3.1008,3.4286,3.8078,3.8163,3.8331,3.8773,3.8792,3.8865,3.9112,3.9225,3.9443,3.9721,3.9721,3.9509,3.9055,3.8153,3.7758,3.7713,3.6676,3.6876,3.7819,3.7074,3.6821,3.6626,3.3799,3.2132,3.1024,2.8762,2.7795,2.7346,2.6191,2.4721,2.3192,2.1982,2.0494,1.8608,1.5696,1.5132,0.0,0.0,0.0,0.0,0.0,0.0,0.0,0.0,0.0,2.1933,2.3544,2.3762,2.3637,2.3552,2.3992,2.438,2.447,2.4961,2.5354,2.5354,2.5278,2.4875,2.4012,2.3921,2.4074,2.4496,2.4552,2.4612,2.4697,2.5012,2.5067,2.4732,2.5028,2.5259,2.5354,2.5259,2.5047,2.4697,2.3787,2.2849,2.1963,2.1067,2.0402,1.9945,1.9945,1.9945,1.9927,1.9503,1.931,1.9255,1.8641,1.8449,1.8507,1.8327,1.8322,1.8341,1.7686,1.7463,1.7394,0.0,0.0,0.0153,0.0629,0.1226,0.195,0.2773,0.3675,0.5917,1.0455,1.1282,1.3012,1.7118,1.8022,1.8645,1.9412,2.3632,2.7218,2.9442,3.3908,3.7348,3.9326,3.912,3.8992,3.9044,3.9063,3.9058,3.9112,3.9709,4.0053,4.0129,4.0129,4.0158,4.0191,3.9356,3.8787,3.8391,3.8252,3.8083,3.7928,3.8298,3.8031,3.7214,3.5309,3.3862,3.2593,3.0684,2.9125,2.7946,2.7358,2.6159,2.4875,2.4872,2.3689,2.2087,2.1062,1.8989,1.6811,1.5731,0.0,0.0,1.934,2.0961,2.2553,0.0,0.0,2.4426,2.5064,2.4657,2.4333,2.4723,2.4875,2.5027,2.5396,2.571,2.5906,2.5906,2.5503,2.5163,2.5047,2.5028,2.5031,2.5089,2.5125,2.5316,2.5797,2.5446,2.5373,2.5797,2.543,2.5411,2.5888,2.5449,2.5392,2.5815,2.4654,2.3692,2.2943,2.2235,2.1533,2.0845,2.0845,2.0845,2.0845,2.0781,2.0764,2.0699,1.9801,1.9692,1.9971,1.9126,1.9114,1.9406,1.838,1.8007,1.8007,0.0,0.0,0.0067,0.0263,0.0794,0.1439,0.2151,0.2868,0.4311,0.7046,0.7506,0.8342,1.0323,1.1892,1.3618,1.5658,2.1244,2.5817,2.8516,3.3814,3.7548,3.9073,3.9102,3.9186,3.9396,3.9199,3.9289,3.9679,3.9986,4.0273,4.0481,4.0495,4.0423,4.0265,3.9885,3.9508,3.9122,3.8933,3.8851,3.8878,3.8755,3.8309,3.7521,3.5616,3.4075,3.2566,2.9955,2.8622,0.0,2.7047,2.6023,2.5208,2.584,2.47,2.3036,2.2466,2.1111,1.997,2.0754,0.0,0.0,0.0,2.5155,2.6354,2.7327,2.7758,2.8135,2.8768,2.8424,2.7809,2.7164,2.6809,2.6538,0.0,2.6337,2.6401,2.6401,2.621,2.607,2.607,2.607,2.5962,2.5689,2.567,2.5744,2.5979,2.605,2.6052,2.5997,2.605,2.6192,2.6401,2.6192,2.605,2.6013,2.534,2.4374,2.3085,2.267,2.194,2.0991,2.0991,2.0991,2.0991,2.0991,2.0991,2.0959,2.0584,2.0517,2.0713,2.0752,2.0905,2.0891,1.9201,1.8814,1.9101,0.0,0.0,0.0045,0.0225,0.0605,0.1096,0.1719,0.2453,0.3331,0.4393,0.455,0.4861,0.571,0.746,0.974,1.2636,1.8473,2.3576,2.7359,3.2761,3.6748,3.8858,3.9135,3.9389,3.9731,3.9505,3.9611,4.0101,4.003,4.0237,4.0684,4.0403,4.0254,4.025,4.0191,3.9987,3.9648,3.9489,3.9481,3.9534,3.8776,3.8177,3.7475,3.5177,3.3336,3.1599,2.8955,2.7649,2.697,2.5677,2.4847,2.4489,2.5109,2.4519,2.3556,2.3007,2.2333,2.22,2.3971,0.0,0.0,2.7292,2.8663,2.969,3.0267,3.0654,3.106,3.1576,3.1179,3.03,2.9033,2.8254,2.7553,2.6826,2.6691,2.6691,2.6691,2.659,2.6539,2.6691,2.659,2.6419,2.6209,2.6191,2.6191,2.6191,2.6505,2.6539,2.6209,2.6521,2.6691,2.6691,2.6691,2.6539,2.6209,2.6,2.5096,2.3484,2.3291,2.2549,2.1354,2.1354,2.1354,2.1354,2.1354,2.1467,2.1662,2.152,2.1585,2.1827,2.2244,2.2387,2.2222,2.0655,2.0382,2.0737,0.0,0.0,0.018,0.0761,0.0895,0.1096,0.1719,0.2812,0.3581,0.3629,0.3629,0.4272,0.5919,0.7077,0.8922,1.1884,1.6311,2.1173,2.649,3.1069,3.5302,3.9127,3.9476,3.9742,4.0081,4.0081,4.0081,4.0101,3.9651,3.9854,4.068,3.9645,3.9585,4.0397,4.0383,4.0176,3.9815,4.0052,3.9951,3.95,3.8384,3.7678,3.6986,3.4005,3.1603,2.9622,2.8287,2.6514,2.4585,2.3112,2.2606,2.2537,2.2322,2.3162,2.412,2.339,2.2758,2.26,2.4013,0.0,2.7487,2.9128,3.0964,3.2378,3.2413,3.243,3.243,3.2465,3.1531,3.0473,2.971,2.8596,2.7553,2.6826,2.6691,2.6691,2.6691,2.6314,2.6191,2.6641,2.6297,2.6175,0.0,2.6674,2.6674,2.6674,2.6691,2.6691,2.6674,2.6691,2.6691,2.6691,2.6691,2.6691,2.6674,2.6674,2.593,2.446,2.4458,2.3682,2.2268,2.2268,2.2268,2.2268,2.2268,2.2673,2.3283,2.2838,2.311,2.377,2.3349,2.3177,2.316,2.3093,2.3075,2.3021,0.0,0.0,0.0212,0.0919,0.1357,0.1865,0.2564,0.2866,0.3148,0.3556,0.3604,0.0,0.0,0.0,0.0,0.0,1.5059,1.9453,2.3054,2.8953,3.3381,3.5816,3.7891,3.9345,4.0081,3.9891,4.0015,4.0501,4.0375,4.0477,4.0758,4.0207,3.9975,4.0008,4.0188,4.0038,3.9681,3.9857,3.9622,3.9017,3.7701,3.6316,3.4785,3.2384,2.99,2.7411,0.0,2.3696,2.2895,2.1522,2.1367,2.194,2.2917,2.2958,2.2587,2.234,2.3456,2.4997,2.6154,2.8009,3.0066,3.1819,3.2806,3.3397,3.3593,3.3492,3.3198,3.269,3.1824,3.0783,2.9497,2.8455,2.7553,2.6826,2.6691,2.6691,2.6691,2.6556,2.6505,2.6674,2.6573,0.0,0.0,0.0,0.0,2.6691,2.6691,2.6691,2.6691,2.6938,2.7099,2.7099,2.7365,2.7502,2.7502,2.7502,2.6993,2.6009,2.4947,2.3885,2.2895,2.2895,2.3187,2.3689,2.3689,2.4139,2.4847,2.4687,2.4788,2.5073,2.5429,2.5592,2.5643,2.6143,2.6333,2.6062,0.0,0.0,0.0295,0.1254,0.1737,0.0,0.0,0.0,0.0,0.0,0.0,0.0,0.0,0.0,0.0,0.0,0.0,1.6329,1.9736,2.4913,2.8941,3.1444,3.3849,3.5404,3.6014,3.5461,3.5529,3.6269,3.7027,3.7654,3.8144,3.9099,3.9531,3.9505,3.9421,3.9339,3.9211,3.8792,3.8159,3.7281,3.5504,3.3659,3.1685,2.9453,2.6975,0.0,2.2015,2.1119,2.087,1.9488,1.986,2.1022,2.1633,2.1908,2.2152,2.2901,2.4567,2.6566,2.8497,3.0103,3.1659,3.3525,3.4068,3.4148,3.4195,3.3846,3.3318,3.2569,3.1438,3.0231,2.9087,2.7868,2.6928,2.6725,2.6471,2.6488,2.7029,2.696,2.6925,2.708,2.696,2.6807,0.0,0.0,0.0,2.6691,2.6691,2.6691,2.6691,2.7083,2.7303,2.7303,2.7678,2.7897,2.7897,2.7897,2.738,2.6331,2.5298,2.4412,2.3643,2.3921,2.4341,2.4832,2.4832,2.5288,2.6016,2.6016,2.6175,2.6464,2.6986,2.7199,2.7252,2.7734,2.7897,2.7619,0.0097,0.0074,0.0482,0.0,0.0,0.0,0.0,0.0,0.0,0.0,0.0,0.0,0.0,0.0,0.0,0.0,0.0,0.0,1.6658,1.9389,2.2528,2.6333,2.7821,2.8551,2.8545,2.7582,2.742,2.8129,2.9993,3.1578,3.2871,3.5861,3.7591,3.8165,3.7471,3.7411,3.7726,3.6376,3.5162,3.3937,3.1619,2.9618,2.7747,2.5356,2.3084,2.1032,1.9684,1.9121,1.876,1.7279,0.0,0.0,0.0,0.0,2.3058,2.5085,2.6144,2.7435,3.0881,3.187,3.2393,3.4257,3.4704,3.4622,3.43,3.3604,3.2839,3.2128,3.0449,2.8921,0.0,0.0,2.5896,2.659,2.6184,2.6252,2.7655,2.7482,2.7372,0.0,0.0,0.0,0.0,0.0,0.0,2.6826,0.0,2.6725,2.6725,2.7131,2.7348,2.7348,2.7754,2.7986,2.8007,2.8056,2.7276,2.5683,2.5748,2.5333,2.455,2.5285,2.5679,2.5727,2.5727,2.6195,2.6948,2.6948,2.7361,2.7992,2.7992,2.7992,2.7992,2.7978,2.7982,2.7848,0.0,0.0,0.0,0.0,0.0,0.0,0.0,0.0,0.0,0.0,0.0,0.0,0.0,0.0,0.0,0.0,0.0,0.0,1.351,1.7556,2.0665,2.2467,2.5152,2.658,2.6464,2.5824,2.5543,2.5702,2.5766,2.5951,2.6308,2.6912,2.723,2.7296,2.7203,2.719,2.716,2.6665,2.5886,2.4958,2.4147,2.3478,2.2915,2.2418,2.1849,2.1295,2.0841,2.0429,1.9878,0.0,0.0,0.0,0.0,2.5282,2.6689,0.0,0.0,3.0668,3.1737,3.2963,3.4117,3.4821,3.486,3.4674,3.4582,3.3983,3.2924,3.1058,2.959,2.8157,0.0,0.0,0.0,2.6657,2.752,0.0,2.8636,2.8579,0.0,2.8687,0.0,2.8605,2.8835,2.8318,0.0,0.0,2.7662,2.7147,2.7147,2.7776,2.8125,2.8125,2.8502,2.9004,2.9617,3.0212,2.9702,2.8106,2.8118,2.7389,2.606,2.626,2.6757,2.7458,2.7458,2.8024,2.8965,2.8965,2.9077,2.9243,2.9243,2.9243,2.9223,2.9067,2.9027,2.89,0.0,0.0,0.0,0.0,0.0,0.0,0.0,0.0,0.0,0.0,0.0,0.0,0.0,0.0,0.0,0.0,0.0,0.0,0.0,1.4315,1.6443,1.7449,1.9575,2.0447,1.9822,1.9088,1.8809,1.9013,1.9604,2.0248,2.0894,2.2019,2.2542,2.2525,2.1998,2.1835,2.1914,2.08,1.9937,0.0,0.0,1.8398,1.861,1.9092,1.9703,2.0353,2.0743,2.1433,2.22,0.0,0.0,2.5216,2.6784,2.7736,2.8525,2.9759,0.0,3.2151,3.3157,3.4131,3.4944,3.5207,3.5079,3.4671,3.3903,3.2978,3.1659,2.9475,2.7898,0.0,2.5681,0.0,0.0,0.0,0.0,0.0,2.9417,2.9813,2.9972,0.0,2.992,0.0,2.9919,2.9499,2.9347,0.0,2.8355,2.756,2.756,2.8098,2.8551,2.8925,2.9314,2.9916,3.0723,3.1176,3.076,2.9519,2.9657,2.9041,2.7832,2.7917,2.8259,2.8802,2.8802,2.9138,2.9705,2.9705,2.9705,2.9705,2.9705,2.9705,2.9687,2.957,2.9542,2.9475,0.0,0.0,0.0,0.0,0.0,0.0,0.0,0.0,0.0,0.0899,0.0319,0.0183,0.0,0.0,0.0,0.0,0.0,0.0,0.0,0.0,1.1876,1.2631,1.3444,1.3284,1.1999,1.1039,1.0704,1.0986,1.2814,1.4331,1.5553,1.8081,1.9317,1.9382,1.8142,1.7856,1.8167,1.6086,1.498,1.4572,1.3551,1.368,1.4616,0.0,1.7372,1.907,2.0391,2.238,2.4768,2.7218,2.7494,2.7078,2.8631,2.9265,2.9784,3.1593,3.2299,3.2874,3.4625,3.5122,3.5207,3.5439,3.5297,3.4639,3.2863,3.1535,3.0052,2.7842,0.0,2.504,2.524,2.5158,2.5565,2.7043,0.0,2.9106,3.0267,3.1062,3.1394,3.0993,3.1296,3.1322,3.0742,3.0597,3.0558,3.06,2.9201,2.834,2.8298,2.8505,2.9008,2.9812,3.0282,3.0852,3.1562,3.1672,3.1336,3.0575,3.0698,3.0354,2.9603,2.9663,2.9703,2.9748,2.9748,2.9765,2.9799,2.9804,2.9802,2.9802,2.9815,2.9823,2.9823,2.9791,2.9783,2.9775,0.0,0.0,0.0,0.0,0.0,0.0,0.0,0.0,0.0,0.0,0.0074,0.0,0.0,0.0,0.0,0.0,0.0,0.0,0.0,0.0,0.0,1.1339,1.2254,1.1978,1.0277,0.9639,0.882,0.7809,0.7945,0.7889,0.7677,0.8286,0.8417,0.8116,0.7749,0.772,0.7822,0.67,0.619,0.6146,0.6435,0.8,1.0497,1.3416,0.0,0.0,2.1804,2.3661,2.5279,2.7911,2.908,2.9783,3.1753,3.2566,3.2912,3.3577,3.4162,3.4663,3.5011,3.5254,3.5439,3.5493,3.5297,3.4605,3.2691,3.1651,0.0,0.0,2.6033,2.51,2.419,2.478,2.593,2.7518,0.0,0.0,0.0,0.0,3.2272,0.0,0.0,0.0,0.0,3.2103,0.0,0.0,3.1329,3.0665,3.04,3.0077,3.0253,3.1052,3.1799,3.2252,3.2381,3.3054,3.3086,3.2511,3.1894,3.1298,3.0696,3.0017,2.9788,2.9954,2.9954,3.0061,3.0273,3.0332,3.036,3.0375,3.0415,3.0451,3.042,3.0265,3.0205,3.015,0.0,0.0,0.0,0.0,0.0,0.0,0.0,0.2932,0.1629,0.0271,-0.0295,-0.0734,-0.1185,0.0296,0.2086,0.0,0.0,0.0,0.0,0.0,0.0,1.0649,0.0,0.0,0.9004,0.8707,0.8057,0.7006,0.0,0.6017,0.6142,0.5232,0.4783,0.4707,0.4257,0.4138,0.4185,0.3171,0.2974,0.3318,0.3295,0.5189,0.8326,0.0,0.0,0.0,0.0,2.3028,2.452,2.6509,2.8537,3.0604,3.281,3.3697,3.3975,3.4349,3.4765,3.513,3.5273,3.5391,3.5479,3.5339,3.4905,3.3853,3.1223,0.0,0.0,0.0,2.5016,2.4653,2.4062,0.0,0.0,2.672,2.8891,0.0,0.0,0.0,0.0,0.0,0.0,0.0,0.0,3.3162,3.3013,3.3206,3.2485,3.1779,3.1185,3.1333,3.1641,3.2008,3.2939,3.342,3.342,3.3992,3.4143,3.3875,3.3173,3.2467,3.1756,3.1062,3.0565,3.0262,3.0262,3.0344,3.0507,3.0541,3.0544,3.0567,3.0587,3.0603,3.06,3.048,3.0462,3.0432,0.0,0.0,0.0,0.0,0.0,0.0,0.0,0.3266,0.1731,0.0376,-0.0747,-0.1725,-0.2594,-0.0687,0.1315,0.0,0.0,0.0,0.0,0.0,0.0,0.0,0.0,0.0,0.0,0.0,0.0,0.0,0.5917,0.0,0.0,0.0,0.0,0.0,0.3416,0.3152,0.3097,0.2082,0.1895,0.0,0.0,0.3569,0.0,0.0,0.0,0.0,0.0,2.1119,2.2557,2.4301,2.6697,2.9414,3.1709,3.3043,3.3803,3.4067,3.4385,3.4764,3.5343,3.5453,3.5369,3.5147,3.4502,3.3045,2.9758,2.8608,0.0,0.0,2.3963,2.4103,2.418,0.0,2.5648,0.0,2.8211,3.0021,0.0,0.0,0.0,0.0,0.0,0.0,0.0,3.3807,0.0,3.3807,3.3267,3.258,3.1709,3.2476,3.2937,3.2937,3.3843,3.4311,3.4311,3.4561,3.4724,3.4784,3.4124,3.3486,3.2862,3.2071,3.1384,3.0793,3.0595,3.054,3.0606,3.0623,3.0628,3.0611,3.0643,3.067,3.067,3.067,3.067,3.0667,0.0,0.0,0.0,0.0,0.0,0.0,0.0,0.3273,0.1718,0.0377,-0.1313,-0.2854,-0.4147,-0.177,0.0653,0.0,0.0,0.0,0.0,0.0,0.0,0.0,0.0,0.0,0.0,0.0,0.0,0.5627,0.608,0.0,0.0,0.0,0.0,0.0,0.0,0.3089,0.2703,0.2063,0.0,0.0,0.0,0.0,0.0,0.0,0.0,0.0,0.0,1.7809,0.0,0.0,0.0,2.5148,2.7321,2.9972,3.2306,3.2402,0.0,0.0,3.5051,3.5312,3.513,3.5105,3.4355,3.2713,2.918,0.0,0.0,2.3833,2.3472,2.3837,2.4151,2.4289,2.4837,2.6303,2.6797,2.7995,3.0875,0.0,0.0,0.0,0.0,0.0,0.0,3.3807,3.3807,3.3807,3.3963,3.3605,3.2553,3.3475,3.4059,3.4059,3.443,3.4653,3.4653,3.4684,3.4813,3.5051,3.42,3.3923,3.4084,3.2508,3.179,3.1731,3.0927,3.0597,3.0609,3.0671,3.0689,3.0693,3.0815,3.0878,3.0878,3.0878,3.0878,3.0857,0.0,0.0,0.0,0.0,0.0,0.0,0.4667,0.3283,0.1698,0.0268,-0.1433,-0.286,-0.3848,-0.2527,-0.0771,0.1223,0.0,0.0,0.0,0.0,0.0,0.0,0.0,0.0,0.0,0.0,0.8525,0.6944,0.6406,0.0,0.0,0.0,0.0,0.0,0.0,0.3304,0.2776,0.2083,0.0,0.0,0.0,0.0,0.0,0.0,0.0,0.0,0.0,0.0,1.5957,0.0,0.0,0.0,2.2824,2.5131,0.0,0.0,3.2272,3.325,3.4825,3.519,3.4997,3.4543,3.2717,3.0276,2.7532,0.0,2.3899,2.2051,2.2141,2.2707,2.3159,2.3424,2.3815,2.4455,2.5552,2.6754,2.8033,0.0,0.0,0.0,0.0,0.0,0.0,0.0,3.3881,3.4031,3.4147,3.4093,3.3881,3.4274,3.4508,3.4508,3.4793,3.4959,3.4999,3.5162,3.5316,3.5452,3.511,3.4764,3.4408,3.3728,3.2885,3.1939,3.1586,3.1191,3.0783,3.0813,3.0816,3.0836,3.0879,3.0898,3.0898,3.0898,3.0898,3.0898,0.0,0.0,0.0,0.0,0.0,0.4542,0.4667,0.3273,0.1752,0.0538,-0.1104,-0.242,-0.3116,-0.2556,-0.1462,0.0271,0.277,0.0,0.0,0.0,0.0,0.0,0.0,0.0,0.0,0.0,0.9252,0.8019,0.6784,0.6042,0.0,0.0,0.0,0.0,0.0,0.0,0.0,0.0,0.0,0.0,0.0,0.0,0.0,0.0,0.0,0.0,0.0,0.0,0.0,0.0,0.0,0.0,1.8847,2.0639,2.3584,0.0,3.0782,3.2183,3.3873,3.449,3.4501,3.3789,3.1265,2.832,0.0,0.0,2.136,2.0224,2.051,2.1201,2.2007,2.2384,2.2683,2.298,2.4171,2.5315,2.5996,2.7293,0.0,0.0,0.0,3.1391,0.0,3.3691,3.4012,3.4195,3.4392,3.4592,3.484,3.4944,3.4952,3.485,3.5128,3.5303,3.535,3.5543,3.565,3.5707,3.5707,3.5428,3.4909,3.4656,3.3891,3.2761,3.224,3.1736,3.1269,3.0932,3.0814,3.0837,3.0812,3.0814,3.0838,3.0838,3.0878,3.0898,0.0,0.0,0.0,0.0,0.0,0.0,0.4667,0.328,0.1989,0.1371,-0.0241,-0.155,-0.2147,-0.1672,-0.0967,-0.0058,0.1781,0.0,0.0,0.0,0.0,0.0,0.0,0.0,0.0,0.0,0.9559,0.8297,0.7145,0.6149,0.5276,0.381,0.3436,0.3969,0.0,0.0,0.0,0.0,0.0,0.0,0.0,0.0,0.0,0.0,0.0,0.0,0.0,0.0,0.0,0.0,0.0,0.0,0.0,1.7008,1.9311,2.4674,2.7677,2.972,3.1941,3.3066,3.3464,3.2864,3.045,2.7389,0.0,0.0,2.026,1.8646,1.8703,1.9463,2.0862,2.1119,2.1444,2.2444,2.2629,2.344,2.5757,2.6121,0.0,0.0,0.0,2.9647,3.1268,3.3111,3.4188,3.42,3.4805,0.0,3.5192,3.5504,3.5547,3.5206,3.5509,3.568,3.5684,3.5703,3.5703,3.5707,3.5707,3.5766,3.5862,3.4983,3.4633,3.457,3.2781,3.206,3.2109,3.1034,3.065,3.0692,3.0636,3.0631,3.0696,3.0696,3.0792,3.0898,0.0,0.0,0.0,0.0,0.0,0.0,0.0,0.2889,0.174,0.0437,-0.065,-0.1377,-0.1575,-0.1428,-0.0948,-0.0091,0.1028,0.0,0.0,0.0,0.0,0.0,0.0,0.0,0.0,0.0,1.0764,0.9669,0.856,0.7526,0.6483,0.4798,0.4109,0.4291,0.3426,0.0,0.0,0.0,0.0,0.0,0.0,0.0,0.0,0.0,0.0,0.0,0.0,0.0,0.0,0.0,0.0,0.0,0.0,0.0,0.0,1.8997,2.2815,2.6702,2.8741,2.946,2.9436,2.8611,2.5696,2.2624,2.0987,1.8545,1.6573,1.6418,1.6714,1.7273,1.8072,1.8827,1.9701,2.0835,2.1837,2.2823,2.3905,0.0,0.0,2.8768,3.1272,3.3015,0.0,0.0,3.4639,3.4867,3.5081,3.5302,3.5538,3.5729,3.5758,3.5551,3.5636,3.5732,3.5838,3.5838,3.5857,3.5905,3.5905,3.5896,3.5894,3.5601,3.5157,3.4523,3.3957,3.3064,3.1967,3.1632,3.114,3.0638,3.0614,3.062,3.0645,3.0684,3.0721,3.0771,0.0,0.0,0.0,0.0,0.0,0.0,0.0,0.2899,0.1853,0.083,-0.0173,-0.0818,-0.0814,-0.0803,-0.0596,-0.0062,0.0416,0.0,0.0,0.0,0.0,0.0,0.0,0.0,1.0788,1.1216,1.1174,1.0678,0.9482,0.8266,0.7056,0.5374,0.4546,0.4457,0.3574,0.2972,0.0,0.0,0.0,0.0,0.0,0.0,0.702,0.0,0.0,0.0,0.0,0.0,0.0,0.0,0.0,0.0,0.0,0.0,0.0,0.0,1.8407,2.2178,2.4899,2.5927,2.6023,2.5207,2.2394,1.9552,1.8483,1.6228,1.4457,1.4801,1.5058,1.5548,1.6534,1.7257,1.8226,1.9782,2.0892,2.2097,2.3612,0.0,0.0,2.8878,0.0,0.0,0.0,3.4349,3.498,3.5219,3.5071,3.5215,3.5744,3.5571,3.5563,3.5808,3.5808,3.5841,3.5942,3.5944,3.5954,3.5952,3.5952,3.5919,3.5814,3.5814,3.5516,3.4938,3.4571,3.3836,0.0,3.2116,3.1526,3.1017,3.0669,3.0563,3.0609,3.0655,3.071,3.0792,0.0,0.0,0.0,0.0,0.0,0.0,0.0,0.3121,0.2174,0.2063,0.0838,0.0,0.0,0.0,0.0,0.0,0.0,0.0,0.0,0.0,0.0,0.0,0.0,0.0,1.0753,1.088,1.1052,1.128,1.0015,0.8614,0.7102,0.5653,0.4823,0.448,0.3691,0.3325,0.0,0.0,0.0,0.0,0.5418,0.6568,0.0,0.0,0.0,0.0,0.0,0.0,0.0,0.0,0.0,0.0,0.0,0.0,0.0,0.0,0.0,0.0,0.0,2.2337,2.2984,2.2369,2.0146,1.7801,1.6583,1.4969,0.0,1.3732,1.3768,1.4284,1.5925,1.6293,1.7027,1.9163,1.9904,2.131,0.0,2.5451,0.0,0.0,3.1125,0.0,3.2642,3.4176,3.518,3.5243,3.4781,3.4887,3.577,3.5113,3.5098,3.5976,3.5996,3.5996,3.5996,3.5996,3.5952,3.5907,3.588,3.5812,3.5707,3.57,3.5693,3.564,3.4758,3.4423,3.4342,3.2532,3.178,3.169,3.0769,3.0477,3.0597,3.0603,3.0719,3.0898,0.0,0.0,0.0,0.0,0.0,0.0,0.0,0.0,0.0,0.0,0.0224,0.0,0.0,0.0,0.0,0.0,0.0,0.0,0.0,0.0,0.0,0.0,0.0,0.0,1.0394,1.1513,1.1799,1.1163,1.123,0.9986,0.7522,0.6428,0.5451,0.4608,0.3851,0.3455,0.0,0.0,0.0,0.0,0.6069,0.7247,0.0,0.0,0.0,0.0,0.8342,0.8401,0.0,0.0,0.0,0.0,0.0,0.0,0.0,0.0,1.3148,1.5228,1.6182,0.0,1.835,1.7794,1.6557,1.5314,0.0,1.3734,1.3104,1.3104,1.3481,1.3933,1.4331,1.5163,1.6396,1.8227,1.9604,2.1164,2.3256,0.0,0.0,3.3606,3.4044,3.4415,3.5448,3.4904,3.4579,3.4759,3.4031,3.4001,3.4939,3.4804,3.5098,3.5976,3.5948,3.5948,3.5996,3.5948,3.5945,3.5974,3.5823,3.5723,3.5703,3.5642,3.56,3.5526,3.531,3.4853,3.4176,3.3076,3.2255,3.163,3.0748,3.0462,3.0529,3.0581,3.0659,3.0768,0.0,0.0,0.0,0.0,0.0,0.0,0.0,0.0,0.0,0.0,0.0,0.014,0.0476,0.0205,0.0,0.0,0.0,0.0,0.0,0.0,0.0,0.0,0.0,1.0174,1.098,1.1983,1.2143,1.1395,1.1889,1.0623,0.7675,0.7141,0.61,0.4687,0.4213,0.3941,0.0,0.0,0.0,0.0,0.687,0.0,0.0,0.0,0.0,0.0,0.8804,0.8804,0.0,0.8804,0.8804,0.8804,0.0,0.0,0.0,0.0,1.2657,1.4352,1.4629,1.5481,1.6237,1.5942,1.5248,1.4573,1.4272,1.3967,1.3729,1.3729,1.4179,1.4665,1.4948,1.5738,1.6875,1.8577,1.999,0.0,0.0,0.0,3.0331,3.3604,3.379,3.4292,0.0,3.5094,3.4492,3.4634,3.3837,3.3744,3.4648,3.4707,3.5098,3.5976,3.5922,3.5913,3.5949,3.5855,3.5809,3.5814,3.5709,3.5644,3.5606,3.5566,3.5534,3.55,3.55,3.5231,3.4737,3.3853,3.3006,3.2166,3.135,3.0839,3.0547,3.063,3.096,3.1341,0.0,0.0,0.0,0.0,0.0,0.0,0.0,0.0,0.0,0.0,0.0,0.0,0.0,0.0,0.0,0.0,0.0,0.0,0.0,0.0,0.0,0.0,0.933,1.0539,1.1784,1.2266,1.2236,1.164,1.2199,1.0815,0.77,0.7767,0.6708,0.4721,0.4617,0.4545,0.0,0.0,0.0,0.0,0.7406,0.0,0.0,0.0,0.0,0.0,0.0,0.0,0.0,0.8804,0.8857,0.8956,0.8956,0.0,0.0,0.0,0.0,0.0,1.4891,1.5541,1.5914,1.5557,1.5085,1.4698,1.4698,1.4698,1.4721,1.4801,1.5251,1.5833,1.6477,1.7063,1.7964,1.9603,0.0,0.0,2.6943,2.8632,3.0335,3.2515,3.2795,0.0,3.5702,3.5105,3.4629,3.4687,3.3887,3.3789,3.4648,3.4707,3.5098,3.5976,3.5918,3.5871,3.5871,3.5746,3.5667,3.5621,3.5595,3.5556,3.5502,3.5494,3.5423,3.5308,3.5308,3.5308,3.5231,3.4353,3.3641,3.3025,3.229,3.1592,3.1004,3.1069,3.1631,3.2285,0.0,0.0,0.0,0.0,0.0,0.0,0.0,0.0,0.0,0.0,0.0,0.0,0.0,0.0,0.0,0.0,0.0,0.0,0.0,0.0,0.0,0.9547,1.0302,1.105,1.1877,1.2281,1.2141,1.1366,1.2296,1.1012,0.7723,0.8098,0.7085,0.488,0.486,0.4775,0.4679,0.4682,0.0,0.6844,0.6809,0.0,0.0,0.0,0.0,0.0,0.0,0.0,0.0,0.8804,0.9185,0.964,0.964,0.0,0.0,0.0,0.0,0.0,1.654,1.7376,1.7319,1.5326,1.4766,1.4698,1.4698,1.4698,1.4824,1.5284,1.5857,1.6528,1.7424,1.8121,1.9105,2.0757,0.0,2.696,0.0,0.0,3.2796,3.5059,0.0,3.5295,3.6666,3.5473,3.4629,3.4687,3.3887,3.3789,3.4648,3.4707,3.5098,3.5976,3.581,3.5726,3.5726,3.5642,3.5644,3.5682,3.556,3.5547,3.5574,3.5528,3.5103,3.4398,3.4398,3.4398,3.4334,3.3449,3.3449,3.393,3.3189,3.2862,3.2817,3.2886,3.3038,3.3183,0.0,0.0,0.0,0.0,0.0,0.0,0.0,0.0,0.0,0.0,0.0,0.0,0.0,0.0,0.0,0.0,0.0,0.0,0.0,0.0,0.7255,1.0763,1.1954,1.2924,1.3836,1.4389,1.4269,1.3444,1.3476,1.224,0.9798,0.8761,0.7715,0.6647,0.5923,0.5558,0.5498,0.5298,0.5636,0.635,0.0,0.0,0.0,0.0,0.0,0.0,0.0,0.0,0.0,0.0,0.9536,0.9865,1.0244,0.0,0.0,0.0,0.0,0.0,1.6964,1.7519,1.7609,1.7134,1.7241,1.7459,1.7459,1.7787,1.7983,1.7483,1.8337,1.9079,1.8821,2.0085,2.199,2.4455,0.0,2.8532,3.0232,3.0802,3.1835,0.0,0.0,3.4603,3.6256,3.5344,3.4664,3.4707,3.4336,3.4277,3.4687,3.5156,3.5565,3.5927,3.5785,3.5678,3.5661,3.5582,3.5562,3.559,3.5522,3.5528,3.554,3.5521,3.5026,3.4225,3.4699,3.4641,3.4205,3.4276,3.4269,3.4235,3.3962,3.3618,3.3319,3.383,3.3695,3.3353,0.0,0.0,0.0,0.0,0.0,0.0,0.0,0.0,0.0,0.0,0.0,0.0,0.0,0.0,0.0,0.0,0.0,0.0,0.0,0.0,0.7456,1.0986,1.3238,1.4982,1.6196,1.6499,1.6303,1.5537,1.4966,1.3644,1.1648,0.9405,0.8296,0.8162,0.7102,0.6545,0.6416,0.6022,0.5916,0.6127,0.0,0.0,0.0,0.0,0.0,0.0,0.0,0.0,0.0,0.0,0.0,0.0,0.0,0.0,0.0,1.3962,1.4846,1.5908,1.7353,1.7777,1.8145,1.9422,1.9651,1.9662,1.999,2.0509,2.0745,2.0043,2.1062,2.1708,2.06,2.2327,0.0,2.7669,2.9048,3.0079,3.1043,3.1092,3.1627,3.3172,3.3481,3.4176,3.5759,3.5366,3.5,3.5,3.5,3.5,3.5,3.5644,3.5876,3.5593,3.5652,3.5562,3.5301,3.5438,3.55,3.55,3.55,3.55,3.55,3.55,3.4911,3.3936,3.4814,3.4699,3.3955,3.4834,3.4949,3.4618,3.4727,3.4428,3.3994,3.462,3.4258,3.3576,0.0,0.0,0.0,0.0,0.0,0.0,0.0,0.0,0.0,0.0,0.0,0.0,0.0,0.0,0.0,0.0,0.0,0.0,0.0,0.0,0.6955,0.9362,1.3451,1.6504,1.834,1.7568,1.6836,1.6228,1.6357,1.4904,1.1926,0.9766,0.8573,0.8173,0.7959,0.7616,0.7156,0.6345,0.6316,0.6743,0.5972,0.0,0.0,0.0,0.0,0.0,0.0,0.0,0.0,0.0,0.0,0.0,0.0,0.0,1.4664,1.5286,1.5543,1.6091,1.8362,1.9188,1.9832,2.1554,2.0405,1.9212,2.0529,2.0762,2.1076,2.2364,2.3155,2.3448,2.2854,2.4594,2.669,2.8517,3.0742,3.2735,3.4166,0.0,3.4797,3.4993,3.5316,3.5599,3.5878,3.5893,3.5918,3.5918,3.5918,3.5918,3.5918,3.5976,3.5603,3.4722,3.5343,3.5271,3.4396,3.5123,3.55,3.55,3.55,3.55,3.55,3.55,3.4577,3.3045,3.3917,3.3795,3.3064,3.393,3.4762,3.5505,3.5589,3.5655,3.5703,3.5644,3.503,3.4347,0.0,0.0,0.0,0.0,0.0,0.0,0.0,0.0,0.0,0.0,0.0,0.0,0.0,0.0,0.0,0.0,0.0,0.0,0.0,0.3449,0.6181,0.9482,1.2397,1.5524,1.8905,1.9038,1.8833,1.8418,1.7187,1.5394,1.3021,1.1892,1.0925,1.0156,0.924,0.8706,0.8474,0.7295,0.6675,0.6438,0.6253,0.6529,0.0,0.0,0.0,0.0,0.0,0.0,0.0,0.0,1.099,1.1908,1.3062,1.4284,1.5298,1.5543,1.6102,1.6844,1.7637,1.8494,1.9454,2.0668,2.0563,2.0641,2.2408,2.3145,2.3627,2.4302,2.5229,2.5854,2.5646,0.0,2.913,3.0167,3.2314,3.4124,3.4851,3.5182,3.5391,3.55,3.5621,3.5775,3.5948,3.5995,3.5996,3.5996,3.5996,3.5996,3.5996,3.5996,3.5559,3.4577,3.5298,3.5238,3.4241,3.5072,3.55,3.55,3.55,3.55,3.55,3.55,3.4846,3.3725,3.4071,3.4013,3.3725,3.4071,3.4743,3.5601,3.5667,3.5709,3.5702,3.5661,3.5387,3.5097,0.0,0.0,0.0,0.0,0.0,0.0,0.0,0.0,0.0,0.0,0.0,0.0,0.0,0.0,0.0,0.0,0.0,0.0,0.1774,0.3105,0.5383,0.8608,1.0734,1.3711,1.7722,1.8805,1.9572,2.0106,1.8042,1.6122,1.4375,1.337,1.2511,1.173,1.0225,0.9561,0.9461,0.8134,0.7235,0.6654,0.6373,0.6529,0.0,0.0,0.0,0.0,0.0,0.0,0.0,0.0,1.1109,1.1986,1.3434,1.482,1.5877,1.5835,1.6645,1.7551,1.7572,1.8418,1.958,2.0716,2.1545,2.2595,2.4491,2.513,2.5579,2.6474,2.7205,2.7762,2.8057,2.9412,0.0,0.0,3.3299,3.4813,3.5182,3.5395,3.5571,3.5686,3.5749,3.5828,3.5976,3.5996,3.5996,3.5996,3.5996,3.5996,3.5996,3.5722,3.5118,3.4124,3.4597,3.4526,3.3801,3.4641,3.5231,3.55,3.55,3.55,3.55,3.55,3.5026,3.4225,3.4487,3.4449,3.4225,3.4507,3.4993,3.5601,3.5646,3.5648,3.5605,3.5577,3.5547,3.55,0.0,0.0,0.0,0.0,0.0,0.0,0.0,0.0,0.0,0.0,0.0,0.0,0.0,0.0,0.0,0.0,0.0,0.0,0.2673,0.3372,0.4588,0.6391,0.8586,1.1346,1.4708,1.6523,1.8578,2.0979,1.892,1.7211,1.5853,1.3854,1.2841,1.2628,1.0916,1.0114,1.0013,0.8765,0.8019,0.7589,0.6113,0.6384,0.761,0.0,0.0,0.0,0.0,0.0,0.0,0.0,1.0924,1.2074,1.3609,1.5199,1.6474,1.6356,1.7168,1.8173,1.8502,1.9375,2.0613,2.2279,2.3608,2.4924,2.6556,2.636,2.6504,2.8902,2.9045,2.9022,2.9946,3.0542,0.0,3.2062,3.361,3.4898,3.5432,3.555,3.5621,3.5693,3.5809,3.5938,3.5996,3.5996,3.5996,3.5996,3.5996,3.5996,3.5996,3.5107,3.4176,3.3212,3.3138,3.3044,3.2891,3.3763,3.4641,3.55,3.55,3.55,3.55,3.55,3.5026,3.4263,3.5122,3.4988,3.4282,3.5135,3.5547,3.5605,3.5605,3.5605,3.559,3.5528,3.55,3.55,0.0,0.0,0.0,0.0,0.0,0.0,0.0,0.0,0.0,0.0,0.0,0.0,0.0,0.0,0.0,0.0,0.0,0.0,0.1793,0.2543,0.3553,0.4686,0.7097,0.9956,1.3326,1.6547,1.8537,1.9311,1.8129,1.6826,1.5459,1.4952,1.4035,1.2759,1.232,1.1525,1.0487,0.9904,0.9055,0.8003,0.7328,0.6988,0.6912,0.0,0.0,0.0,0.0,0.0,0.0,0.0,0.0,0.0,1.3837,1.536,1.6539,1.679,1.7553,1.8243,1.7907,1.926,2.0962,2.1852,2.3473,2.5471,2.7836,2.7886,2.7987,3.0048,3.0939,3.121,3.0701,3.165,0.0,3.2221,3.361,3.4898,3.5432,3.555,3.5621,3.5693,3.5809,3.5938,3.5996,3.5996,3.5996,3.5996,3.5996,3.5702,3.5047,3.4746,3.3867,3.2264,3.2785,3.3044,3.2891,3.3763,3.4641,3.55,3.55,3.55,3.55,3.55,3.5365,3.5064,3.4083,3.4218,3.5135,3.5385,3.5515,3.5522,3.5522,3.5522,3.5534,3.5501,3.55,3.55,0.0,0.0,0.0,0.0,0.0,0.0,0.0,0.0,0.0,0.0,0.5589,0.5532,0.0,0.0,0.0,0.4592,0.4172,0.3496,0.2444,0.2855,0.3394,0.399,0.6036,0.8973,1.286,1.6138,1.7723,1.7594,1.7458,1.6784,1.5603,1.5382,1.4648,1.3523,1.3227,1.2449,1.1339,1.0934,1.0036,0.8808,0.83,0.7845,0.7396,0.0,0.0,0.0,0.0,0.0,0.0,0.0,0.0,0.0,1.364,1.5245,1.6615,1.7445,1.8394,1.9231,1.9559,2.0871,2.2479,2.3834,2.5391,2.721,2.9578,2.9844,2.9897,3.1031,3.2074,3.2572,3.1866,3.2683,0.0,3.3209,3.3761,3.4491,3.5374,3.5261,3.5233,3.5654,3.5809,3.5938,3.5996,3.5996,3.5996,3.5996,3.5974,3.5557,3.4644,3.4218,3.333,3.1842,3.1956,3.2304,3.2891,3.341,3.4295,3.55,3.55,3.55,3.55,3.55,3.5308,3.4911,3.3506,3.3699,3.4988,3.4988,3.5192,3.55,3.55,3.55,3.55,3.55,3.55,3.55,0.0,0.0,0.0,0.0,0.0,0.0,0.0,0.0,0.0,0.561,0.5589,0.5532,0.0,0.0,0.0,0.5329,0.4511,0.3953,0.4006,0.3813,0.3781,0.4006,0.5664,0.8716,1.3297,1.5573,1.655,1.6327,1.6913,1.6804,1.6036,1.5287,1.486,1.4651,1.374,1.3012,1.2361,1.1776,1.0866,0.9736,0.9084,0.8758,0.8533,0.7128,0.0,0.0,0.0,0.0,0.0,0.0,0.0,0.0,1.314,1.4939,1.6615,1.8142,1.9455,2.0741,2.2423,2.3503,2.4747,2.7231,2.8608,2.9774,3.1477,3.1897,3.1915,3.1915,3.2645,3.3284,3.3258,3.3606,3.4031,3.4517,3.3939,3.3893,3.5201,3.4776,3.4669,3.5599,3.5817,3.5922,3.5996,3.5996,3.5996,3.5996,3.5919,3.5467,3.4514,3.3595,3.2662,3.1704,3.0835,3.1192,3.2872,3.2891,3.3776,3.55,3.55,3.55,3.55,3.55,3.4988,3.4032,3.3237,3.3314,3.3975,3.4052,3.4603,3.5385,3.5385,3.5423,3.55,3.55,3.55,3.55,0.0,0.0,0.0,0.0,0.0,0.0,0.0,0.0,0.5749,0.561,0.5589,0.5532,0.5412,0.5226,0.0,0.5395,0.5196,0.4765,0.4043,0.3332,0.3268,0.3974,0.752,1.1202,1.4845,1.6009,1.7027,1.798,1.6545,1.5713,1.5557,1.537,1.5099,1.4764,1.4554,1.3737,1.2458,1.1953,1.0989,0.9788,0.9625,0.8922,0.783,0.6939,0.6696,0.0,0.0,0.0,0.0,0.0,0.0,0.0,1.2811,1.451,1.6007,1.801,1.9708,2.1199,2.2422,2.4379,2.6454,2.7959,3.0053,3.1844,3.2245,3.2631,3.2903,3.2903,3.3487,3.3906,3.3703,3.4129,3.4323,3.3757,3.3695,3.3881,3.4403,3.4463,3.4775,3.5606,3.5868,3.5976,3.5996,3.5949,3.5916,3.5916,3.5812,3.5065,3.3503,3.3221,3.2368,3.0755,3.0498,3.1192,3.2872,3.2891,3.3776,3.55,3.55,3.55,3.55,3.55,3.4654,3.316,3.2987,3.2641,3.2295,3.291,3.368,3.4468,3.4468,3.4911,3.55,3.55,3.55,3.55,0.0,0.0,0.0,0.0,0.0,0.0,0.0,0.0,0.6531,0.5631,0.5603,0.5579,0.5284,0.525,0.0,0.0,0.5213,0.4861,0.3966,0.3547,0.3886,0.5203,0.874,1.1983,1.4709,1.5869,1.686,1.7678,1.6111,1.5437,1.5644,1.5386,1.4954,1.4482,1.4687,1.4117,1.2964,1.2729,1.1726,1.0287,1.0287,0.9383,0.7964,0.7227,0.6681,0.6272,0.5876,0.0,0.0,0.0,0.0,0.0,0.0,0.0,1.5096,1.7386,1.9374,2.1296,2.3498,2.5649,2.7783,2.9887,3.1631,3.2842,3.2842,3.3166,3.3518,3.3643,3.3956,3.4159,3.4006,3.4375,3.447,3.3705,3.3705,3.388,3.416,3.4313,3.4723,3.5603,3.5857,3.5953,3.5996,3.5944,3.5728,3.5302,3.5116,3.4275,3.2574,3.2449,3.181,3.0442,3.0808,3.1641,3.2891,3.3314,3.4199,3.55,3.55,3.5269,3.4853,3.4449,3.3757,3.2852,3.2045,3.1698,3.1737,3.216,3.3064,3.4205,3.4205,3.4737,3.55,3.55,3.55,3.55,0.0,0.0,0.0,0.0,0.0,0.0,0.0,0.0,0.0,0.5598,0.5755,0.5835,0.5336,0.5318,0.5258,0.0,0.0,0.0,0.4061,0.4164,0.4845,0.6158,0.9226,1.1898,1.4088,1.5677,1.6748,1.7327,1.6303,1.6024,1.6427,1.5534,1.4816,1.4284,1.4587,1.4267,1.3506,1.3428,1.2415,1.0848,1.0772,0.983,0.8364,0.7528,0.6759,0.6121,0.5999,0.558,0.5262,0.6605,0.0,0.0,0.0,0.0,1.3885,1.6393,1.8593,2.0876,2.3965,2.6343,2.8713,3.1738,3.2921,3.3302,3.3302,3.3564,3.3876,3.4147,3.4253,3.43,3.43,3.4593,3.4557,3.3699,3.3603,3.3716,3.3929,3.4058,3.4503,3.556,3.5821,3.5944,3.5996,3.5807,3.5375,3.4632,3.4268,3.3398,3.1859,3.1736,3.1288,3.0423,3.125,3.2083,3.2891,3.3763,3.4641,3.55,3.55,3.5045,3.4167,3.3295,3.2814,3.2602,3.1077,3.0808,3.1487,3.1487,3.2468,3.3975,3.3975,3.4603,3.55,3.55,3.55,3.5493,0.0,0.0,0.0,0.0,0.0,0.0,0.0,0.0,0.0,0.0,0.6306,0.6694,0.6121,0.6163,0.6129,0.5888,0.5297,0.4927,0.4936,0.0,0.0,0.4705,0.8398,1.1671,1.4209,1.5914,1.7629,1.9397,1.8335,1.8087,1.8534,1.63,1.5167,1.4966,1.4619,1.4109,1.3486,1.3125,1.2276,1.1119,1.064,0.9739,0.8525,0.7321,0.6791,0.6612,0.6038,0.5434,0.5124,0.6401,0.6978,0.0,0.0,0.0,1.231,1.4913,1.7257,1.939,2.1071,2.482,2.8931,3.1787,3.3103,3.3721,3.3721,3.3762,3.3876,0.0,3.4423,3.4643,3.4643,3.5043,3.4802,3.2958,3.2857,3.3038,3.3064,3.3237,3.3933,3.5512,3.5871,3.5996,3.5996,3.526,3.4694,3.4528,3.3673,3.2743,3.1779,3.1691,3.1288,3.0423,3.125,3.2083,3.2891,3.3763,3.4641,3.55,3.55,3.5045,3.4167,3.3295,3.2526,3.1814,3.0827,3.0462,3.0577,3.0577,3.1558,3.3064,3.3064,3.4064,3.55,3.55,3.55,3.5479,0.0,0.0,0.0,0.0,0.0,0.0,0.0,0.0,0.0,0.0,0.0,0.6823,0.6366,0.6286,0.6211,0.6023,0.5255,0.464,0.4281,0.4788,0.4998,0.4708,0.768,1.0644,1.3444,1.4755,1.6553,1.8907,1.8087,1.8163,1.903,1.7935,1.6871,1.5843,1.4951,1.4241,1.365,1.3202,1.2297,1.1163,1.0702,0.9895,0.8882,0.7978,0.737,0.686,0.6046,0.537,0.5021,0.5897,0.6213,0.6526,0.8036,0.0,0.0,0.0,1.44,1.7486,2.2232,2.6028,2.9315,3.2176,3.3181,3.3522,3.3748,3.3807,3.3928,3.4398,3.4612,3.4763,3.4898,3.5231,3.5049,3.3686,3.355,3.3641,3.3672,3.3832,3.4408,3.5668,3.5925,3.5996,3.5996,3.5143,3.438,3.3815,3.2873,3.1927,3.1031,3.0962,3.0808,3.0404,3.1679,3.2545,3.2891,3.4096,3.4824,3.5043,3.5043,3.4672,3.3949,3.308,3.2331,3.166,3.0788,3.0404,3.0404,3.0404,3.1385,3.2891,3.2891,3.3862,3.5281,3.5281,3.519,3.5025,0.0,0.0,0.0,0.0,0.0,0.0,0.0,0.0,0.0,0.0,0.0,0.7422,0.7047,0.0,0.0,0.0,0.5274,0.4342,0.3573,0.4372,0.4813,0.4575,0.7091,0.9649,1.2051,1.3539,1.5435,1.7735,1.7586,1.8208,1.955,1.9376,1.8799,1.7801,1.6141,1.4891,1.3995,1.3502,1.2611,1.1504,1.114,1.0421,0.954,0.9074,0.8507,0.7835,0.6713,0.5954,0.5525,0.5752,0.5736,0.577,0.6788,0.7666,0.0,0.0,0.0,1.5388,2.1801,2.5243,2.782,3.1132,3.2354,3.2928,0.0,0.0,3.3967,0.0,3.4694,3.4793,3.513,3.5369,3.5212,3.434,3.4199,3.4234,3.4284,3.4427,3.4867,3.5781,3.5951,3.5996,3.5996,3.4973,3.3986,3.3256,3.2168,3.1185,3.0435,3.0425,3.0425,3.0404,3.2025,3.2872,3.28,3.4263,3.4935,3.4793,3.4793,3.4489,3.3869,3.3001,3.2278,3.166,3.0788,3.0404,3.0404,3.0404,3.1385,3.2891,3.2891,3.3794,3.5105,3.5105,3.4935,3.4684,0.0,0.0,0.0,0.0,0.0,0.0,0.0,0.0,0.0,0.0,0.0,0.9171,0.8724,0.7944,0.7331,0.7076,0.5505,0.4169,0.3367,0.4321,0.4516,0.3714,0.6771,0.0,0.9931,1.2808,1.503,1.6493,1.7531,1.8997,2.0792,2.016,2.0485,2.1499,1.8565,1.6287,1.463,1.4083,1.3314,1.2403,1.2123,1.1492,1.0701,1.0535,1.045,1.0206,0.8571,0.7591,0.6983,0.6372,0.5782,0.5427,0.6068,0.6636,0.7259,0.0,0.0,0.0,1.6902,1.9858,2.2952,2.7437,3.0033,3.1904,0.0,0.0,3.3967,3.458,3.4694,3.487,3.5376,3.5493,3.5212,3.434,3.4257,3.4308,3.4294,3.4464,3.4911,3.5804,3.5951,3.5996,3.5996,3.4453,3.3389,3.3201,3.1679,3.065,3.0408,3.0462,3.0472,3.041,3.2025,3.2786,3.2511,3.398,3.4832,3.5079,3.5079,3.4764,3.4154,3.3282,3.2462,3.166,3.0788,3.0404,3.0404,3.0404,3.1385,3.2891,3.2891,3.3794,3.5105,3.5105,3.4935,3.4653,0.0,0.0,0.0,0.0,0.0,0.0,0.0,0.0,0.0,0.0,0.0,0.0,0.0,0.8287,0.792,0.7807,0.6179,0.4833,0.411,0.4422,0.4508,0.419,0.5728,0.7553,0.9622,1.1573,1.3822,1.64,1.7203,1.8493,2.0258,2.0007,2.0171,2.0534,1.876,1.7403,1.6341,1.4707,1.3604,1.2909,1.2422,1.2086,1.1766,1.1297,1.1296,0.0,0.0,0.0,0.0,0.7077,0.6364,0.5939,0.5883,0.5893,0.6064,0.6855,0.8848,1.144,1.4436,1.7266,2.0273,2.4027,2.7189,2.9784,3.1169,3.2687,3.3967,3.458,3.4694,3.4851,3.5391,3.55,3.5406,3.5131,3.4651,3.4548,3.5239,3.4911,3.4943,3.5854,3.5995,3.5996,3.5996,3.4922,3.4171,3.4035,3.2994,3.2261,3.2011,3.1579,3.1304,3.1237,3.1814,3.2429,3.3062,3.4329,3.4803,3.4513,3.4735,3.4829,3.4722,3.3299,3.2586,3.2391,3.1,3.0404,3.0398,3.0209,3.0838,3.191,3.2308,3.2976,3.3809,3.4325,3.4345,3.4099,0.0,0.0,0.0,0.0,0.0,0.0,0.0,0.0,0.9885,1.0123,0.0,0.0,0.0,0.0,0.8141,0.7716,0.633,0.53,0.4869,0.4625,0.4491,0.4491,0.5136,0.6577,0.8882,1.0689,1.2889,1.5494,1.671,1.8017,1.936,1.9557,1.9847,2.0174,1.8699,1.7781,1.7269,1.5618,0.0,1.3499,0.0,0.0,1.3127,0.0,0.0,0.0,0.0,0.0,0.0,0.0,0.0,0.7265,0.6514,0.5686,0.511,0.5664,0.74,0.9554,1.1311,1.4291,1.7662,2.0889,2.404,2.7067,2.9807,0.0,3.318,3.4442,3.4764,3.4972,3.5424,3.55,3.5522,3.5585,3.5127,3.5026,3.5793,3.543,3.5306,3.5937,3.5996,3.5996,3.5996,3.5215,3.4642,3.4538,3.3797,0.0,3.2985,3.2522,3.2353,3.2532,3.2173,3.2604,3.3951,3.4632,3.4803,3.4502,3.4725,3.4972,3.5173,3.3425,3.2732,3.2814,3.1135,3.0404,3.0373,3.0103,3.0509,3.1333,3.167,3.2133,3.2665,3.3205,3.3401,3.3366,0.0,0.0,0.0,0.0,0.0,0.0,0.0,0.0,1.1826,1.1826,0.0,0.0,0.0,0.0,0.0,0.6775,0.5991,0.5546,0.5515,0.4893,0.4515,0.4491,0.5136,0.6153,0.7579,1.0183,1.2244,1.3674,1.6083,1.7576,1.8267,1.8796,1.9669,2.0713,1.8481,1.7401,1.722,0.0,1.5568,1.4293,0.0,1.5672,1.4799,0.0,0.0,0.0,1.2672,1.1822,0.0,1.0763,0.0,0.0,0.0,0.0,0.4465,0.4626,0.5994,0.7434,0.0,0.0,0.0,1.7905,0.0,0.0,2.935,0.0,3.1478,3.4071,3.4812,3.5095,3.5446,3.5507,3.5528,3.559,3.5659,3.5755,3.5878,3.5951,3.5996,3.5996,3.5996,3.5996,3.5996,3.5234,3.4705,3.4645,3.3922,3.3394,3.3188,3.318,3.3481,3.4135,3.3096,3.3323,3.5047,3.4841,3.486,3.5105,3.5105,3.5258,3.5442,3.3699,3.2891,3.2814,3.1135,3.0404,3.0373,3.0103,3.0483,3.123,3.1065,3.1307,3.1763,3.1781,3.2124,3.2454,0.0,0.0,0.0,0.0,0.0,1.3927,1.3121,1.2892,1.2787,0.0,0.0,0.0,1.1079,0.9825,0.8699,0.7817,0.7577,0.6887,0.5578,0.5324,0.5003,0.4515,0.468,0.567,0.7547,0.9278,1.1134,1.3111,1.5087,1.6384,1.701,1.7557,1.7976,1.8284,1.7628,1.69,1.6095,1.547,0.0,0.0,1.6065,1.6258,0.0,0.0,0.0,0.0,0.0,1.4289,1.3625,0.0,1.0809,0.8755,0.0,0.5352,0.4867,0.4293,0.5149,0.623,0.6006,0.0,0.0,0.0,0.0,0.0,0.0,0.0,0.0,3.155,3.2309,3.3006,3.5114,3.5547,3.5595,3.5667,3.5689,3.5755,3.595,3.5995,3.5996,3.5996,3.5996,3.5996,3.5996,3.5781,3.5603,0.0,3.5327,3.513,3.4914,3.3677,3.3059,3.3244,3.2954,3.3228,3.4151,3.489,3.5215,3.5105,3.5297,3.5432,3.5442,3.3699,3.2891,3.2814,3.1135,3.0404,3.0373,3.0103,3.0057,3.0179,3.0555,3.0682,3.0701,3.1303,3.1599,3.1734,0.0,0.0,1.4565,1.536,1.5394,1.4958,1.3948,1.3871,1.3817,0.0,0.0,0.0,1.1205,1.0066,0.9203,0.8655,0.8232,0.7548,0.6475,0.614,0.5655,0.4948,0.4921,0.5483,0.6704,0.8617,1.0393,1.2034,1.4429,1.5789,1.6184,1.6713,1.6968,1.6949,1.6496,1.6182,1.5897,1.5008,0.0,0.0,1.648,0.0,0.0,1.7291,1.7645,0.0,0.0,0.0,1.5211,1.456,1.2192,0.0,0.0,0.0,0.5087,0.4298,0.4927,0.5811,0.5486,0.6924,0.8921,1.0685,0.0,0.0,2.191,2.4483,0.0,0.0,3.2962,3.3543,3.5205,3.5544,3.5616,3.5689,3.5755,3.583,3.5976,3.5996,3.5996,0.0,0.0,0.0,0.0,3.5996,3.5975,3.5946,3.5913,3.5811,3.5606,3.4235,3.3603,3.3968,3.3622,3.3787,3.4496,3.5182,3.5424,3.5273,3.5432,3.55,3.5442,3.4064,3.3237,3.2833,3.15,3.0942,3.0898,3.0375,3.0032,2.9861,3.0124,3.0126,3.0055,3.0519,3.0909,3.1173,0.0,0.0,1.5631,1.6517,1.6513,1.5972,1.4729,1.49,1.5016,0.0,1.4327,1.3574,1.1885,1.066,0.9795,0.9417,0.8544,0.7913,0.7723,0.7074,0.6394,0.5651,0.5542,0.5542,0.5624,0.8183,0.9895,1.0692,1.386,1.548,1.5618,1.6107,1.6327,1.6277,1.5267,1.5261,1.5982,1.4941,0.0,1.4211,1.6988,1.7455,0.0,0.0,1.8499,1.8391,1.7666,1.705,1.6547,1.6348,1.3744,0.0,0.0,0.0,0.0,0.0,0.5356,0.621,0.5704,0.6779,0.8517,1.0506,1.1985,0.0,2.2231,2.4411,2.6477,0.0,3.3676,3.4045,3.443,3.4654,3.4801,3.4863,3.529,3.5706,0.0,0.0,0.0,0.0,0.0,0.0,3.5996,3.5996,3.5996,3.5996,3.5944,3.5811,3.5606,3.4716,3.4603,3.5462,3.4641,3.4622,3.5481,3.55,3.55,3.55,3.55,3.55,3.5462,3.4603,3.3782,3.3006,3.2199,3.1833,3.175,3.0867,3.0362,3.0125,2.9842,2.9722,2.9705,2.9705,3.0149,3.0667,1.4454,1.5676,1.6491,1.7,1.7638,1.7912,1.733,1.7053,1.6738,1.6273,1.5137,1.4333,1.4202,1.256,1.1235,1.0619,1.0095,0.9187,0.7788,0.7563,0.7155,0.6421,0.5814,0.5787,0.6367,0.8024,0.9259,1.0076,1.2866,1.4519,1.506,1.516,1.5207,1.5184,1.4544,1.4307,1.4369,1.4454,0.0,1.5811,1.7838,0.0,1.8434,1.9784,2.0294,2.0196,1.9522,1.8824,1.7913,1.5709,1.4219,1.2711,0.0,0.0,0.0,0.6386,0.0,0.8091,0.6984,0.7192,0.7946,0.0,0.0,0.0,1.3943,1.5861,1.8131,0.0,0.0,2.499,2.7748,2.8974,2.958,2.9641,3.2035,0.0,0.0,0.0,0.0,0.0,0.0,0.0,3.5996,3.5996,3.5996,3.5996,3.5944,3.5811,3.5606,3.4752,3.4662,3.5468,3.4641,3.4622,3.5481,3.55,3.55,3.55,3.55,3.55,3.5462,3.4603,3.4109,3.3898,3.3045,3.2679,3.259,3.1548,3.108,3.0967,3.0228,2.9845,2.9705,2.9705,2.9799,2.993,1.5538,1.628,1.6868,1.7759,1.8719,1.9195,1.8724,1.8891,1.8818,1.808,1.687,1.5906,1.5522,1.3823,1.2209,1.0999,1.0372,0.9551,0.8328,0.8235,0.791,0.7182,0.6794,0.6605,0.6588,0.8305,0.9574,1.0344,1.2933,1.4538,1.5197,1.5197,1.5529,1.6055,1.4904,1.4619,1.498,0.0,1.4877,1.5653,1.7896,0.0,1.8967,2.0624,2.1077,2.0795,2.0756,2.008,1.8891,1.6901,1.5012,0.0,0.0,1.0995,1.0233,0.0,0.8553,0.9481,0.0,0.0,0.0,0.8856,0.0,0.0,0.0,0.0,0.0,0.0,0.0,0.0,2.3845,0.0,2.6376,0.0,0.0,0.0,0.0,0.0,0.0,0.0,0.0,0.0,3.5996,3.5996,3.5995,3.5949,3.5524,3.5376,3.5635,3.4865,3.4762,3.5572,3.519,3.517,3.5611,3.5148,3.4896,3.4896,3.4873,3.4853,3.4853,3.4853,3.4603,3.4186,3.3744,3.348,3.3274,3.2438,3.201,3.176,3.0502,3.0025,3.0044,3.0044,3.0044,3.0059,1.6625,1.6837,1.7282,1.8562,1.95,1.9925,1.9571,2.0138,2.0234,1.9231,1.8346,1.7486,1.6606,1.5071,1.3471,1.1918,1.111,1.0276,0.932,0.9233,0.8878,0.8015,0.78,0.7429,0.6831,0.8631,0.9912,1.0556,1.3022,1.4606,1.5351,1.5325,1.5887,1.6858,1.547,1.5274,0.0,0.0,0.0,1.6022,0.0,1.8736,1.8823,2.0907,2.1311,2.0842,2.1356,2.0828,1.9686,1.8187,1.5865,1.3634,1.3499,1.2709,0.0,0.0,0.0,0.0,0.0,0.0,0.0,0.0,0.0,0.9701,0.0,0.0,0.0,0.0,0.0,0.0,0.0,0.0,0.0,0.0,0.0,0.0,0.0,0.0,0.0,0.0,0.0,0.0,0.0,3.5351,3.5446,3.5866,3.4659,3.4425,3.5632,3.4958,3.488,3.5668,3.5707,3.5626,3.547,3.4689,3.4216,3.4057,3.3972,3.4032,3.4225,3.493,3.4968,3.4449,3.4449,3.4307,3.4007,3.3298,3.2863,3.2526,3.0944,3.0362,3.0404,3.0404,3.0404,3.0404,1.7688,1.7747,1.8174,1.9286,1.9723,2.0016,2.0226,2.0052,1.9552,1.8538,1.8307,1.8198,1.8045,1.692,1.5837,1.5051,1.431,1.3024,1.0964,1.0849,1.0303,0.9088,0.8172,0.767,0.7584,0.8622,0.933,0.9646,1.2007,1.3735,1.48,1.4677,1.4944,1.5517,1.5447,1.55,0.0,0.0,1.7012,0.0,1.9206,1.856,0.0,2.0707,2.129,2.0719,2.087,2.0807,2.0286,0.0,1.6429,1.5399,0.0,1.3004,1.3928,0.9977,0.0,0.0,0.0,0.0,0.0,0.0,0.8802,0.0,0.0,0.0,0.0,0.0,0.0,0.0,0.0,0.0,0.0,0.0,0.0,0.0,0.0,0.0,0.0,0.0,0.0,0.0,0.0,3.3047,3.3532,3.5749,3.3058,3.2601,3.5538,3.4986,3.4932,3.5687,3.5707,3.5353,3.4646,3.4413,3.3902,3.3151,3.308,3.3449,3.4205,3.4302,3.4718,3.5346,3.5346,3.52,3.4859,3.3788,3.3337,3.3176,3.1974,3.1046,3.0404,3.0404,3.0404,3.0404,1.8414,1.8498,1.8754,1.9487,2.0113,2.0568,2.0676,2.1,2.0996,2.0241,2.0173,2.0003,1.9563,1.8563,0.0,0.0,0.0,1.4181,0.0,0.0,1.1032,0.9601,0.9155,0.8671,0.8113,0.9175,0.9893,1.0198,1.2338,1.3831,1.4642,1.478,1.5608,1.6982,1.6993,1.7257,1.7669,0.0,1.7485,0.0,0.0,0.0,0.0,2.1395,2.2634,2.2351,2.2024,2.1643,2.1075,0.0,1.7622,0.0,0.0,0.0,0.0,0.0,0.0,0.0,0.0,0.0,0.0,0.0,0.0,0.0,0.7599,0.0,0.6877,0.0,0.0,0.0,0.0,0.0,0.0,0.0,0.0,0.0,0.0,0.0,0.0,0.0,0.0,0.0,0.0,0.0,0.0,0.0,3.2811,3.2361,3.5701,3.5105,3.5028,3.5856,3.5346,3.49,3.4569,3.3413,3.2681,3.2304,3.2237,3.2391,3.2776,3.3763,3.4398,3.4769,3.5116,3.5113,3.4832,3.4357,3.3763,3.3112,3.2428,3.1661,3.0884,3.0535,3.0404,3.0404,1.9057,1.9016,1.9063,1.957,2.0269,2.0807,2.0852,2.1432,2.1656,2.1104,2.1029,2.0886,2.0507,1.9535,0.0,0.0,1.6698,1.5378,0.0,0.0,1.2005,1.0429,1.0158,0.0,0.8643,0.9573,1.0174,1.0337,1.2213,1.3643,1.4624,1.4957,1.6113,1.7961,1.7892,1.8324,1.9076,0.0,1.8269,1.7792,1.8874,1.9123,1.9177,2.2003,2.3295,2.3508,2.292,2.2392,2.1829,2.0832,1.8712,0.0,1.7926,0.0,0.0,0.0,0.0,0.0,1.2075,0.0,0.0,0.0,0.0,0.0,0.0,0.0,0.0,0.0,0.0,0.0,0.0,0.0,0.0,0.0,0.0,0.0,0.0,0.0,0.0,0.0,0.0,0.0,0.0,0.0,0.0,0.0,0.0,3.1601,3.5661,3.5136,3.5097,3.5954,3.5109,3.4496,3.4252,3.2649,3.1693,3.1446,3.1375,3.1468,3.1756,3.3179,3.3975,3.4237,3.4914,3.5027,3.4694,3.4694,3.4116,3.3189,3.2864,3.2389,3.1749,3.0759,3.0404,3.0404,1.9671,1.9291,1.909,1.9682,2.0031,2.0325,2.0655,2.0715,2.0541,0.0,0.0,0.0,0.0,0.0,0.0,0.0,0.0,1.71,1.5136,0.0,1.3554,1.1797,1.111,1.0262,0.0,0.9524,0.9634,0.9432,1.0938,1.271,1.4706,1.4975,1.5891,1.7326,1.7324,1.788,1.8799,1.8727,1.998,2.1949,2.1283,2.2058,2.3446,0.0,2.2532,2.3508,2.292,0.0,0.0,2.0404,1.9496,0.0,0.0,0.0,0.0,0.0,0.0,0.0,0.0,0.0,0.0,1.0149,0.0,0.0,0.0,0.0,0.6317,0.0,0.0,0.0,0.0,0.0,0.0,0.0,0.0,0.0,0.0,0.0,0.0,0.0,0.0,0.0,0.0,0.0,0.0,0.0,0.0,0.0,3.53,3.5034,3.5075,3.5885,3.5112,3.4255,3.3355,3.2382,3.1442,3.0537,3.0477,3.0885,3.1737,3.2564,3.3391,3.4244,3.5115,3.519,3.4694,3.4694,3.4323,3.3739,3.3476,3.3363,3.3082,3.1127,3.0404,3.0404,1.9761,1.9627,1.9575,1.9758,1.989,2.0117,2.0682,2.0383,0.0,0.0,0.0,0.0,0.0,2.1395,2.0931,0.0,0.0,1.8572,1.595,1.5318,0.0,0.0,0.0,1.1063,0.0,1.0095,0.9763,0.9195,1.0991,1.2693,1.424,1.4834,1.5891,1.734,1.8173,1.9003,0.0,0.0,0.0,0.0,0.0,2.1143,2.2254,0.0,0.0,2.3688,2.34,2.3031,0.0,2.1902,2.0733,1.9642,2.007,1.9188,1.8039,1.836,1.8289,1.785,0.0,0.0,1.7654,1.2871,0.0,0.0,0.0,0.0,0.0,0.0,0.0,0.0,0.0,0.0,0.0,0.0,0.0,0.0,0.0,0.0,0.0,0.0,0.0,0.0,0.0,0.0,0.0,0.0,0.0,0.0,0.0,3.5602,3.5623,3.5882,3.443,3.3485,3.3163,3.1654,3.0747,3.0425,3.0408,3.0558,3.0885,3.2275,3.3064,3.3404,3.468,3.5025,3.4684,3.4456,3.4253,3.4012,3.3577,3.3507,3.3468,3.1852,3.125,3.1173,2.0105,2.0156,2.008,1.985,2.0003,2.0371,2.1015,0.0,0.0,0.0,2.1563,0.0,2.2241,0.0,2.1626,0.0,2.0782,1.9546,1.7058,1.6526,0.0,1.4491,1.357,0.0,0.0,0.0,1.0376,0.9644,1.0893,1.2448,1.4264,1.4689,1.5669,1.7108,1.7969,1.8967,2.0053,0.0,2.1324,0.0,0.0,2.1809,0.0,0.0,2.3446,2.3258,0.0,2.3629,2.3267,2.3076,2.2155,2.1241,2.2092,2.1058,1.9711,2.0567,2.0215,1.9384,1.8706,1.9879,0.0,1.5668,1.5632,0.0,1.0392,0.0,0.0,0.0,0.0,0.0,0.0,0.0,0.0,0.0,0.0,0.0,0.0,0.0,0.0,0.0,0.0,0.0,0.0,0.0,0.0,0.0,0.0,0.0,0.0,0.0,3.5758,3.5409,3.3936,3.2977,3.2632,3.1177,3.0422,3.0404,3.0404,3.0404,3.0462,3.2141,3.2891,3.2981,3.4565,3.5096,3.4841,3.4605,3.4394,3.4186,3.3939,3.397,3.3963,3.2626,3.1948,3.1583,2.0761,2.0911,2.0763,2.0156,2.0434,2.0999,0.0,0.0,2.1619,0.0,2.1654,2.1837,2.2279,2.1606,2.1318,2.1861,2.1132,2.0005,1.8483,1.8164,0.0,0.0,1.5576,1.4523,1.2554,0.0,0.0,0.0,1.0619,1.2027,1.4714,1.4564,1.5301,1.673,1.6779,0.0,1.9657,2.0367,2.1814,2.3589,2.3506,2.3924,2.4554,2.4367,2.3402,2.2375,2.3904,2.443,2.4348,2.3815,2.3638,2.3638,2.3595,2.3595,2.3595,2.3595,2.3595,2.3206,2.135,2.0868,2.0404,1.8371,1.7731,0.0,0.0,0.0,1.2569,0.0,0.0,0.0,0.0,0.0,0.0,0.0,0.0,0.0,0.0,0.0,0.0,0.0,0.0,0.0,0.0,0.0,0.0,0.0,0.0,0.0,0.0,0.0,3.5273,3.4452,3.3579,3.2698,3.179,3.0924,3.0467,3.0404,3.0404,3.0423,3.0519,3.216,3.291,3.3064,3.475,3.5354,3.5105,3.5105,3.4746,3.4265,3.4572,3.4704,3.4585,3.3408,3.2449,3.1641,2.207,2.2599,2.3066,0.0,2.161,2.0818,0.0,0.0,0.0,0.0,2.2497,2.2366,2.2837,2.2703,2.2378,2.1928,2.169,0.0,0.0,0.0,0.0,1.7873,1.6901,1.5555,1.3868,1.2609,0.0,1.0963,0.0,1.2203,1.4714,1.4564,1.5443,1.7143,1.6895,1.793,1.9844,2.0295,2.1633,2.3494,2.4124,2.3784,2.3096,0.0,2.4637,2.3444,2.4583,2.4992,2.491,2.4369,2.4184,2.4137,2.3724,2.3595,2.3595,2.3595,2.3595,2.349,2.2996,2.3214,2.3005,2.0539,2.0281,1.9845,0.0,0.0,0.0,0.0,0.0,0.0,0.0,0.0,0.0,0.0,0.0,0.0,0.0,0.0,0.0,0.0,0.0,0.0,0.0,0.0,0.0,0.0,0.0,0.0,0.0,0.0,0.0,3.3508,3.258,3.1976,3.1725,3.0852,3.0425,3.0404,3.0404,3.0731,3.141,3.2429,3.3256,3.3936,3.5019,3.5354,3.5105,3.5105,3.4889,3.4572,3.4663,3.4813,3.4911,3.4155,3.3333,3.2564,2.3361,0.0,0.0,2.5384,0.0,0.0,2.3832,2.2367,0.0,2.2795,2.2631,0.0,2.2706,2.2955,2.2914,2.2445,2.2414,0.0,2.0695,0.0,0.0,1.9332,1.8351,1.7233,1.5912,1.4427,0.0,1.2366,0.0,1.2775,1.4264,1.4428,1.4915,1.5674,1.6457,1.7431,1.8617,2.0416,2.1989,2.3354,2.4256,2.4347,0.0,2.554,2.5642,2.5092,2.5658,2.5709,2.5468,2.4914,2.4752,2.4712,2.4389,2.4287,2.4246,2.4012,2.3948,2.39,2.3659,2.4081,2.4321,2.3125,2.3355,2.3163,2.0538,1.9923,1.9387,0.0,1.6582,1.5374,0.0,0.0,0.0,0.0,0.0,0.0,0.0,0.0,0.0,0.0,0.0,0.0,0.0,0.0,0.0,0.0,0.0,0.0,0.0,0.0,0.0,3.2004,3.1476,3.116,3.1135,3.0307,3.0056,3.0404,3.0404,3.0865,3.1737,3.2526,3.3372,3.4244,3.5115,3.5405,3.5262,3.5262,3.5113,3.4851,3.4763,3.4784,3.4897,3.4668,3.4112,3.341,2.478,0.0,0.0,0.0,0.0,0.0,0.0,2.3549,0.0,2.2533,0.0,2.248,2.2397,2.2827,2.3108,2.3108,0.0,2.2694,2.1769,2.1921,2.1565,2.0475,1.9931,1.9092,1.7929,1.6584,0.0,0.0,0.0,1.3417,1.3622,1.4167,1.4193,1.386,1.5775,0.0,0.0,2.0801,2.2647,2.3328,2.4315,2.5277,2.6122,2.6163,2.6391,2.6691,2.6691,2.6436,2.6015,2.5468,2.5297,2.5297,2.5221,2.5202,2.5105,2.4652,2.4511,2.441,2.3943,2.4232,2.4837,2.5521,2.6152,2.6096,2.4184,2.3291,2.2189,1.9929,1.7998,1.6836,0.0,0.0,0.0,0.0,0.0,0.0,0.0,0.0,0.0,0.0,0.0,0.0,0.0,0.0,0.0,0.0,0.0,0.0,0.0,0.0,0.0,3.0517,3.0509,3.0409,3.024,0.0,2.9656,3.0235,3.0352,3.0904,3.1891,3.2583,3.343,3.441,3.5173,3.55,3.55,3.55,3.5346,3.5079,3.4793,3.4714,3.4774,3.5008,3.4783,3.4257,2.6731,0.0,0.0,0.0,0.0,2.5975,2.5992,2.3981,2.2624,2.3083,2.3133,2.3093,2.2968,2.3042,2.3108,2.3108,2.3108,0.0,0.0,0.0,0.0,2.1646,2.1491,2.0342,1.7953,1.716,1.5691,0.0,0.0,1.3246,1.3134,1.3723,1.4444,1.5248,1.5642,0.0,1.9472,2.1683,0.0,2.4111,2.5338,2.5916,2.6143,2.6464,2.6639,2.6691,2.6691,2.6657,2.6487,2.6015,2.587,2.5781,2.5335,2.5202,2.5182,2.5105,2.5067,2.5047,2.495,2.5009,2.528,2.6068,2.6335,2.6489,2.678,2.6723,2.6335,2.5286,2.4331,2.2751,1.9848,0.0,0.0,0.0,0.0,0.0,0.0,0.0,0.0,0.0,0.0,0.0,0.0,0.0,0.0,0.0,0.0,0.0,0.0,0.0,0.0,0.0,3.0486,0.0,0.0,0.0,2.9924,2.9419,3.007,3.1192,3.2699,3.2833,3.3776,3.5269,3.5423,3.55,3.55,3.55,3.5346,3.5079,3.4793,3.4841,3.5044,3.5088,3.5159,3.525,2.9415,0.0,0.0,0.0,0.0,0.0,0.0,2.5941,2.4559,2.3487,2.3686,2.3915,2.3825,2.4123,2.4295,2.4295,2.4295,2.4134,2.3738,2.3708,2.3352,2.2567,2.2125,0.0,1.9998,1.9243,1.7662,1.5149,0.0,1.4429,1.3078,1.3856,1.4323,1.4572,0.0,1.7539,0.0,0.0,0.0,2.4064,2.5479,2.6199,2.6428,2.6639,2.6691,2.6691,2.6691,2.6691,2.6674,2.6436,2.6367,2.6332,2.6052,2.598,2.5928,2.5689,2.5615,2.5542,2.5278,2.5474,2.5863,2.629,2.6684,2.7095,2.751,2.7306,2.693,2.6563,2.5906,2.4327,2.0745,1.6617,0.0,0.0,0.0,0.0,0.0,0.0,0.0,0.0,0.0,0.0,0.0,0.0,0.0,0.0,0.0,0.0,0.0,0.0,0.0,0.0,0.0,0.0,0.0,0.0,0.0,2.9823,3.0664,3.1718,3.291,3.3372,3.4276,3.55,3.55,3.55,3.55,3.55,3.5346,3.5088,3.4954,3.4981,3.5105,3.5105,3.5273,3.55,0.0,3.0923,0.0,0.0,2.9365,2.8373,2.842,2.8037,2.6845,2.4364,2.4533,2.485,2.4722,2.5114,2.5398,2.5398,2.5398,2.5147,2.4567,2.4538,2.425,2.3619,2.2816,2.2329,2.2132,2.1322,1.9663,0.0,0.0,0.0,1.3631,1.4228,1.4422,1.4365,0.0,0.0,0.0,0.0,2.349,2.4127,2.557,2.6367,2.6691,2.6691,2.6691,2.6691,2.6691,2.6691,2.6691,2.6691,2.6691,2.6691,2.6691,2.6691,2.6641,2.6262,2.6156,2.605,2.5635,2.6059,2.6634,2.6735,2.7325,2.7865,2.7972,2.754,2.7067,2.6953,2.6242,2.4597,2.1193,1.8604,0.0,0.0,0.0,0.0,0.0,0.0,0.0,0.0,0.0,0.0,0.0,0.0,0.0,0.0,0.0,0.0,0.0,0.0,0.0,0.0,0.0,2.9535,3.0133,0.0,3.0056,3.0714,3.1557,3.2372,3.3199,3.3898,3.468,3.55,3.55,3.55,3.55,3.55,3.5376,3.519,3.519,3.519,3.519,3.519,3.5312,3.55,0.0,0.0,0.0,0.0,0.0,2.9107,2.9194,2.9141,2.8381,2.6384,2.6189,2.598,2.537,2.5356,2.5398,2.5398,2.5398,2.537,2.5287,2.5287,2.5259,2.5203,2.4467,2.3715,2.291,2.2151,2.0673,0.0,0.0,1.6745,1.5357,1.4784,1.5314,1.6814,0.0,0.0,0.0,2.3011,2.4182,2.5142,2.6213,2.6657,2.6691,2.6691,2.6691,2.6691,2.6691,2.6691,2.6691,2.6691,2.6691,2.6691,2.6691,2.6691,2.6691,2.6657,2.6641,2.6624,2.6573,2.7094,2.7709,2.7895,2.8518,2.906,2.9201,2.9164,2.8957,2.8424,2.7287,2.5326,2.1796,2.1141,1.9902,0.0,0.0,0.0,0.0,0.0,0.0,0.0,0.0,0.0,0.0,0.0,0.0,0.0,0.0,0.0,0.0,0.0,0.0,3.0313,0.0,2.9177,2.9316,3.0728,3.1532,3.168,3.2426,3.3237,3.409,3.4167,3.468,3.55,3.55,3.55,3.55,3.55,3.5493,3.5453,3.5453,3.5453,3.5453,3.5453,3.5486,3.55,0.0,0.0,0.0,0.0,0.0,0.0,0.0,3.0611,3.0191,2.9026,2.8561,2.8068,2.7401,2.7329,2.7169,2.6762,2.6733,2.6534,2.6095,2.6068,2.5864,2.5425,2.5119,2.4796,2.4458,2.3715,2.2419,0.0,0.0,0.0,1.6395,1.6968,1.7988,1.9294,2.0152,2.0977,2.1839,2.3779,2.4823,2.5297,2.6298,2.6691,2.6691,2.6691,2.6691,2.6691,2.6691,2.6691,2.6691,2.6691,2.6691,2.6691,2.6691,2.6691,2.6691,2.6691,2.6691,2.6691,2.6691,2.7588,2.8442,2.8166,2.8988,2.9784,2.9476,2.9406,2.9339,2.9088,2.8615,2.7443,2.4846,2.3412,2.2356,2.1578,0.0,0.0,0.0,0.0,0.0,0.0,0.0,0.0,0.0,0.0,0.0,0.0,0.0,0.0,0.0,0.0,0.0,2.7026,0.0,2.9718,2.9149,3.0881,3.2006,3.2463,3.3282,3.3859,3.4225,3.4737,3.5173,3.55,3.55,3.55,3.55,3.55,3.55,3.55,3.55,3.55,3.55,3.55,3.55,3.55,3.2819,3.2119,3.158,3.2163,3.137,3.0827,3.1402,3.1511,3.1331,3.0866,3.0417,2.9834,2.8981,2.8891,2.8607,2.7959,2.7899,2.7605,2.6867,2.6826,2.6575,2.6081,2.5837,0.0,2.5728,2.5007,2.4036,2.2868,2.1533,0.0,1.8837,1.9445,2.0287,2.1325,2.1838,2.223,2.2616,2.4595,2.5446,2.5505,2.635,2.6691,2.6691,2.6691,2.6691,2.6691,2.6691,2.6691,2.6691,2.6691,2.6691,2.6691,2.6691,2.6691,2.6691,2.6691,2.6691,2.6691,2.6691,2.7842,2.8901,2.8477,2.946,3.0456,3.0038,2.993,2.987,2.9695,2.9518,2.898,2.7595,2.5918,2.4837,2.5212,0.0,0.0,0.0,0.0,0.0,0.0,0.0,1.9208,0.0,0.0,0.0,0.0,0.0,0.0,0.0,0.0,0.0,0.0,0.0,0.0,0.0,3.1762,3.2902,3.368,3.4295,3.4584,3.4603,3.5212,3.55,3.55,3.55,3.55,3.55,3.55,3.55,3.55,3.55,3.55,3.55,3.55,3.55,3.55,3.1314,3.142,3.1429,3.1513,3.1427,3.1401,3.1506,3.1511,3.1511,3.1496,3.1481,3.0987,2.9741,2.9592,2.9337,2.8652,2.8592,2.8293,2.7645,2.76,2.7575,0.0,0.0,2.6484,2.6484,2.5755,2.5384,2.537,0.0,0.0,2.3397,2.1874,2.1702,2.2684,2.2905,2.3497,2.444,2.5524,2.5979,2.6031,2.6505,2.6691,2.6691,2.6691,2.6691,2.6691,2.6691,2.6691,2.6691,2.6691,2.6691,2.6691,2.6691,2.6691,2.6691,2.6691,2.6691,2.6691,2.6691,2.7842,2.8993,2.8993,3.0091,3.119,3.1171,3.1171,3.1015,3.0414,2.9805,2.9384,2.9361,2.8762,2.754,2.5366,0.0,0.0,0.0,0.0,0.0,0.0,2.0471,1.9911,2.449,0.0,0.0,0.0,0.0,0.0,0.0,0.0,0.0,3.2894,3.2205,0.0,3.3044,3.3804,3.4603,3.5462,3.5481,3.5481,3.5481,3.55,3.55,3.55,3.55,3.55,3.55,3.55,3.55,3.55,3.55,3.55,3.55,3.55,3.55,3.55,3.1419,3.1478,3.1463,3.1507,3.1473,3.1483,3.1495,3.1511,3.1511,3.1511,3.1511,3.1346,3.0928,3.0492,2.9953,0.0,2.8861,2.8502,0.0,2.7854,2.76,2.76,2.7382,2.7255,2.7255,2.6522,2.6149,2.6149,0.0,0.0,2.5515,2.4387,2.4571,2.5821,2.5429,2.5134,2.4989,2.5689,2.6013,2.6049,2.6505,2.6691,2.6691,2.6691,2.6691,2.6691,2.6691,2.6873,2.7115,2.7115,2.7303,2.7515,2.7515,2.7147,2.6758,2.7019,2.6923,2.6691,2.6691,2.7842,2.8993,2.8993,3.0127,3.119,3.119,3.119,3.1035,3.0435,3.0477,3.0393,2.9563,2.9536,2.9296,2.8174,2.8401,0.0,0.0,0.0,0.0,0.0,2.1806,2.0739,0.0,1.8965,0.0,0.0,0.0,0.0,0.0,0.0,0.0,0.0,3.152,0.0,3.2216,3.3576,3.4679,3.55,3.55,3.55,3.55,3.55,3.55,3.55,3.55,3.55,3.55,3.55,3.55,3.55,3.55,3.55,3.55,3.55,3.55,3.55,3.1511,3.1511,3.1511,3.1511,3.1511,3.1511,3.1511,3.1511,3.1511,3.1511,3.1511,3.1511,3.1511,3.1122,3.0627,2.9983,2.934,2.8861,2.8622,2.7974,2.76,2.76,2.76,2.76,2.76,2.7152,0.0,2.6904,2.6086,2.6201,2.7239,2.6387,2.6455,2.7283,2.6816,2.6186,2.5524,2.605,2.6262,2.6297,2.659,2.6691,2.6708,2.6873,2.6923,2.6955,2.7099,2.7319,2.7532,2.7532,2.7678,2.7926,2.8047,2.7663,2.7178,2.7272,2.7241,2.7115,2.6971,2.8167,2.9455,2.9455,3.0448,3.143,3.143,3.131,3.1134,3.0911,3.1024,3.0975,3.0208,3.0393,3.0518,3.0145,3.0081,2.9948,2.9593,0.0,0.0,0.0,0.0,0.0,0.0,2.1375,0.0,0.0,0.0,0.0,0.0,0.0,0.0,3.0453,3.2865,0.0,3.3262,3.4255,3.5001,3.55,3.55,3.55,3.55,3.55,3.55,3.55,3.55,3.55,3.55,3.55,3.55,3.55,3.55,3.55,3.55,3.55,3.55,3.55,3.1511,3.1511,3.1511,3.1511,3.1511,3.1511,3.1511,3.1511,3.1511,3.1511,3.1511,3.1511,3.1511,3.1511,3.1241,3.0627,2.9998,0.0,2.8712,2.8049,2.7645,2.76,2.76,2.76,2.76,2.76,2.76,2.76,2.76,2.7919,2.8543,2.7922,2.7573,2.7488,2.7325,2.6809,2.6151,2.6538,2.6691,2.6691,2.6725,2.6741,2.6791,2.7194,2.7332,2.7378,2.7768,2.7911,2.794,2.794,2.7954,2.8037,2.8342,2.8224,2.7911,2.7485,2.7619,2.7826,2.7439,2.8741,3.0198,3.0198,3.1007,3.1825,3.1843,3.1545,3.1351,3.1752,3.1526,3.1252,3.1271,3.1252,3.1252,3.1271,3.1147,3.0417,2.861,2.8213,2.686,0.0,0.0,0.0,0.0,2.4875,2.6642,0.0,0.0,0.0,0.0,0.0,2.9492,3.5512,3.5709,3.5707,3.5707,3.5574,3.55,3.55,3.55,3.55,3.55,3.5494,3.5494,3.55,3.5494,3.5494,3.55,3.55,3.55,3.55,3.55,3.55,3.55,3.55,3.55,3.55,3.1511,3.1511,3.1511,3.1511,3.1511,3.1511,3.1511,3.1511,3.1511,3.1511,3.1511,3.1511,3.1511,3.1511,3.1436,3.1271,3.0672,3.0013,2.9385,2.8727,2.8113,2.7615,2.76,2.76,2.76,2.76,2.76,2.76,2.76,2.8149,2.918,2.9028,2.913,2.941,2.8822,2.8103,2.7346,2.6877,2.6691,2.6725,2.7035,2.7162,2.721,2.7604,2.7768,2.7783,2.7869,2.8061,2.829,2.829,2.8495,2.8737,2.8839,2.8803,2.8663,2.8264,2.8034,2.7883,2.7779,2.8938,3.0198,3.0198,3.1007,3.188,3.2247,3.1986,3.1788,3.223,3.1968,3.177,3.2144,3.1914,3.177,3.2127,3.0697,2.9357,2.8894,2.7247,2.5786,0.0,2.4711,2.5157,2.65,2.7153,2.7314,0.0,0.0,0.0,0.0,3.0177,3.1891,3.5724,3.5757,3.5707,3.5707,3.5574,3.55,3.55,3.55,3.55,3.5507,3.5538,3.5552,3.5507,3.5544,3.5546,3.55,3.55,3.55,3.55,3.55,3.55,3.55,3.55,3.55,3.55,3.157,3.1511,3.1511,3.1511,3.1511,3.1511,3.1511,3.1511,3.1511,3.1511,3.1511,3.1511,3.1511,3.1511,3.1511,3.1511,3.0883,3.0357,3.0028,2.9131,2.8427,2.8053,2.7764,2.76,2.76,2.76,2.76,2.76,2.7885,2.8496,2.9406,2.9673,2.9914,3.0072,2.9685,2.8873,2.7773,2.7367,2.7114,2.6987,2.721,2.7409,2.7604,2.7992,2.8129,2.8156,2.8334,2.852,2.867,2.867,2.8827,2.9005,2.9005,2.9005,2.897,2.8749,2.8545,2.836,2.817,2.9412,3.088,3.1422,3.1848,3.223,3.2713,3.2281,3.1986,3.2681,3.2451,3.2196,3.2451,3.2299,3.2196,3.2467,3.0525,2.9058,2.9248,2.7227,2.6132,2.7192,2.7081,2.7555,2.9154,2.9625,2.9533,2.8899,3.0338,0.0,3.1759,3.2745,3.4105,3.5841,3.5772,3.5707,3.5707,3.5574,3.55,3.55,3.55,3.5528,3.5546,3.5558,3.5558,3.5546,3.5558,3.5558,3.554,3.5515,3.5509,3.5534,3.5515,3.55,3.55,3.55,3.55,3.55,3.163,3.1511,3.1511,3.1511,3.1511,3.1511,3.1511,3.1511,3.1511,3.1511,3.1511,3.1511,3.1511,3.1511,3.1511,3.1511,3.0972,3.0612,3.0507,2.94,2.8712,2.8607,2.7959,2.76,2.76,2.7685,2.7735,2.7735,2.8343,2.8943,2.954,3.0059,3.0285,3.026,3.014,2.9362,2.8128,2.7908,2.7674,2.7459,2.74,2.7619,2.8006,2.8355,2.8484,2.854,2.8893,2.9005,2.9005,2.9005,2.9005,2.9005,2.9005,2.9005,2.9005,2.9005,2.9005,2.8947,2.8735,3.0092,3.1871,3.2998,3.2952,3.2729,3.3199,3.2631,3.2247,3.3121,3.2937,3.2632,3.2697,3.2648,3.2475,3.2086,3.0125,2.875,2.8991,2.7334,2.6979,2.9305,2.9419,2.992,3.1567,3.1777,3.21,3.2777,3.3605,3.4434,3.5261,3.557,3.5783,3.59,3.5763,3.5693,3.5659,3.555,3.55,3.55,3.55,3.5522,3.5574,3.554,3.5546,3.5605,3.5552,3.5562,3.5611,3.5544,3.5568,3.5611,3.5558,3.5528,3.5521,3.5521,3.5508,3.55,3.163,3.1511,3.1511,3.1511,3.1511,3.1511,3.1511,3.1511,3.1511,3.1511,3.1511,3.1511,3.1511,3.1511,3.1511,3.1511,3.1406,3.1092,3.0537,2.9834,2.9175,2.8622,2.7959,2.76,2.76,2.8091,2.8359,2.8359,2.895,2.9563,3.0166,3.0251,3.0551,3.1004,3.0378,2.9973,2.9649,2.8348,2.7964,2.8188,2.7929,2.802,2.8368,2.8761,2.8917,2.8917,2.8982,2.9005,2.9005,2.9005,2.9005,2.9005,2.9005,2.9005,2.9005,2.9005,2.9005,2.914,2.9765,3.1132,3.2619,3.3483,3.339,3.3196,3.3606,3.3328,3.3121,3.3606,3.3375,3.3199,3.3536,3.3317,3.2376,3.0155,2.8305,2.6976,2.6461,2.6215,2.6979,2.9305,3.0984,3.2033,3.233,3.2567,3.291,3.3424,3.4049,3.468,3.5271,3.5668,3.5886,3.5902,3.578,3.5657,3.5528,3.5508,3.55,3.55,3.55,3.5514,3.5528,3.5568,3.559,3.5596,3.5646,3.5667,3.5682,3.5667,3.5687,3.5682,3.5667,3.5639,3.5574,3.5574,3.5552,3.55,3.1705,3.1511,3.1511,3.1511,3.1511,3.1511,3.1511,3.1511,3.1511,3.1511,3.1511,3.1511,3.1511,3.1511,3.1511,3.1511,3.1511,3.1376,3.1047,3.0447,2.9789,2.916,2.8487,2.7974,2.76,2.8189,2.8487,2.8487,2.9429,3.0038,3.0293,3.0638,3.0918,3.119,3.0835,3.048,3.0021,2.8924,2.8562,2.8658,2.8111,2.8228,2.8749,2.8929,2.9005,2.9005,2.9005,2.9005,2.9005,2.9005,2.9005,2.9005,2.9005,2.9005,2.9005,2.9005,2.9005,2.9262,3.0503,3.1384,3.2247,3.3495,3.3494,3.3302,3.3707,3.3494,3.3317,3.3721,3.3648,3.3578,3.378,3.3652,3.2793,3.0523,2.9318,2.8646,2.8568,2.8438,2.9228,3.158,3.278,3.3423,3.3423,3.3687,3.4022,3.4384,3.4702,3.5066,3.5491,3.576,3.5877,3.5785,3.5694,3.5605,3.55,3.55,3.55,3.55,3.55,3.5515,3.5544,3.5599,3.5631,3.5655,3.5686,3.5732,3.5802,3.5723,3.5732,3.5802,3.5723,3.5678,3.5646,3.5616,3.5588,3.5552,3.1959,3.1615,3.1511,3.1511,3.1511,3.1511,3.1511,3.1511,3.1511,3.1511,3.1511,3.1511,3.1511,3.1511,3.1511,3.1511,3.1511,3.1511,3.1511,3.1017,3.0387,2.9636,2.8801,2.8252,2.8018,2.8472,2.8779,2.8919,2.9995,3.0497,3.0518,3.0995,3.119,3.119,3.119,3.0886,3.0311,2.9399,2.911,2.918,2.8272,2.8352,2.9005,2.9005,2.9005,2.9005,2.9005,2.9005,2.9005,2.9005,2.9005,2.9005,2.9005,2.9005,2.9005,2.9005,2.9133,2.9592,3.0999,3.1544,3.2008,3.344,3.3564,3.3422,3.3734,3.3564,3.3437,3.3734,3.3807,3.3807,3.3807,3.3807,3.309,3.0876,3.0395,3.0342,3.0509,3.0395,3.1192,3.3603,3.4062,3.4223,3.4311,3.4627,3.4896,3.5106,3.5277,3.5485,3.5726,3.5853,3.5859,3.5694,3.5611,3.5558,3.55,3.55,3.55,3.55,3.55,3.5534,3.5577,3.5577,3.5616,3.5707,3.5707,3.578,3.5914,3.5819,3.5828,3.5914,3.5819,3.575,3.5743,3.5642,3.5616,3.559,3.2587,3.1929,3.1511,3.1511,3.1511,3.1511,3.1511,3.1511,3.1511,3.1511,3.1511,3.1511,3.1511,3.1511,3.1511,3.1511,3.1511,3.1511,3.1511,3.1451,3.0896,2.9666,2.8364,2.8171,2.9248,2.9316,2.9607,3.0166,3.0818,3.1131,3.1114,3.1171,3.119,3.119,3.119,3.1157,3.1021,2.9602,2.9386,2.9894,2.847,2.8352,2.9005,2.9005,2.9005,2.9005,2.9005,2.9005,2.9005,2.9005,2.9005,2.9005,2.9005,2.9005,2.9005,2.9005,2.9537,3.0301,3.1176,3.1935,3.2711,3.3587,3.3793,3.3762,3.3775,3.3793,3.3762,3.3788,3.3807,3.3807,3.3807,3.3807,3.283,2.9909,2.9912,3.0084,2.9493,2.993,3.1255,3.3864,3.4195,3.4334,3.4643,3.4966,3.5165,3.5198,3.5601,3.5869,3.5877,3.595,3.5908,3.571,3.5571,3.5494,3.55,3.55,3.55,3.55,3.55,3.5507,3.5501,3.5501,3.5582,3.5707,3.5707,3.5806,3.5996,3.5976,3.5976,3.5996,3.5976,3.5948,3.5871,3.5746,3.565,3.559,3.2647,3.1959,3.1511,3.1511,3.1511,3.1511,3.1511,3.1511,3.1511,3.1511,3.1511,3.1511,3.1511,3.1511,3.1511,3.1511,3.1511,3.1511,3.1511,3.1938,3.1414,2.9693,2.9018,2.8764,2.885,2.9585,3.0081,3.0293,3.0898,3.119,3.119,3.119,3.119,3.119,3.119,3.119,3.1142,3.0376,3.0056,3.0033,2.9258,2.8962,2.9005,2.9005,2.9005,2.9005,2.9005,2.9005,2.9005,2.9005,2.9005,2.9005,2.9005,2.9005,2.9005,2.9005,2.9574,3.0375,3.1182,3.199,3.2784,3.3605,3.3807,3.3807,3.3807,3.3807,3.3807,3.3807,3.3807,3.3807,3.3807,3.3807,3.3021,3.0668,3.1515,3.2033,3.077,3.1818,3.3167,3.437,3.4665,3.4803,3.4944,3.5247,3.5452,3.5452,3.5733,3.5901,3.5901,3.5854,3.5766,3.5629,3.5552,3.55,3.55,3.55,3.55,3.55,3.55,3.55,3.5507,3.5534,3.5616,3.5707,3.5797,3.5893,3.5996,3.5996,3.5996,3.5996,3.5996,3.5976,3.5949,3.5853,3.5768,3.565,3.3215,3.2602,3.2049,3.1854,3.1809,3.1735,3.154,3.1511,3.1511,3.1511,3.1511,3.1582,3.1824,3.1853,3.1853,3.1853,3.1853,3.1853,3.1853,3.2291,3.1934,3.0552,2.9785,2.9384,2.9361,2.9957,3.0393,3.058,3.0995,3.119,3.119,3.119,3.119,3.119,3.119,3.1271,3.1359,3.0886,3.0551,3.0282,2.979,2.9366,2.9005,2.9005,2.9005,2.9005,2.9005,2.9005,2.9005,2.9005,2.9005,2.9005,2.9005,2.9005,2.9005,2.9005,2.9739,3.0705,3.125,3.2173,3.3109,3.366,3.3807,3.3807,3.3807,3.3807,3.3807,3.3807,3.3807,3.3807,3.3807,3.3807,3.3395,3.2143,3.307,3.358,3.2574,3.353,3.4467,3.4784,3.4981,3.513,3.5215,3.5467,3.563,3.563,3.5827,3.5921,3.5921,3.5786,3.5675,3.5635,3.5546,3.55,3.55,3.55,3.55,3.55,3.55,3.55,3.5507,3.5546,3.5601,3.5663,3.5791,3.5887,3.5973,3.5996,3.5996,3.5996,3.5996,3.5996,3.5996,3.5917,3.5829,3.5693,3.4503,3.3948,3.329,3.2632,3.2512,3.2258,3.16,3.1511,3.1511,3.1511,3.1511,3.1796,3.252,3.2586,3.2629,3.2629,3.2586,3.2586,3.2629,3.2474,3.2416,3.2399,3.0477,2.9957,3.1171,3.0617,3.0597,3.119,3.119,3.119,3.119,3.119,3.119,3.119,3.121,3.143,3.1755,3.1028,3.0747,3.0742,2.9918,2.9379,2.9005,2.9005,2.9005,2.9005,2.9005,2.9005,2.9005,2.9005,2.9005,2.9005,2.9005,2.9005,2.9005,2.9005,3.0136,3.1397,3.1397,3.2559,3.3807,3.3807,3.3807,3.3807,3.3807,3.3807,3.3807,3.3807,3.3807,3.3807,3.3788,3.3788,3.3889,3.4171,3.42,3.4323,3.4653,3.4694,3.4793,3.5079,3.5105,3.5207,3.5467,3.5611,3.5707,3.5707,3.5899,3.5996,3.5996,3.5806,3.5707,3.5707,3.5566,3.5507,3.5507,3.55,3.55,3.55,3.55,3.55,3.55,3.55,3.554,3.5596,3.5659,3.5789,3.5905,3.5973,3.5996,3.5996,3.5996,3.5996,3.5996,3.5938,3.5829,3.5693,3.4503,3.3948,3.329,3.2632,3.2512,3.2258,3.16,3.1511,3.1511,3.1511,3.1951,3.2355,3.2574,3.3013,3.3287,3.3287,3.2868,3.2788,3.3261,3.3218,3.3154,3.3108,3.1525,3.0638,3.0559,3.0818,3.1015,3.119,3.119,3.119,3.119,3.119,3.119,3.121,3.1488,3.1696,3.1844,3.2268,3.1808,3.0792,3.0836,3.0106,2.9005,2.9005,2.9005,2.9005,2.9005,2.9005,2.9005,2.9005,2.9005,2.9005,2.9005,2.9005,2.9005,2.9005,3.0136,3.1397,3.1397,3.2559,3.3807,3.3807,3.3807,3.3807,3.3807,3.3807,3.3807,3.3807,3.3807,3.3868,3.4043,3.4093,3.4183,3.4508,3.4551,3.4645,3.4944,3.4981,3.5088,3.5354,3.5376,3.5435,3.5568,3.5646,3.5749,3.5836,3.5948,3.5975,3.5921,3.5877,3.5799,3.5707,3.5667,3.5648,3.5648,3.5546,3.55,3.55,3.55,3.55,3.55,3.55,3.554,3.5591,3.5611,3.5732,3.5903,3.5916,3.5951,3.5996,3.5996,3.5996,3.5996,3.5975,3.5919,3.5812,3.4891,3.4562,3.4071,3.341,3.3081,3.278,3.2394,3.2104,3.202,3.2312,3.2718,3.3093,3.3365,3.3761,3.3987,3.3987,3.3608,3.3556,3.3962,3.3917,3.374,3.3419,3.2273,3.1338,3.0658,3.1015,3.119,3.119,3.119,3.119,3.119,3.119,3.119,3.121,3.1621,3.1897,3.2127,3.2872,3.2549,3.1497,3.1424,3.0632,2.9445,2.9115,2.9005,2.9005,2.9005,2.9005,2.9005,2.9005,2.9005,2.9005,2.9005,2.9005,2.9005,2.9005,3.0136,3.1397,3.1397,3.2559,3.3807,3.3807,3.3807,3.3807,3.3807,3.3807,3.3829,3.3954,3.3961,3.4043,3.4345,3.4401,3.4489,3.4803,3.487,3.4954,3.5215,3.5277,3.5352,3.5515,3.5568,3.56,3.5639,3.5723,3.5819,3.5922,3.5975,3.5975,3.5945,3.5911,3.5869,3.5772,3.5723,3.5707,3.5707,3.5631,3.5574,3.5547,3.5547,3.5528,3.55,3.55,3.5522,3.5562,3.5585,3.5682,3.5834,3.5875,3.5944,3.5996,3.5996,3.5996,3.5996,3.5996,3.5951,3.5875,3.5504,3.5504,3.5294,3.469,3.4044,3.3602,3.3678,3.3124,3.2922,3.3521,3.3659,3.3912,3.4528,3.4664,3.4688,3.4688,3.4688,3.4648,3.46,3.4594,3.4235,3.344,3.2767,3.2022,3.1207,3.119,3.119,3.119,3.119,3.119,3.119,3.1249,3.1252,3.1271,3.1715,3.2161,3.2599,3.306,3.3011,3.2528,3.1806,3.098,3.0118,2.939,2.906,2.9005,2.9005,2.9005,2.9005,2.9005,2.9005,2.9005,2.9005,2.9005,2.9005,2.9005,3.0136,3.1397,3.1397,3.2559,3.3807,3.3807,3.3807,3.3807,3.3807,3.3815,3.3902,3.4159,3.4211,3.4345,3.4684,3.4753,3.4813,3.5096,3.5147,3.5227,3.5462,3.5574,3.5606,3.5606,3.5667,3.5707,3.5717,3.5821,3.5922,3.5996,3.5996,3.5996,3.5996,3.5945,3.5908,3.5908,3.5783,3.5729,3.5729,3.5729,3.5698,3.5606,3.5596,3.5579,3.5508,3.5507,3.55,3.5507,3.5568,3.563,3.57,3.5834,3.5921,3.5996,3.5996,3.5996,3.5996,3.5996,3.5951,3.5882,3.5504,3.5504,3.5477,3.5381,3.475,3.4319,3.4436,3.3846,3.3443,3.3582,3.4062,3.4431,3.4576,3.5075,3.5385,3.5385,3.5385,3.5161,3.4624,3.508,3.4754,3.3457,3.3254,3.2544,3.1224,3.119,3.119,3.119,3.119,3.119,3.121,3.1526,3.1678,3.1715,3.2533,3.295,3.3075,3.3494,3.3263,3.2583,3.2399,3.1476,3.0173,3.0008,2.9537,2.9005,2.9005,2.9005,2.9005,2.9005,2.9005,2.9005,2.9005,2.9005,2.9005,2.9005,3.0136,3.1397,3.1397,3.2559,3.3807,3.3807,3.3807,3.3807,3.3807,3.3961,3.4135,3.4188,3.4412,3.4684,3.4963,3.5008,3.5105,3.5369,3.5464,3.5504,3.5577,3.5639,3.5675,3.5675,3.5693,3.5732,3.5843,3.5924,3.5976,3.5996,3.5996,3.5996,3.5996,3.5995,3.5975,3.5975,3.5953,3.5931,3.5931,3.5931,3.5843,3.5671,3.5621,3.5595,3.5577,3.5528,3.55,3.55,3.5521,3.5556,3.5626,3.5716,3.5812,3.5938,3.5975,3.5996,3.5996,3.5996,3.5996,3.5951,3.5504,3.5504,3.5634,3.6043,3.5208,3.4776,3.5585,3.4774,3.4186,3.4496,3.4847,3.5075,3.5075,3.5385,3.56,3.56,3.56,3.5447,3.5098,3.5407,3.5092,3.3981,3.3592,3.2865,3.1752,3.1376,3.119,3.119,3.119,3.119,3.121,3.1621,3.1807,3.1843,3.2793,3.3199,3.3229,3.3638,3.3568,3.3146,3.2748,3.2087,3.1262,3.0485,2.9953,2.9519,2.9133,2.9005,2.9005,2.9005,2.9005,2.9005,2.9005,2.9005,2.9078,2.9464,3.0448,3.1488,3.1861,3.2871,3.3807,3.3807,3.3807,3.3807,3.3807,3.4006,3.4253,3.4401,3.4675,3.4972,3.5231,3.5289,3.5346,3.5486,3.557,3.5611,3.5611,3.5702,3.5799,3.5799,3.5828,3.5871,3.5946,3.5975,3.5996,3.5996,3.5996,3.5996,3.5996,3.5996,3.5996,3.5996,3.5996,3.5996,3.5996,3.5996,3.5953,3.5841,3.5777,3.5682,3.5605,3.5568,3.5522,3.55,3.55,3.554,3.5596,3.5644,3.5756,3.5905,3.5944,3.5974,3.5996,3.5996,3.5975,3.5924,3.5668,3.5701,3.5981,3.6908,3.5859,3.5361,3.6767,3.573,3.4965,3.5515,3.56,3.56,3.56,3.56,3.56,3.56,3.56,3.56,3.56,3.56,3.5261,3.4523,3.3914,3.3169,3.2327,3.1701,3.1326,3.119,3.119,3.1249,3.131,3.1733,3.1951,3.2074,3.2934,3.3302,3.3317,3.3666,3.3807,3.3733,3.306,3.2711,3.2454,3.1127,3.0448,3.0118,2.9445,2.9115,2.9005,2.9005,2.9005,2.9005,2.9005,2.9005,2.9152,2.9971,3.076,3.158,3.2381,3.3201,3.3807,3.3807,3.3807,3.3807,3.3807,3.4043,3.4368,3.4643,3.4954,3.5231,3.5453,3.55,3.55,3.55,3.5574,3.5626,3.5626,3.5783,3.5913,3.5913,3.5972,3.5996,3.5996,3.5996,3.5996,3.5996,3.5996,3.5996,3.5996,3.5996,3.5996,3.5996,3.5996,3.5996,3.5996,3.5996,3.5996,3.5996,3.5946,3.5824,3.5654,3.5611,3.556,3.5528,3.5494,3.5528,3.5574,3.56,3.5718,3.5871,3.5898,3.5945,3.5996,3.5996,3.5951,3.5877,3.6337,3.6446,3.6903,3.835,3.7376,3.6708,3.7593,3.6466,3.5492,3.56,3.56,3.56,3.56,3.56,3.56,3.56,3.56,3.56,3.56,3.56,3.5261,3.4523,3.4387,3.3694,3.2327,3.2209,3.1853,3.119,3.119,3.1389,3.1733,3.2196,3.2632,3.3029,3.3508,3.3721,3.3721,3.3793,3.3807,3.3788,3.3678,3.322,3.2583,3.2362,3.1421,3.0191,3.0081,2.9592,2.9005,2.9005,2.9005,2.9005,2.9005,2.9005,2.9152,2.9971,3.076,3.158,3.2381,3.3201,3.3807,3.3807,3.3807,3.3807,3.3807,3.4244,3.4653,3.4684,3.5096,3.5453,3.5493,3.55,3.55,3.55,3.5601,3.5686,3.5686,3.5866,3.5995,3.5995,3.5996,3.5996,3.5996,3.5996,3.5996,3.5996,3.5996,3.5996,3.5996,3.5996,3.5996,3.5996,3.5996,3.5996,3.5996,3.5996,3.5996,3.5996,3.5996,3.5947,3.5858,3.5689,3.56,3.5574,3.5528,3.5514,3.5509,3.5577,3.5657,3.5749,3.5845,3.5945,3.5996,3.5996,3.5951,3.5901,3.7219,3.7279,3.7616,3.8718,3.7696,3.6961,3.7793,3.658,3.56,3.56,3.56,3.56,3.56,3.56,3.56,3.56,3.56,3.56,3.56,3.56,3.5447,3.5131,3.4726,3.3998,3.2933,3.2513,3.1938,3.119,3.119,3.1411,3.1825,3.2282,3.2745,3.3214,3.3606,3.3807,3.3807,3.3807,3.3807,3.3807,3.3807,3.3587,3.322,3.2766,3.2161,3.1408,3.0522,2.9684,2.9005,2.9005,2.9005,2.9005,2.9005,2.9005,2.9244,3.0503,3.1109,3.1659,3.2926,3.3532,3.3807,3.3807,3.3807,3.3807,3.3807,3.4279,3.4694,3.4694,3.5122,3.55,3.55,3.55,3.55,3.55,3.5616,3.5707,3.5707,3.5875,3.5996,3.5996,3.5996,3.5996,3.5996,3.5996,3.5996,3.5996,3.5996,3.5996,3.5996,3.5996,3.5996,3.5996,3.5996,3.5996,3.5996,3.5996,3.5996,3.5996,3.5996,3.5953,3.59,3.5723,3.5639,3.56,3.5522,3.55,3.5507,3.5528,3.5574,3.5646,3.5746,3.5889,3.5996,3.5996,3.5975,3.5948]}]]